[[{"header":{"parameterUnit":"m.s-1","parameterCategory":1,"la1":30.6,"la2":29.2853,"lo1":-89.7004,"lo2":-87.6739,"dy":0.0162,"dx":0.0183,"nx":112,"ny":82,"refTime":"2025-04-24T18:00:00:Z","depth":0,"parameterNumber":2,"parameterNumberName":"U-component_of_WINDS"},"data":[0.0,0.0,0.0,0.0,0.0,0.0,0.0,0.0,0.0,0.0,0.0,0.0,0.0,0.0,0.0,0.0,0.0,0.0,0.0,0.0,0.0,0.0,0.0,0.0,0.0,0.0,0.0,0.0,0.0,0.0,0.0,0.0,0.0,0.0,0.0,0.0,0.0,0.0,0.0,0.0,0.0,0.0,0.0,0.0,0.0,0.0,0.0,0.0,0.0,0.0,0.0,0.0,0.0,0.0,0.0,0.0,0.0,0.0,0.0,0.0,0.0,0.0,0.0,0.0,0.0,0.0,0.0,0.0,0.0,0.0,0.0,0.0,0.0,0.0,0.0,0.0,0.0,0.0,0.0,0.0,0.0,0.0,0.0,0.0,0.0,0.0,0.0,0.0,0.0,0.0,0.0,-2.8607,-3.2852,-3.5154,-3.4263,-3.3247,-3.0524,-2.552,0.0,0.0,0.0,0.0,0.0,0.0,0.0,0.0,0.0,0.0,0.0,0.0,0.0,0.0,0.0,0.0,0.0,0.0,0.0,0.0,0.0,0.0,0.0,0.0,0.0,0.0,0.0,0.0,0.0,0.0,0.0,0.0,0.0,0.0,0.0,0.0,0.0,0.0,0.0,0.0,0.0,0.0,0.0,0.0,0.0,0.0,0.0,0.0,0.0,0.0,0.0,0.0,0.0,0.0,0.0,0.0,0.0,0.0,0.0,0.0,0.0,0.0,0.0,0.0,0.0,0.0,0.0,0.0,0.0,0.0,0.0,0.0,0.0,0.0,0.0,0.0,0.0,0.0,0.0,0.0,0.0,0.0,0.0,0.0,0.0,0.0,0.0,0.0,0.0,0.0,0.0,0.0,0.0,0.0,0.0,0.0,0.0,0.0,0.0,0.0,0.0,0.0,0.0,0.0,-2.6578,-3.2609,-3.4603,-3.5154,-3.4263,-3.3119,-3.0638,-2.637,0.0,0.0,0.0,0.0,0.0,0.0,0.0,0.0,0.0,0.0,0.0,0.0,0.0,0.0,0.0,0.0,0.0,0.0,0.0,0.0,0.0,0.0,0.0,0.0,0.0,0.0,0.0,0.0,0.0,0.0,0.0,0.0,0.0,0.0,0.0,0.0,0.0,0.0,0.0,0.0,0.0,0.0,0.0,0.0,0.0,0.0,0.0,0.0,0.0,0.0,0.0,0.0,0.0,0.0,0.0,0.0,0.0,0.0,0.0,0.0,0.0,0.0,0.0,0.0,0.0,0.0,0.0,0.0,0.0,0.0,0.0,0.0,0.0,0.0,0.0,0.0,0.0,0.0,0.0,0.0,0.0,0.0,0.0,0.0,0.0,0.0,0.0,0.0,0.0,0.0,0.0,0.0,0.0,0.0,0.0,0.0,0.0,0.0,0.0,0.0,0.0,0.0,0.0,-2.614,-2.8934,-3.434,-3.5258,-3.5335,-3.493,-3.3532,-3.1026,-2.7183,-2.4094,0.0,0.0,0.0,0.0,0.0,0.0,0.0,0.0,0.0,0.0,0.0,0.0,0.0,0.0,0.0,0.0,0.0,0.0,0.0,0.0,0.0,0.0,0.0,0.0,0.0,0.0,0.0,0.0,0.0,0.0,0.0,0.0,0.0,0.0,0.0,0.0,0.0,0.0,0.0,0.0,0.0,0.0,0.0,0.0,0.0,0.0,0.0,0.0,0.0,0.0,0.0,0.0,0.0,0.0,0.0,0.0,0.0,0.0,0.0,0.0,0.0,0.0,0.0,0.0,0.0,0.0,0.0,0.0,0.0,0.0,0.0,0.0,0.0,0.0,0.0,0.0,0.0,0.0,0.0,0.0,0.0,0.0,0.0,0.0,0.0,0.0,0.0,0.0,0.0,0.0,0.0,0.0,0.0,0.0,0.0,0.0,0.0,0.0,0.0,0.0,0.0,0.0,-2.947,-3.1488,-3.5103,-3.5502,-3.5489,-3.5507,-3.3692,-3.1123,-2.777,-2.4144,0.0,0.0,0.0,0.0,0.0,0.0,0.0,0.0,0.0,0.0,0.0,0.0,0.0,0.0,0.0,0.0,0.0,0.0,0.0,0.0,0.0,0.0,0.0,0.0,0.0,0.0,0.0,0.0,0.0,0.0,0.0,0.0,0.0,0.0,0.0,0.0,0.0,0.0,0.0,0.0,0.0,0.0,0.0,0.0,0.0,0.0,0.0,0.0,0.0,0.0,0.0,0.0,0.0,0.0,0.0,0.0,0.0,0.0,0.0,0.0,0.0,0.0,0.0,0.0,0.0,0.0,0.0,0.0,0.0,0.0,0.0,0.0,0.0,0.0,0.0,0.0,0.0,0.0,0.0,0.0,0.0,0.0,0.0,0.0,0.0,0.0,0.0,0.0,0.0,0.0,0.0,0.0,0.0,0.0,0.0,0.0,0.0,0.0,0.0,0.0,0.0,0.0,-3.0268,-3.3429,-3.5295,-3.5502,-3.5489,-3.5507,-3.3046,-3.0411,-2.7841,-2.3544,0.0,0.0,0.0,0.0,0.0,0.0,0.0,0.0,0.0,0.0,0.0,0.0,0.0,0.0,0.0,0.0,0.0,0.0,0.0,0.0,0.0,0.0,0.0,0.0,0.0,0.0,0.0,0.0,0.0,0.0,0.0,0.0,0.0,0.0,0.0,0.0,0.0,0.0,0.0,0.0,0.0,0.0,0.0,0.0,0.0,0.0,0.0,0.0,0.0,0.0,0.0,0.0,0.0,0.0,0.0,0.0,0.0,0.0,0.0,0.0,0.0,0.0,0.0,0.0,0.0,0.0,0.0,0.0,0.0,0.0,0.0,0.0,0.0,0.0,0.0,0.0,0.0,0.0,0.0,0.0,0.0,0.0,0.0,0.0,0.0,0.0,0.0,0.0,0.0,0.0,0.0,0.0,0.0,0.0,0.0,0.0,0.0,0.0,0.0,0.0,0.0,0.0,-3.0216,-3.3037,0.0,-3.5502,-3.5489,-3.5507,-3.3556,-3.1015,-2.7898,0.0,0.0,0.0,0.0,0.0,0.0,0.0,0.0,0.0,0.0,0.0,0.0,0.0,0.0,0.0,0.0,0.0,0.0,0.0,0.0,0.0,0.0,0.0,0.0,0.0,0.0,0.0,0.0,0.0,0.0,0.0,0.0,0.0,0.0,0.0,0.0,0.0,0.0,0.0,0.0,0.0,0.0,0.0,0.0,0.0,0.0,0.0,0.0,0.0,0.0,0.0,0.0,0.0,0.0,0.0,0.0,0.0,0.0,0.0,0.0,0.0,0.0,0.0,0.0,0.0,0.0,0.0,0.0,0.0,0.0,0.0,0.0,0.0,0.0,0.0,0.0,0.0,0.0,0.0,0.0,0.0,0.0,0.0,0.0,0.0,0.0,0.0,0.0,0.0,0.0,0.0,0.0,0.0,0.0,0.0,0.0,0.0,0.0,0.0,0.0,0.0,0.0,-2.7426,-3.0582,-3.3268,0.0,-3.5502,-3.5489,-3.5507,-3.368,-3.1039,-2.7576,0.0,0.0,0.0,0.0,0.0,0.0,0.0,0.0,0.0,0.0,0.0,0.0,0.0,0.0,0.0,0.0,0.0,0.0,0.0,0.0,0.0,0.0,0.0,0.0,0.0,0.0,0.0,0.0,0.0,0.0,0.0,0.0,0.0,0.0,0.0,0.0,0.0,0.0,0.0,0.0,0.0,0.0,0.0,0.0,0.0,0.0,0.0,0.0,0.0,0.0,0.0,0.0,0.0,0.0,0.0,0.0,0.0,0.0,0.0,0.0,0.0,0.0,0.0,0.0,0.0,0.0,0.0,0.0,0.0,0.0,0.0,0.0,0.0,0.0,0.0,0.0,0.0,0.0,0.0,0.0,0.0,0.0,0.0,0.0,0.0,0.0,0.0,0.0,0.0,0.0,0.0,0.0,0.0,0.0,0.0,0.0,0.0,0.0,0.0,0.0,0.0,0.0,-2.758,-3.1592,-3.4546,-3.5411,-3.5502,-3.5489,-3.5507,-3.3173,-3.0256,0.0,0.0,0.0,0.0,0.0,0.0,0.0,0.0,0.0,0.0,0.0,0.0,0.0,0.0,0.0,0.0,0.0,0.0,0.0,0.0,0.0,0.0,0.0,0.0,0.0,0.0,0.0,0.0,0.0,0.0,0.0,0.0,0.0,0.0,0.0,0.0,0.0,0.0,0.0,0.0,0.0,0.0,0.0,0.0,0.0,0.0,0.0,0.0,0.0,0.0,0.0,0.0,0.0,0.0,0.0,0.0,0.0,0.0,0.0,0.0,0.0,0.0,0.0,0.0,0.0,0.0,0.0,0.0,0.0,0.0,0.0,0.0,0.0,0.0,0.0,0.0,0.0,0.0,0.0,0.0,0.0,0.0,0.0,0.0,0.0,0.0,0.0,0.0,0.0,0.0,0.0,0.0,0.0,0.0,0.0,0.0,0.0,0.0,0.0,0.0,0.0,0.0,0.0,0.0,-3.2115,-3.5225,-3.5462,-3.5494,-3.5494,-3.55,-3.368,-3.0852,-2.6851,0.0,0.0,0.0,0.0,0.0,0.0,0.0,0.0,0.0,0.0,0.0,0.0,0.0,0.0,0.0,0.0,0.0,0.0,0.0,0.0,0.0,0.0,0.0,0.0,0.0,0.0,0.0,0.0,0.0,0.0,0.0,0.0,0.0,0.0,0.0,0.0,0.0,0.0,0.0,0.0,0.0,0.0,0.0,0.0,0.0,0.0,0.0,0.0,0.0,0.0,0.0,0.0,0.0,0.0,0.0,0.0,0.0,0.0,0.0,0.0,0.0,0.0,0.0,0.0,0.0,0.0,0.0,0.0,0.0,0.0,0.0,0.0,0.0,0.0,0.0,0.0,0.0,0.0,0.0,0.0,0.0,0.0,0.0,0.0,0.0,0.0,0.0,0.0,0.0,0.0,0.0,0.0,0.0,0.0,0.0,0.0,0.0,0.0,0.0,0.0,0.0,0.0,-2.7684,-3.2352,-3.55,-3.55,-3.55,-3.55,-3.55,-3.391,-3.1256,-2.7351,0.0,0.0,0.0,0.0,0.0,0.0,0.0,0.0,0.0,0.0,0.0,0.0,0.0,0.0,0.0,0.0,0.0,0.0,0.0,0.0,0.0,0.0,0.0,0.0,0.0,0.0,0.0,0.0,0.0,0.0,0.0,0.0,0.0,0.0,0.0,0.0,0.0,0.0,0.0,0.0,0.0,0.0,0.0,0.0,0.0,0.0,0.0,0.0,0.0,0.0,0.0,0.0,0.0,0.0,0.0,0.0,0.0,0.0,0.0,0.0,0.0,0.0,0.0,0.0,0.0,0.0,0.0,0.0,0.0,0.0,0.0,0.0,0.0,0.0,0.0,0.0,0.0,0.0,0.0,0.0,0.0,0.0,0.0,0.0,0.0,0.0,0.0,0.0,0.0,0.0,0.0,0.0,0.0,0.0,0.0,0.0,0.0,0.0,0.0,0.0,0.0,0.0,-2.7684,-3.2352,-3.55,-3.55,-3.55,-3.55,-3.55,-3.3987,-3.1583,-2.8222,0.0,0.0,0.0,0.0,0.0,0.0,0.0,0.0,0.0,0.0,0.0,0.0,0.0,0.0,0.0,0.0,0.0,0.0,0.0,0.0,0.0,0.0,0.0,0.0,0.0,0.0,0.0,0.0,0.0,0.0,0.0,0.0,0.0,0.0,0.0,0.0,0.0,0.0,0.0,0.0,0.0,0.0,0.0,0.0,0.0,0.0,0.0,0.0,0.0,0.0,0.0,0.0,0.0,0.0,0.0,0.0,0.0,0.0,0.0,0.0,-2.4771,0.0,0.0,0.0,0.0,0.0,0.0,0.0,0.0,0.0,0.0,0.0,0.0,0.0,0.0,0.0,0.0,0.0,0.0,0.0,0.0,0.0,0.0,0.0,0.0,0.0,0.0,0.0,0.0,0.0,0.0,0.0,0.0,0.0,0.0,0.0,0.0,0.0,0.0,0.0,0.0,0.0,-2.7684,-3.2352,-3.55,-3.55,-3.55,-3.55,-3.55,-3.4526,-3.2474,-2.9069,0.0,0.0,0.0,0.0,0.0,0.0,0.0,0.0,0.0,0.0,0.0,0.0,0.0,0.0,0.0,0.0,0.0,0.0,0.0,0.0,0.0,0.0,0.0,0.0,0.0,0.0,0.0,0.0,0.0,0.0,0.0,0.0,0.0,0.0,0.0,0.0,0.0,0.0,0.0,0.0,0.0,0.0,0.0,0.0,0.0,0.0,0.0,0.0,0.0,0.0,0.0,0.0,0.0,0.0,0.0,0.0,0.0,0.0,0.0,0.0,0.0,-2.6163,0.0,0.0,0.0,0.0,0.0,0.0,0.0,0.0,0.0,0.0,0.0,0.0,0.0,0.0,0.0,0.0,0.0,0.0,0.0,0.0,0.0,0.0,0.0,0.0,0.0,0.0,0.0,0.0,0.0,0.0,0.0,0.0,0.0,0.0,0.0,0.0,0.0,0.0,0.0,0.0,-2.8261,-3.2583,-3.55,-3.55,-3.55,-3.55,-3.55,-3.4699,-3.3109,-3.0506,-2.8371,0.0,0.0,0.0,0.0,0.0,0.0,0.0,0.0,0.0,0.0,0.0,0.0,0.0,0.0,0.0,0.0,0.0,0.0,0.0,0.0,0.0,0.0,0.0,0.0,0.0,0.0,0.0,0.0,0.0,0.0,0.0,0.0,0.0,0.0,0.0,0.0,0.0,0.0,0.0,0.0,0.0,0.0,0.0,0.0,0.0,0.0,0.0,0.0,0.0,0.0,0.0,0.0,0.0,-3.3905,-3.4763,-3.5489,-3.6214,-3.6866,-3.7167,-3.2246,-3.0543,-3.1058,0.0,0.0,0.0,0.0,0.0,0.0,0.0,0.0,0.0,0.0,0.0,0.0,0.0,0.0,0.0,0.0,0.0,0.0,0.0,0.0,0.0,0.0,0.0,0.0,0.0,-3.039,-3.0692,0.0,0.0,0.0,0.0,0.0,0.0,0.0,0.0,0.0,0.0,0.0,0.0,-2.93,-3.3026,-3.55,-3.55,-3.55,-3.55,-3.55,-3.4834,-3.3776,-3.2237,-2.989,-2.7414,0.0,0.0,0.0,0.0,0.0,0.0,0.0,0.0,0.0,0.0,0.0,0.0,0.0,0.0,0.0,0.0,0.0,0.0,0.0,0.0,0.0,0.0,0.0,0.0,0.0,0.0,0.0,0.0,0.0,0.0,0.0,0.0,-2.1617,-2.3306,0.0,0.0,0.0,0.0,0.0,0.0,0.0,0.0,0.0,0.0,0.0,0.0,0.0,-3.2505,-3.3702,-3.5853,-3.7043,-3.7288,-3.8798,-3.9572,-3.9706,-3.9803,-3.9911,-3.9973,-3.9184,0.0,-3.4673,-3.2718,0.0,0.0,0.0,0.0,0.0,0.0,0.0,0.0,0.0,0.0,0.0,0.0,0.0,0.0,0.0,0.0,0.0,0.0,0.0,0.0,0.0,0.0,-3.5212,-3.4635,-3.5192,-3.5558,0.0,-3.0096,-2.6294,-2.587,-2.4683,0.0,0.0,0.0,0.0,0.0,0.0,0.0,-3.0948,-3.3769,-3.55,-3.55,-3.55,-3.55,-3.55,-3.5385,-3.4911,-3.3936,-3.2199,-3.0063,-2.7511,-2.4952,0.0,0.0,0.0,0.0,0.0,0.0,0.0,0.0,0.0,0.0,0.0,0.0,0.0,0.0,0.0,0.0,0.0,0.0,0.0,0.0,0.0,0.0,0.0,0.0,0.0,0.0,0.0,0.0,0.0,-2.0966,-2.2763,-2.4048,-2.3582,-2.2956,0.0,0.0,0.0,0.0,0.0,0.0,0.0,0.0,0.0,-3.4021,-3.5273,-3.7009,-3.9277,-4.0367,-4.1385,-4.2329,-4.3533,-4.4105,-4.4105,-4.4566,-4.4778,-4.4739,-4.4297,-4.2989,-4.0854,-3.6738,-3.4372,-3.316,0.0,0.0,0.0,0.0,-3.0564,-3.041,-3.2218,-3.2295,0.0,0.0,0.0,0.0,0.0,0.0,0.0,0.0,0.0,0.0,0.0,0.0,0.0,-3.675,-3.718,-3.7334,-3.6988,-3.4853,-3.216,0.0,-2.814,-2.6774,-2.4009,0.0,0.0,0.0,0.0,0.0,-3.2122,-3.4192,-3.55,-3.55,-3.55,-3.55,-3.55,-3.55,-3.5141,-3.4263,-3.3506,-3.1968,-2.941,-2.7337,-2.4856,0.0,0.0,0.0,0.0,0.0,0.0,0.0,0.0,0.0,0.0,0.0,0.0,0.0,0.0,0.0,0.0,0.0,0.0,0.0,0.0,0.0,0.0,0.0,0.0,0.0,0.0,0.0,0.0,-2.3325,-2.5,-2.546,-2.6588,-2.6601,0.0,0.0,0.0,0.0,0.0,0.0,-3.2399,-3.4248,-3.6239,-3.835,-3.9674,-4.1569,-4.4102,-4.4333,-4.507,-4.636,-4.7008,-4.7309,-4.7328,-4.7926,-4.8197,-4.8177,-4.7529,-4.6896,-4.5874,-4.055,-3.8065,-3.7469,-3.5353,-3.4391,-3.4314,-3.5187,-3.509,-3.4834,-3.6949,-3.7276,-3.6526,-3.5026,0.0,-3.3103,-3.0602,0.0,0.0,0.0,0.0,-3.2654,-3.5423,-3.6308,-3.6796,-3.8046,-3.8334,-3.8334,-3.8334,-3.7988,-3.6546,0.0,-3.1846,-3.0558,-2.6972,0.0,0.0,0.0,0.0,-3.216,-3.341,-3.4692,-3.55,-3.55,-3.55,-3.55,-3.55,-3.55,-3.5212,-3.4564,-3.4321,-3.3256,-3.1135,-2.9429,-2.7332,-2.4798,0.0,0.0,0.0,0.0,0.0,0.0,0.0,0.0,0.0,0.0,0.0,0.0,0.0,0.0,0.0,0.0,0.0,0.0,0.0,0.0,0.0,0.0,0.0,0.0,0.0,0.0,0.0,0.0,0.0,-2.9121,-3.1095,0.0,0.0,0.0,0.0,-3.2554,-3.4333,-3.6061,-3.7642,-4.0095,-4.1861,-4.2747,-4.5171,-4.6604,-4.6902,-4.7657,-4.814,-4.8347,-4.8405,-4.8425,-4.8425,-4.8463,-4.8483,-4.8477,-4.8301,-4.8198,-4.7881,-4.4264,-4.1797,-4.0227,-3.9323,-3.8469,-3.7853,-3.8726,-3.9015,-3.9111,-3.9996,-4.0285,-4.0112,-3.9265,-3.7334,-3.5346,-3.5173,-3.4545,0.0,0.0,-3.5788,-3.6615,-3.7603,-3.8488,-3.913,-3.9207,-3.9227,-3.9227,-3.9227,-3.793,-3.6692,0.0,-3.5769,-3.4654,-3.2776,0.0,-3.0788,-3.2295,-3.2045,-3.2583,-3.5058,-3.5442,-3.55,-3.55,-3.55,-3.55,-3.55,-3.55,-3.5481,-3.5442,-3.4661,-3.3782,-3.2814,-3.1154,-2.9077,-2.6524,-2.4798,0.0,0.0,0.0,0.0,0.0,0.0,0.0,0.0,0.0,0.0,0.0,0.0,0.0,0.0,0.0,0.0,0.0,0.0,0.0,0.0,0.0,0.0,0.0,0.0,0.0,0.0,0.0,0.0,-3.171,-3.3843,0.0,0.0,-3.4828,-3.5957,-3.6382,-3.9002,-4.0854,-4.1484,-4.3923,-4.5439,-4.5738,-4.7159,-4.8231,-4.8819,-4.9129,-4.9555,-5.012,-5.012,-5.012,-5.012,-5.012,-5.0098,-5.0046,-4.9996,-4.9613,-4.8917,-4.7671,-4.6144,-4.4528,-4.369,-4.2824,-4.2085,-4.2393,-4.2181,-4.1797,-4.2066,-4.2162,-4.2027,-4.1181,-3.9912,-3.8719,-3.8719,-3.8496,-3.8438,-3.9315,-3.975,-4.0173,-4.1066,-4.1508,-4.1739,-4.1739,-4.1316,-4.0912,-4.0912,-3.9988,-3.8988,-3.8469,-3.7238,-3.5904,-3.4769,-3.45,-3.4288,-3.3814,-3.3968,-3.4462,-3.5385,-3.55,-3.55,-3.55,-3.55,-3.55,-3.55,-3.55,-3.55,-3.55,-3.468,-3.3821,-3.2949,-3.1833,-3.0275,-2.8261,-2.7107,-2.4769,0.0,0.0,0.0,0.0,0.0,0.0,0.0,0.0,0.0,0.0,0.0,0.0,0.0,0.0,0.0,0.0,0.0,0.0,0.0,0.0,0.0,0.0,0.0,0.0,0.0,0.0,-3.4103,-3.3909,-3.6838,-3.8458,-3.7448,-3.9077,-4.0494,-4.1243,-4.3361,-4.4763,-4.5089,-4.6994,-4.8077,-4.8077,-4.8907,-4.9642,-5.0276,-5.0276,-5.0564,-5.1137,-5.1137,-5.1118,-5.1063,-5.1063,-5.1022,-5.093,-5.0917,-5.0521,-4.99,-4.9865,-4.9183,-4.8067,-4.6894,-4.6086,-4.5586,-4.5586,-4.524,-4.4759,-4.4489,-4.4008,-4.3412,-4.2835,-4.2066,-4.1381,-4.1381,-4.1381,-4.1489,-4.2085,-4.2239,-4.2374,-4.2951,-4.3104,-4.3104,-4.3104,-4.2662,-4.2162,-4.1865,-4.1354,-4.0681,-3.9881,-3.8546,-3.7315,-3.6481,-3.6788,-3.6661,-3.5257,-3.5795,-3.6135,-3.5577,-3.5731,-3.5808,-3.5538,-3.55,-3.55,-3.55,-3.5231,-3.5192,-3.5481,-3.441,-3.3506,-3.291,-3.1852,-3.0583,-2.9127,-2.803,-2.5943,-2.2874,0.0,0.0,0.0,0.0,0.0,0.0,0.0,0.0,0.0,0.0,0.0,0.0,0.0,0.0,0.0,0.0,0.0,0.0,0.0,0.0,0.0,0.0,0.0,-3.1929,-3.4692,-3.658,-3.5957,-4.0203,-4.2598,-4.1163,-4.3212,-4.535,-4.71,-4.7271,-4.766,-4.8496,-4.9384,-4.9845,-4.9845,-5.0612,-5.1069,-5.1199,-5.1203,-5.1262,-5.1392,-5.1394,-5.133,-5.1203,-5.1203,-5.1128,-5.099,-5.0935,-5.0894,-5.0871,-5.0749,-5.0712,-5.0539,-4.8836,-4.8163,-4.8144,-4.8144,-4.8125,-4.799,-4.7212,-4.5836,-4.4412,-4.4412,-4.3874,-4.322,-4.322,-4.3201,-4.3181,-4.3181,-4.3181,-4.3181,-4.3181,-4.3181,-4.3181,-4.3181,-4.3162,-4.2912,-4.2058,-4.1846,-4.1546,-4.0708,-3.99,-3.9073,-3.8219,-3.8065,-3.7757,-3.6904,-3.7488,0.0,-3.5788,-3.6231,-3.6385,-3.5596,-3.5481,-3.5462,-3.5462,-3.468,-3.4564,-3.5404,-3.3853,-3.2891,-3.2891,-3.1288,-3.0,-2.9165,-2.7467,-2.6227,-2.5438,0.0,0.0,0.0,0.0,0.0,0.0,0.0,0.0,0.0,0.0,0.0,0.0,0.0,0.0,0.0,0.0,0.0,0.0,0.0,0.0,0.0,0.0,-3.4712,-3.4481,-3.7334,-4.0081,-4.1701,-4.3679,-4.5216,-4.6023,-4.6808,-4.7501,-4.8094,-4.8822,-4.9352,-4.9633,-5.0494,-5.0962,-5.0962,-5.1177,-5.1258,-5.1203,-5.1294,-5.1302,-5.1255,-5.1357,-5.133,-5.1203,-5.1203,-5.1093,-5.0935,-5.091,-5.0841,-5.0749,-5.0712,-5.0712,-5.0654,-5.0164,-4.9606,-4.9048,-4.9048,-4.8644,-4.8067,-4.7855,-4.7471,-4.7067,-4.7067,-4.6509,-4.5855,-4.5855,-4.5413,-4.4921,-4.4921,-4.4921,-4.4921,-4.4921,-4.4921,-4.4921,-4.4921,-4.4432,-4.3893,-4.3662,-4.2662,-4.1731,-4.1489,-4.0739,-4.0092,-3.9861,-3.9342,-3.8854,-3.8623,-3.8257,0.0,-3.7373,-3.6942,-3.6385,-3.5596,-3.4924,-3.4565,-3.4571,-3.4334,-3.4295,-3.4545,-3.3506,-3.2891,-3.2891,-3.1288,-3.0288,-3.0038,-2.778,-2.6501,0.0,0.0,0.0,0.0,0.0,0.0,0.0,0.0,0.0,0.0,0.0,0.0,0.0,0.0,0.0,0.0,0.0,0.0,0.0,0.0,0.0,0.0,-3.593,-3.7969,-3.9046,-4.0854,-4.2786,-4.4624,-4.5913,-4.7214,-4.8674,-4.8829,-4.9052,-4.9591,-5.0126,-5.043,-5.0474,-5.0968,-5.1222,-5.1222,-5.1222,-5.1199,-5.1123,-5.1199,-5.1199,-5.1123,-5.1199,-5.1178,-5.1075,-5.1075,-5.0985,0.0,-5.0819,-5.0776,-5.0712,-5.0712,-5.0712,0.0,0.0,0.0,0.0,0.0,-4.9394,-4.8644,-4.8644,-4.8413,-4.8105,-4.8105,-4.7778,-4.7413,-4.7413,-4.6817,-4.6144,-4.6144,-4.5874,-4.5594,-4.5594,-4.5594,-4.5594,-4.5594,-4.521,-4.4739,-4.4374,-4.3528,-4.2643,-4.1942,-4.1393,0.0,-4.0554,-4.0112,-3.9688,-3.9361,-3.9169,-3.8796,-3.8084,-3.7873,-3.7334,-3.6135,-3.5552,-3.5116,-3.4776,-3.4404,0.0,0.0,0.0,-3.2583,-3.1891,-3.0923,0.0,0.0,0.0,0.0,0.0,0.0,0.0,0.0,-2.4267,-2.3422,0.0,0.0,0.0,0.0,0.0,0.0,0.0,0.0,0.0,0.0,0.0,0.0,0.0,0.0,0.0,0.0,-3.92,-4.1747,-4.4105,-4.4682,-4.5163,-4.5941,-4.7336,-4.869,-4.9789,-4.9806,-5.0138,-5.1083,-5.1058,-5.1002,-5.1002,0.0,0.0,0.0,0.0,-5.1132,-5.112,-5.1249,-5.1287,-5.1269,-5.1287,-5.1244,-5.1184,-5.1184,-5.1106,-5.0981,-5.0885,-5.0846,-5.0827,-5.075,-5.0712,-5.0712,-5.0712,-5.0712,-5.0712,-5.0712,-5.0212,-4.9548,-4.9548,0.0,0.0,-4.8394,-4.8336,-4.8259,-4.8259,-4.7682,-4.7038,-4.7038,-4.6413,-4.5748,-4.5748,-4.5671,-4.5594,-4.5594,-4.5594,-4.5383,-4.4605,-4.4374,-4.3835,-4.2258,-4.1865,-4.1527,-4.065,-4.0496,-4.0265,-3.9534,-4.0035,-3.9958,-3.8469,-3.8873,-3.8661,-3.7019,0.0,0.0,-3.5558,-3.4699,-3.4533,-3.5308,-3.391,-3.2333,-3.075,-3.0788,-3.0788,-3.0673,-3.0673,-3.1404,-3.2891,-3.2891,-3.2526,-3.1718,-2.6314,-2.4641,0.0,0.0,0.0,0.0,0.0,0.0,0.0,0.0,0.0,0.0,0.0,0.0,0.0,0.0,0.0,-3.845,-4.147,-4.397,-4.519,-4.7124,-4.8471,-4.8644,-4.8952,-4.9509,-5.0429,-5.0599,-5.0724,-5.0937,-5.0979,-5.1002,-5.1002,-5.1002,0.0,-5.1002,-5.1682,-5.1994,-5.1893,-5.2686,-5.3035,-5.2938,0.0,0.0,-5.2929,-5.2929,-5.2835,-5.2683,-5.1972,-5.1673,-5.1625,-5.0971,-5.0712,-5.0712,-5.0712,-5.0712,-5.0712,-5.0712,-5.0596,-5.0462,-5.0462,-5.0346,-5.0212,-5.0212,-4.9721,-4.9144,-4.9144,-4.8548,0.0,-4.7875,-4.7278,-4.6644,-4.6644,-4.6124,-4.5594,-4.5594,-4.5594,-4.5556,-4.5383,-4.4797,-4.4008,-4.3047,-4.2277,-4.1527,-4.065,-4.0496,-4.0458,-4.0285,-4.04,-4.0381,-4.0054,-3.9611,-3.8892,-3.7853,-3.6547,-3.5662,-3.55,-3.47,-3.4263,-3.4436,-3.4148,-3.3487,-3.2468,-3.3083,-3.3122,-3.2429,-3.2429,-3.2583,-3.2891,-3.2891,-3.2814,-3.2622,-3.082,-3.0169,0.0,0.0,0.0,0.0,0.0,0.0,0.0,0.0,0.0,0.0,0.0,-3.3346,0.0,0.0,-3.995,-4.2112,-4.422,-4.6047,-4.7317,-4.8606,-4.9394,-4.9394,-4.9779,-5.025,-5.0754,-5.0801,-5.0836,-5.0887,-5.0867,-5.0848,-5.0848,-5.1227,-5.1459,-5.1459,-5.231,-5.2724,-5.2655,-5.3149,-5.3361,-5.3291,-5.3361,-5.3361,-5.3291,-5.3291,-5.3254,-5.3183,-5.2741,-5.2538,-5.2519,-5.2125,-5.1683,-5.1298,-5.1298,-5.1048,-5.0712,-5.0712,-5.0712,-5.0712,-5.0712,-5.0712,-5.0712,-5.0712,-5.0423,-5.0048,-5.0048,-4.9433,-4.8759,-4.8759,-4.7855,-4.6904,-4.6904,-4.624,-4.5594,-4.5594,-4.5594,-4.5594,-4.5594,-4.5267,-4.4701,-4.3855,-4.3028,-4.2181,-4.1296,-4.0785,-4.0496,-4.0496,-4.0496,-4.0496,-4.0496,-4.015,-3.9573,-3.8738,-3.7906,-3.7041,-3.6173,-3.5321,-3.4847,-3.4853,-3.4853,-3.4468,-3.3583,-3.3975,-3.3994,-3.3564,-3.3545,-3.3776,-3.4192,-3.4192,-3.4192,-3.4192,-3.3788,-3.3154,0.0,0.0,0.0,0.0,0.0,0.0,0.0,0.0,-3.091,-3.2122,-3.4692,-3.7192,-3.8719,-4.0931,-4.3278,-4.549,-4.6721,-4.7855,-4.9202,-4.9548,-4.9644,-4.9644,-5.0269,-5.074,-5.085,-5.0767,-5.074,-5.085,-5.0912,-5.0933,-5.0933,-5.1722,-5.2154,-5.2154,-5.301,-5.3453,-5.3453,-5.3606,-5.3683,-5.3683,-5.3683,-5.3683,-5.3683,-5.3683,-5.3683,-5.3683,-5.353,-5.3356,-5.3203,-5.3203,-5.2799,-5.2154,-5.2154,-5.1645,-5.0914,-5.077,-5.0712,-5.0712,-5.0712,-5.0712,-5.0712,-5.0712,-5.0712,-5.0712,-5.0712,-5.0212,-4.9644,-4.9644,-4.8567,-4.7355,-4.7173,-4.6509,-4.5806,-4.5633,-4.5594,-4.5594,-4.5594,-4.5594,-4.5344,-4.447,-4.3778,-4.3008,-4.1981,-4.1219,-4.0708,-4.0535,-4.0496,-4.0496,-4.0496,-4.0496,-4.0246,-3.9611,-3.94,-3.8584,-3.6846,-3.5962,-3.55,-3.55,-3.55,-3.5192,-3.4468,-3.4449,-3.4449,-3.4449,-3.4449,-3.4795,-3.55,-3.55,-3.55,-3.55,-3.55,-3.4789,-2.6126,-2.5762,-2.6722,-2.9172,-2.9768,-3.1008,0.0,0.0,-3.6526,-3.888,-4.0296,-4.1385,-4.2354,-4.397,-4.5509,-4.6586,-4.8086,-4.9183,-4.9375,-5.0067,-5.0558,-5.0558,-5.0635,-5.0721,-5.0721,-5.0702,-5.0721,-5.0721,-5.1366,-5.1769,-5.1769,-5.2587,-5.3049,-5.3049,-5.3895,-5.4357,-5.4357,-5.5049,-5.5415,-5.5415,-5.5415,-5.5415,-5.5415,-5.5415,-5.5415,-5.5376,-5.4664,-5.3914,-5.3203,-5.3203,-5.3145,-5.3049,-5.3049,-5.2529,-5.1673,-5.0952,-5.0712,-5.0712,-5.0712,-5.0712,-5.0712,-5.0712,-5.0712,-5.0712,-5.0712,-5.0635,-5.0558,-5.0558,-4.9856,-4.8933,-4.8163,-4.7355,-4.6567,-4.5787,-4.5594,-4.5594,-4.5594,-4.5594,-4.5344,-4.447,-4.422,-4.3662,-4.2058,-4.1712,-4.1393,-4.0631,-4.0496,-4.0496,-4.0496,-4.0496,-4.0477,-4.0381,-3.9727,-3.8584,-3.6846,-3.5962,-3.55,-3.55,-3.55,-3.5462,-3.5365,-3.5346,-3.5346,-3.5346,-3.5346,-3.5404,-3.55,-3.55,-3.55,-3.55,-3.55,-3.5404,-3.0321,-3.0414,0.0,0.0,-3.4349,-3.5439,-3.8135,-3.8834,-3.9354,-4.0931,-4.272,-4.4124,-4.4489,-4.6336,-4.7932,0.0,-4.9375,-5.0173,-5.0173,-5.0481,-5.0712,-5.0712,-5.0712,-5.0712,-5.0712,-5.0712,-5.0894,-5.1356,-5.1712,-5.2115,-5.2635,-5.3491,-5.3953,-5.3953,-5.4761,-5.5203,-5.5203,-5.553,-5.5703,-5.5703,-5.5703,-5.5703,-5.5703,-5.5703,-5.5703,-5.5684,-5.5338,-5.4991,-5.4645,-5.4645,-5.4376,-5.3953,-5.3953,-5.3414,-5.2538,-5.1722,-5.1106,-5.0712,-5.0712,-5.0712,-5.0712,-5.0712,-5.0712,-5.0712,-5.0712,-5.0712,-5.0712,-5.0712,-5.0067,-4.9317,-4.8952,-4.7875,-4.6817,-4.6432,-4.597,-4.5594,-4.5594,-4.5594,-4.5498,-4.5133,-4.4643,-4.4085,-4.3374,-4.245,-4.1681,-4.1316,-4.0816,-4.0496,-4.0496,-4.0496,-4.0496,-4.0496,-3.9785,-3.8796,-3.7565,-3.6673,-3.6,-3.5538,-3.55,-3.55,-3.55,-3.55,-3.55,-3.55,-3.55,-3.55,-3.55,-3.55,-3.55,-3.55,-3.55,-3.55,-3.2701,0.0,0.0,-3.6474,-3.8009,-3.9277,-4.0142,-4.0977,-4.1805,-4.2662,-4.4316,-4.5671,-4.5913,-4.7644,0.0,-4.9356,-5.0125,-5.0712,-5.0712,-5.0712,-5.0712,-5.0712,-5.0712,-5.0712,-5.0712,-5.0712,-5.1029,-5.1846,-5.2115,-5.2635,-5.351,-5.4376,-5.4818,-5.4818,-5.5395,-5.5703,-5.5703,-5.5703,-5.5703,-5.5703,-5.5703,-5.5703,-5.5703,-5.5703,-5.5703,-5.5703,-5.5703,-5.5703,-5.5703,-5.5703,-5.5357,-5.4818,-5.4818,-5.4318,-5.3491,-5.2856,-5.2106,-5.1395,-5.1395,-5.1221,-5.1029,-5.1029,-5.0875,-5.0712,-5.0712,-5.0712,-5.0712,-5.0712,-5.025,-4.9702,-4.9452,-4.8509,-4.7528,-4.7298,-4.6586,-4.5951,-4.5951,-4.5768,-4.5594,-4.5594,-4.5094,-4.4586,-4.4335,-4.3297,-4.2412,-4.22,-4.1412,-4.0766,-4.0535,-4.0496,-4.0496,-4.0496,-3.9785,-3.9034,-3.8411,-3.7334,-3.6442,-3.5865,-3.5615,-3.55,-3.55,-3.55,-3.55,-3.55,-3.55,-3.55,-3.55,-3.55,-3.55,-3.55,-3.55,-3.55,0.0,0.0,-3.5305,-3.7125,-3.9648,-4.1904,-4.2797,-4.3605,-4.4432,-4.5306,-4.5556,-4.5864,-4.6701,-4.7567,-4.8413,-4.926,-5.0125,-5.0712,-5.0712,-5.0712,-5.0712,-5.0712,-5.0712,-5.0712,0.0,-5.0712,-5.1029,-5.1846,-5.2673,-5.3549,-5.4414,-5.5222,-5.5665,-5.5665,-5.5684,-5.5703,-5.5703,-5.5703,-5.5703,-5.5703,-5.5703,-5.5703,-5.5703,-5.5703,-5.5703,-5.5703,-5.5703,-5.5703,-5.5703,-5.5703,-5.5684,-5.5665,-5.5665,-5.5164,-5.4453,-5.4434,-5.3876,-5.3126,-5.3126,-5.2558,-5.1865,-5.1865,-5.1337,-5.0712,-5.0712,-5.0712,-5.0712,-5.0712,-5.0673,-5.0481,-4.9625,-4.9356,-4.9106,-4.8259,-4.7451,-4.6846,-4.6846,-4.6201,-4.5594,-4.5594,-4.5575,-4.5287,-4.4451,-4.4259,-4.3951,-4.3181,-4.2316,-4.147,-4.0612,-4.0496,-4.0496,-4.0496,-3.9785,-3.9284,-3.9265,-3.77,-3.6692,-3.6673,-3.5923,-3.55,-3.55,-3.55,-3.55,-3.55,-3.55,-3.55,-3.55,-3.55,-3.55,-3.55,-3.55,-3.55,0.0,0.0,-3.8766,-4.053,-4.2678,-4.4393,-4.4682,-4.5413,-4.5932,-4.5671,-4.5594,-4.5691,-4.597,-4.674,-4.7567,-4.8394,-4.926,-5.0029,-5.0616,-5.1164,-5.1298,-5.077,-5.1164,0.0,0.0,0.0,0.0,-5.2664,-5.3029,-5.3818,-5.5222,-5.5549,-5.5703,-5.5703,-5.5703,-5.5703,-5.5703,-5.5703,-5.5703,-5.5703,-5.5703,-5.5703,-5.5703,-5.5703,-5.5703,-5.5703,-5.5703,-5.5703,-5.5703,-5.5703,-5.5703,-5.5703,-5.5703,-5.553,-5.5299,-5.5299,-5.5107,-5.4703,-5.3587,-5.301,-5.2673,-5.2096,-5.1712,-5.1395,-5.0856,-5.0712,-5.0712,-5.0712,-5.0712,-5.0635,-5.0346,-4.9817,-4.9336,-4.9029,-4.7913,-4.6904,-4.6904,-4.622,-4.5594,-4.5594,-4.5594,-4.5518,-4.521,-4.4682,-4.4028,-4.322,-4.2354,-4.1489,-4.0612,-4.0496,-4.0496,-4.0496,-4.0265,-3.9881,-3.9361,-3.8757,-3.793,-3.6769,-3.6442,-3.6058,-3.5519,-3.55,-3.55,-3.55,-3.55,-3.55,-3.55,-3.55,-3.55,-3.55,-3.55,-3.55,-3.5628,-3.8493,-4.1402,-4.3528,-4.5295,-4.6413,-4.6124,-4.6509,-4.6567,-4.5374,-4.4921,-4.4605,-4.4297,-4.4951,-4.5817,-4.6605,-4.7971,-4.9356,-5.0539,-5.1395,-5.1808,-5.1625,-5.2049,0.0,0.0,0.0,0.0,-5.3126,-5.3491,-5.426,-5.5626,-5.5703,-5.5703,-5.5703,-5.5703,-5.5703,-5.5703,-5.5703,-5.5703,-5.5703,-5.5703,-5.5703,-5.5703,-5.5703,-5.5703,-5.5703,-5.5703,-5.5703,-5.5703,-5.5703,-5.5703,-5.5703,-5.5703,-5.5703,-5.5703,-5.5703,-5.5703,-5.5549,-5.4472,-5.3914,-5.3568,-5.301,-5.2615,-5.2212,-5.1375,-5.1125,-5.1068,-5.0789,-5.0712,-5.0712,-5.0712,-5.0289,-4.9856,-4.9856,-4.8798,-4.7798,-4.7798,-4.6874,-4.6067,-4.6067,-4.5806,-4.5594,-4.5594,-4.5152,-4.447,-4.3643,-4.3047,-4.2277,-4.1104,-4.0689,-4.0496,-4.0496,-4.0496,-4.0285,-3.9765,-3.9477,-3.8815,-3.77,-3.7334,-3.6788,-3.5962,-3.5923,-3.5788,-3.5519,-3.55,-3.55,-3.55,-3.55,-3.55,-3.55,-3.55,-3.55,-3.8452,-4.1069,-4.3225,-4.5886,-4.7376,-4.7952,-4.7077,-4.6904,-4.6374,-4.4547,-4.3508,-4.2624,0.0,0.0,-4.3258,-4.4105,-4.6451,-4.8779,-5.0519,-5.151,-5.2308,0.0,0.0,0.0,0.0,0.0,0.0,-5.328,0.0,-5.4857,-5.5665,-5.5703,-5.5703,-5.5703,-5.5703,-5.5703,-5.5703,-5.5703,-5.5703,-5.5703,-5.5703,-5.5703,-5.5703,-5.5703,-5.5703,-5.5703,-5.5703,-5.5703,-5.5703,-5.5703,-5.5703,-5.5703,-5.5703,-5.5703,-5.5703,-5.5703,-5.5703,-5.5703,-5.5703,-5.5203,-5.4549,-5.4511,-5.3933,-5.3106,-5.2173,-5.1904,-5.1731,-5.0933,-5.0712,-5.0712,-5.0712,-5.0712,-5.0712,-5.0712,-5.0029,-4.9394,-4.9394,-4.8125,-4.6942,-4.6904,-4.6201,-4.5594,-4.5594,-4.5594,-4.5325,-4.4489,-4.4335,-4.3682,-4.2019,-4.1085,-4.0554,-4.0496,-4.0496,-4.0496,-4.0496,-3.9804,-3.9342,-3.9304,-3.8527,-3.768,-3.6788,-3.6769,-3.6385,-3.5577,-3.5558,-3.5538,-3.55,-3.55,-3.55,-3.55,-3.55,-3.55,-4.0803,-4.3753,-4.6503,-4.7207,-4.8248,-4.8682,-4.724,-4.6904,-4.6038,-4.3047,-4.1277,-3.9796,0.0,0.0,0.0,-4.3162,-4.6586,0.0,-5.1356,-5.2895,0.0,0.0,0.0,-5.3914,-5.326,-5.3799,0.0,0.0,-5.4376,-5.4857,-5.5665,-5.5703,-5.5703,-5.5703,-5.5703,-5.5703,-5.5703,-5.5703,-5.5703,-5.5703,-5.5703,-5.5703,-5.5703,-5.5703,-5.5703,-5.5703,-5.5703,-5.5703,-5.5703,-5.5703,-5.5703,-5.5703,-5.5703,-5.5703,-5.5703,-5.5703,-5.5703,-5.5703,-5.5703,-5.5568,-5.5299,-5.4684,-5.4357,-5.3876,-5.2365,-5.1904,-5.1731,-5.0933,-5.0712,-5.0712,-5.0712,-5.0712,-5.0712,-5.0712,-5.0029,-4.9394,-4.9394,-4.8548,-4.7625,-4.7019,-4.6201,-4.5594,-4.5594,-4.5594,-4.5518,-4.5306,-4.472,-4.3682,-4.2019,-4.1604,-4.1219,-4.0573,-4.0496,-4.0496,-4.0496,-4.0304,-3.9938,-3.9342,-3.9092,-3.8584,-3.77,-3.768,-3.7276,-3.6404,-3.6385,-3.6096,-3.55,-3.55,-3.55,-3.55,-3.55,-3.55,-4.3724,-4.6219,-4.8398,-4.8896,-4.922,-4.8759,-4.6318,-4.5491,-4.4154,-4.0315,-3.8504,0.0,0.0,0.0,0.0,0.0,0.0,0.0,-5.1558,-5.3068,-5.403,0.0,-5.4722,0.0,-5.4337,-5.4741,-5.503,0.0,-5.503,-5.5222,-5.5684,-5.5703,-5.5703,-5.5703,-5.5703,-5.5703,-5.5703,-5.5703,-5.5703,-5.5703,-5.5703,-5.5703,-5.5703,-5.5703,-5.5703,-5.5703,0.0,-5.5703,-5.5703,-5.5703,-5.5703,-5.5703,-5.5703,-5.5703,-5.5703,-5.5703,-5.5703,-5.5703,-5.5703,-5.5703,-5.5626,-5.5164,-5.503,-5.478,-5.3433,-5.2779,-5.2288,-5.1452,-5.0971,-5.0712,-5.0712,-5.0712,-5.0712,-5.0712,-5.0327,-4.9971,-4.9971,-4.9279,-4.8317,-4.7135,-4.6509,-4.6047,-4.5671,-4.5594,-4.5594,-4.5594,-4.519,-4.4393,-4.3066,-4.2585,-4.2181,-4.1681,-4.1296,-4.1066,-4.1066,-4.0727,-4.0304,-3.9861,-3.9823,-3.9457,-3.8604,-3.8565,-3.8161,-3.7296,-3.7276,-3.7046,-3.6596,-3.6212,-3.6038,-3.6019,-3.5654,-3.55,-4.6556,-4.8305,-4.9406,-5.0451,-5.0029,-4.85,-4.508,-4.3562,-4.1621,-3.7187,0.0,0.0,-3.3787,0.0,-3.8296,-4.0189,0.0,-4.8115,-5.1577,-5.2818,-5.3953,-5.5511,-5.5703,-5.5703,-5.5703,-5.5703,-5.5703,-5.5703,-5.5703,-5.5703,-5.5703,-5.5703,-5.5703,-5.5703,-5.5703,-5.5703,-5.5703,-5.5703,-5.5703,-5.5703,-5.5703,-5.5703,-5.5703,-5.5703,-5.5703,-5.5703,0.0,0.0,-5.5703,-5.5703,-5.5703,-5.5703,-5.5703,-5.5703,-5.5703,-5.5703,-5.5703,-5.5703,-5.5703,-5.5703,-5.5703,-5.5703,-5.5703,-5.5549,-5.4741,-5.3972,-5.3164,-5.2173,-5.1395,-5.0827,-5.0731,-5.0712,-5.0712,-5.0712,-5.0712,-5.0712,-5.0712,-5.001,-4.8971,-4.7509,-4.7038,-4.6663,-4.5893,-4.5691,-4.5594,-4.5594,-4.5594,-4.5325,-4.4566,-4.3758,-4.322,-4.3104,-4.2431,-4.1923,-4.1808,-4.1104,-4.0631,-4.0516,-4.0496,-4.0189,-3.9496,-3.9457,-3.9053,-3.818,-3.8161,-3.8123,-3.8007,-3.7238,-3.6865,-3.6865,-3.6154,-3.5827,-4.7774,-4.9168,-5.0111,-5.0576,-5.0029,-4.85,-4.508,-4.2955,0.0,0.0,0.0,-3.2656,-3.1226,-3.3673,0.0,-3.9996,0.0,0.0,0.0,0.0,-5.4626,0.0,0.0,0.0,0.0,0.0,0.0,0.0,0.0,-5.5703,-5.5703,-5.5703,-5.5703,-5.5703,-5.5703,-5.5703,-5.5703,-5.5703,-5.5703,-5.5703,-5.5703,-5.5703,-5.5703,-5.5703,-5.5703,-5.5703,-5.5703,0.0,-5.5703,-5.5703,-5.5703,-5.5703,-5.5703,-5.5703,-5.5703,-5.5703,-5.5703,-5.5703,-5.5703,-5.5703,-5.5703,-5.5703,-5.5703,-5.5549,-5.4741,-5.4395,-5.3933,-5.2346,-5.1788,-5.1548,-5.0856,-5.0712,-5.0712,-5.0712,-5.0712,-5.0712,-5.0712,-5.001,-4.9317,-4.9029,-4.7855,-4.6846,-4.6701,-4.6086,-4.5594,-4.5594,-4.5594,-4.5556,-4.5402,-4.4624,-4.3835,-4.3162,-4.297,-4.2585,-4.1865,-4.1662,-4.1277,-4.0554,-4.0496,-4.0439,-4.0304,-4.0285,-3.9919,-3.9092,-3.9073,-3.8719,-3.8007,-3.7853,-3.7777,-3.7777,-3.7623,-3.7565,-4.8653,-4.9535,-5.0012,-5.0523,-4.9208,-4.6788,-4.2977,0.0,0.0,0.0,0.0,-3.1027,-3.0275,0.0,0.0,0.0,0.0,0.0,0.0,0.0,0.0,0.0,0.0,0.0,0.0,0.0,0.0,0.0,0.0,-5.5703,-5.5703,-5.5703,-5.5703,-5.5703,-5.5703,-5.5703,-5.5703,-5.5703,-5.5703,-5.5703,-5.5703,-5.5703,-5.5703,-5.5703,-5.5703,-5.5703,-5.5703,0.0,-5.5703,-5.5703,-5.5703,-5.5703,-5.5703,-5.5703,-5.5703,-5.5703,-5.5703,-5.5703,-5.5703,-5.5703,-5.5703,-5.5703,-5.5703,-5.5626,-5.5241,-5.4818,-5.4222,-5.2953,-5.225,-5.1712,-5.0914,-5.0712,-5.0712,-5.0712,-5.0712,-5.0712,-5.0712,-5.0366,-4.9933,-4.949,-4.8759,-4.8067,-4.7605,-4.6836,-4.6278,-4.6278,-4.5893,-4.5594,-4.5594,-4.5248,-4.4825,-4.4432,-4.3989,-4.3566,-4.3143,-4.2297,-4.1623,-4.12,-4.0746,-4.0496,-4.0496,-4.0496,-4.0323,-3.9938,-3.9919,-3.9727,-3.9296,-3.8873,-3.8681,-3.8661,-3.82,-3.8007,-4.8809,-4.9424,-4.9692,-5.0256,-4.8334,-4.5216,-4.0976,-3.8109,0.0,0.0,0.0,-2.9901,-2.9992,0.0,0.0,0.0,0.0,0.0,0.0,0.0,0.0,0.0,0.0,0.0,0.0,0.0,0.0,0.0,0.0,0.0,-5.5703,-5.5703,-5.5703,-5.5703,-5.5703,-5.5703,-5.5703,-5.5703,-5.5703,-5.5703,-5.5703,-5.5703,-5.5703,-5.5703,-5.5703,-5.5703,-5.5703,0.0,0.0,-5.5703,-5.5703,-5.5703,-5.5703,-5.5703,-5.5703,-5.5703,-5.5703,-5.5703,-5.5703,-5.5703,-5.5703,-5.5703,-5.5703,-5.5703,-5.5703,-5.5261,-5.453,-5.3491,-5.2712,-5.1942,-5.0952,-5.0712,-5.0712,-5.0712,-5.0712,-5.0712,-5.0712,-5.0712,-5.05,-4.9798,-4.9529,-4.9183,-4.8509,-4.7702,-4.7096,-4.6923,-4.6317,-4.5806,-4.5614,-4.5594,-4.5594,-4.5594,-4.4998,-4.4489,-4.4316,-4.3085,-4.2258,-4.2085,-4.1258,-4.0785,-4.0785,-4.0593,-4.0496,-4.0496,-4.0496,-4.0496,-4.0496,-3.9881,-3.9554,-3.9534,-3.8854,-3.8546,-4.7588,-4.8737,-4.945,-4.9664,-4.8036,-4.5228,-4.0757,0.0,0.0,0.0,-2.9523,-2.957,-2.9927,-3.0901,0.0,0.0,0.0,0.0,0.0,0.0,0.0,0.0,0.0,0.0,0.0,0.0,0.0,0.0,0.0,0.0,-5.5703,-5.5703,-5.5703,-5.5703,-5.5703,-5.5703,-5.5703,-5.5703,-5.5703,-5.5703,-5.5703,-5.5703,-5.5703,-5.5703,-5.5703,-5.5703,-5.5703,0.0,0.0,-5.5703,-5.5703,-5.5703,-5.5703,-5.5703,-5.5703,-5.5703,-5.5703,-5.5703,-5.5703,-5.5703,-5.5703,-5.5703,-5.5703,-5.5703,-5.5703,-5.5645,-5.5261,-5.3645,-5.3145,-5.2702,-5.1106,-5.0712,-5.0712,-5.0712,-5.0712,-5.0712,-5.0712,-5.0712,-5.0673,-5.0596,-4.9933,-4.9375,-4.9298,-4.8567,-4.774,-4.7,-4.6827,-4.649,-4.571,-4.5594,-4.5594,-4.5594,-4.5537,-4.5171,-4.4374,-4.4162,-4.3758,-4.3028,-4.2162,-4.1681,-4.1681,-4.0912,-4.0496,-4.0496,-4.0496,-4.0496,-4.0496,-4.0439,-4.04,-4.04,-4.0304,-4.0265,-4.7218,-4.8343,-4.8844,-4.8769,-4.6492,-4.3267,-3.9533,0.0,-3.3288,-2.9933,-2.9326,-2.9486,-2.9773,-3.0259,-3.1446,0.0,0.0,0.0,0.0,0.0,0.0,0.0,0.0,0.0,0.0,0.0,0.0,0.0,0.0,0.0,-5.5703,-5.5703,-5.5703,-5.5703,-5.5703,-5.5703,-5.5703,-5.5703,-5.5703,-5.5703,-5.5703,-5.5703,-5.5703,-5.5703,-5.5703,-5.5703,-5.5703,0.0,0.0,-5.5703,-5.5703,-5.5703,-5.5703,-5.5703,-5.5703,-5.5703,-5.5703,-5.5703,-5.5703,-5.5703,-5.5703,-5.5703,-5.5703,-5.5703,-5.5703,-5.5703,-5.5338,-5.3664,-5.3203,-5.2818,-5.1135,-5.0712,-5.0712,-5.0712,-5.0712,-5.0712,-5.0712,-5.0712,-5.0712,-5.0712,-5.0423,-5.0183,-5.0183,-4.9452,-4.8779,-4.8452,-4.7548,-4.6778,-4.6432,-4.5913,-4.5594,-4.5594,-4.5594,-4.546,-4.5114,-4.4605,-4.4162,-4.3835,-4.3047,-4.2354,-4.1808,-4.147,-4.1046,-4.0516,-4.0496,-4.0496,-4.0496,-4.0496,-4.0496,-4.0496,-4.0496,-4.0496,-4.5537,-4.6977,-4.7774,-4.7631,-4.4983,-4.1645,0.0,0.0,-3.2303,-2.9563,-2.9174,-2.9378,-2.9624,-2.9864,-3.0648,-3.2596,0.0,0.0,0.0,0.0,0.0,0.0,0.0,0.0,0.0,0.0,0.0,0.0,0.0,0.0,0.0,-5.5703,-5.5703,-5.5703,-5.5703,-5.5703,-5.5703,-5.5703,-5.5703,-5.5703,-5.5703,-5.5703,-5.5703,-5.5703,-5.5703,-5.5703,0.0,0.0,0.0,-5.5703,-5.5703,-5.5703,-5.5703,-5.5703,-5.5703,-5.5703,-5.5703,-5.5703,-5.5703,-5.5703,-5.5703,-5.5703,-5.5703,-5.5703,-5.5703,-5.5703,-5.5395,-5.3972,-5.3222,-5.2491,-5.1068,-5.0712,-5.0712,-5.0712,-5.0712,-5.0712,-5.0712,-5.0712,-5.0712,-5.0712,-5.0712,-5.0712,-5.0712,-5.0183,-4.9702,-4.9433,-4.8394,-4.7471,-4.6962,-4.6355,-4.5893,-4.5633,-4.5594,-4.5594,-4.5594,-4.5037,-4.4682,-4.4682,-4.3912,-4.3181,-4.2566,-4.2316,-4.1777,-4.0893,-4.0873,-4.0766,-4.0496,-4.0496,-4.0496,-4.0496,-4.0496,-4.0496,-4.195,-4.4241,-4.6206,-4.6136,-4.3844,-4.0913,0.0,-3.5229,-3.2235,-2.9552,-2.9044,-2.9206,-2.9532,-2.9703,-3.0473,-3.2568,-3.3622,0.0,0.0,0.0,0.0,0.0,0.0,0.0,0.0,0.0,0.0,0.0,0.0,0.0,0.0,-5.5703,-5.5703,-5.5703,-5.5703,-5.5703,-5.5703,-5.5703,-5.5703,-5.5703,-5.5703,-5.5703,-5.5703,-5.5703,-5.5703,0.0,0.0,0.0,0.0,-5.5703,-5.5703,-5.5703,-5.5703,-5.5703,-5.5703,-5.5703,-5.5703,-5.5703,-5.5703,-5.5703,-5.5703,-5.5703,-5.5703,-5.5703,-5.5703,-5.5703,-5.553,-5.4722,-5.3241,-5.1731,-5.0914,-5.0712,-5.0712,-5.0712,-5.0712,-5.0712,-5.0712,-5.0712,-5.0712,-5.0712,-5.0712,-5.0712,-5.0712,-5.0693,-5.0385,-4.9529,-4.9394,-4.8779,-4.7096,-4.6885,-4.6567,-4.5691,-4.5594,-4.5594,-4.5594,-4.5594,-4.5594,-4.5594,-4.4759,-4.4278,-4.4278,-4.3508,-4.2681,-4.1788,-4.1788,-4.1354,-4.0496,-4.0496,-4.0496,-4.0496,-4.0496,-4.0496,-3.8741,-4.0425,-4.1632,-4.0496,-3.8645,-3.6588,-3.4627,-3.2587,-3.0696,-2.9285,-2.9044,-2.9214,-2.9598,-2.9696,-3.0801,-3.4084,-3.4803,0.0,0.0,0.0,0.0,0.0,0.0,0.0,0.0,0.0,0.0,0.0,0.0,0.0,0.0,-5.5703,-5.5703,-5.5703,-5.5703,-5.5703,-5.5703,-5.5703,-5.5703,-5.5703,-5.5703,-5.5703,-5.5703,-5.5703,0.0,0.0,0.0,0.0,0.0,-5.5703,-5.5703,-5.5703,-5.5703,-5.5703,-5.5703,-5.5703,-5.5703,-5.5703,-5.5703,-5.5703,-5.5703,-5.5703,-5.5703,-5.5703,-5.5703,-5.5703,-5.553,-5.4722,-5.3241,-5.1846,-5.1587,-5.1106,-5.0712,-5.0712,-5.0712,-5.0712,-5.0712,-5.0712,-5.0712,-5.0712,-5.0712,-5.0712,-5.0712,-5.0712,-5.0616,-5.0327,-4.9779,-4.9202,-4.8682,-4.8086,-4.7394,-4.6586,-4.649,-4.624,-4.5652,-4.5594,-4.5594,-4.5594,-4.5344,-4.4913,-4.4316,-4.4066,-4.3528,-4.2701,-4.2701,-4.2547,-4.2277,-4.1681,-4.1085,-4.0496,-4.0496,-4.0496,0.0,-3.7309,-3.8285,-3.7309,-3.5789,-3.4215,-3.2894,-3.1366,-2.9971,-2.917,-2.904,-2.9149,-2.9484,-2.9561,-3.0515,-3.3353,0.0,0.0,0.0,0.0,0.0,0.0,0.0,0.0,0.0,0.0,0.0,0.0,0.0,0.0,0.0,-5.5703,-5.5703,-5.5703,-5.5703,-5.5703,-5.5703,-5.5703,-5.5703,-5.5703,-5.5703,-5.5703,-5.5703,-5.5703,0.0,0.0,0.0,0.0,0.0,-5.5703,-5.5703,-5.5703,-5.5703,-5.5703,-5.5703,-5.5703,-5.5703,-5.5703,-5.5703,-5.5703,-5.5703,-5.5703,-5.5703,-5.5703,-5.5703,-5.5703,-5.553,-5.4722,-5.3491,-5.2308,-5.1981,-5.1298,-5.0712,-5.0712,-5.0712,-5.0712,-5.0712,-5.0712,-5.0712,-5.0712,-5.0712,-5.0712,-5.0712,-5.0712,-5.0712,-5.0712,-5.025,-4.976,-4.9433,-4.8933,-4.8279,-4.7451,-4.7355,-4.7009,-4.6163,-4.5787,-4.5594,-4.5594,-4.5594,-4.5364,-4.4797,-4.4778,-4.4393,-4.3566,-4.3547,-4.3393,-4.3104,-4.2239,-4.1527,-4.0969,-4.065,-4.0496,0.0,-3.4633,-3.5844,-3.5789,-3.4614,-3.3256,-3.2509,-3.1201,0.0,-2.9152,-2.9005,-2.9104,-2.94,-2.9427,-2.9887,-3.1372,0.0,0.0,0.0,0.0,0.0,0.0,0.0,0.0,0.0,0.0,0.0,0.0,0.0,0.0,0.0,-5.5703,-5.5703,-5.5703,-5.5703,-5.5703,-5.5703,-5.5703,-5.5703,-5.5703,-5.5703,-5.5703,-5.5703,-5.5703,0.0,0.0,0.0,0.0,0.0,-5.5703,-5.5703,-5.5703,-5.5703,-5.5703,-5.5703,-5.5703,-5.5692,-5.5662,-5.5684,-5.5692,-5.5662,-5.5684,-5.5703,-5.5684,-5.5684,-5.5703,-5.553,-5.4799,-5.3914,-5.301,-5.2192,-5.1356,-5.0712,-5.0712,-5.0712,-5.0712,-5.0712,-5.0712,-5.0712,-5.0712,-5.0712,-5.0712,-5.0712,-5.0712,-5.0712,-5.0712,-5.0712,-5.0423,-4.9606,-4.949,-4.9163,-4.8298,-4.8202,-4.7855,-4.7038,-4.6182,-4.5663,-4.5577,-4.5586,-4.5586,-4.5577,-4.5568,-4.5192,-4.4412,-4.4393,-4.3981,-4.3165,-4.2365,-4.1942,-4.1849,-4.1046,-4.065,-2.9977,0.0,-3.1494,-3.0858,-3.0418,-3.0069,0.0,-2.9555,-2.9225,-2.9042,0.0,-2.9442,-3.0861,-3.0129,-3.0723,0.0,0.0,0.0,0.0,0.0,0.0,0.0,0.0,0.0,0.0,0.0,0.0,0.0,0.0,0.0,0.0,-5.5703,-5.5703,-5.5703,-5.5703,-5.5703,-5.5703,-5.5703,-5.5703,-5.5703,-5.5703,-5.5703,-5.5703,-5.5703,0.0,0.0,0.0,0.0,-5.5703,-5.5703,-5.5703,-5.5703,-5.5703,-5.5703,-5.5703,-5.5703,-5.5573,-5.5425,-5.5629,-5.5573,-5.5425,-5.5629,-5.5671,-5.5618,-5.5618,-5.5651,-5.5665,-5.5472,-5.4357,-5.3145,-5.2953,-5.1798,-5.0712,-5.0712,-5.0712,-5.0712,-5.0712,-5.0712,-5.0712,-5.0712,-5.0712,-5.0712,-5.0712,-5.0712,-5.0712,-5.0712,-5.0712,-5.0635,-5.0423,-5.0385,-5.0048,-4.9183,-4.9086,-4.8759,-4.7894,-4.7067,-4.6215,-4.5351,-4.5495,-4.5504,-4.5312,-4.5283,-4.5285,-4.5278,-4.5287,-4.4765,-4.3713,-4.3709,-4.3297,-4.2489,-4.2499,-4.2124,-2.9005,-2.9592,-3.0099,-2.9647,-2.9537,-2.9537,-2.9537,-2.9262,0.0,0.0,0.0,-2.9407,-3.0761,-3.0611,0.0,0.0,0.0,0.0,0.0,0.0,0.0,0.0,0.0,0.0,0.0,0.0,0.0,0.0,0.0,0.0,0.0,-5.5703,-5.5703,-5.5703,-5.5703,-5.5703,-5.5703,-5.5703,-5.5703,-5.5703,-5.5703,-5.5703,-5.5703,-5.5703,-5.5703,0.0,0.0,0.0,-5.5703,-5.5703,-5.5703,-5.5703,-5.5703,-5.5703,-5.5703,-5.5703,-5.5539,-5.5326,-5.5461,-5.532,-5.5078,-5.5237,-5.5218,-5.5147,-5.5147,-5.5147,-5.5212,-5.552,-5.4449,-5.3192,-5.3161,-5.1932,-5.0712,-5.0712,-5.0575,-5.0472,-5.0472,-5.0377,-5.0279,-5.0279,-5.0279,-5.0279,-5.0279,-5.0279,-5.0279,-5.0279,-5.0279,-5.0279,-5.0279,-5.0237,-5.0069,-4.9759,-4.9731,-4.9418,-4.8712,-4.8279,-4.7405,-4.5891,-4.5562,-4.5302,-4.503,-4.5019,-4.5085,-4.5232,-4.5232,-4.494,-4.4303,-4.4071,-4.364,-4.3055,-4.2839,-4.2479,-2.9152,-2.9849,-3.0485,-3.0118,-3.0118,-3.0173,-3.0044,0.0,0.0,0.0,0.0,0.0,0.0,0.0,0.0,0.0,0.0,0.0,0.0,0.0,0.0,0.0,0.0,0.0,0.0,0.0,0.0,0.0,0.0,0.0,0.0,-5.5703,-5.5703,-5.5703,-5.5703,-5.5703,-5.5703,-5.5703,-5.5703,-5.5703,-5.5703,-5.5703,-5.5703,-5.5703,-5.5703,0.0,0.0,0.0,-5.5703,-5.5703,-5.5703,-5.5703,-5.5692,-5.5673,-5.5692,-5.5629,-5.5418,-5.5178,-5.5132,-5.4981,-5.4791,-5.4791,-5.4693,-5.4575,-5.4579,-5.4532,-5.4597,-5.5172,-5.4254,-5.3099,-5.3045,-5.1862,-5.0712,-5.0712,-5.0442,-5.0195,-5.0195,-4.9981,-4.9803,-4.9803,-4.9803,-4.9803,-4.9803,-4.9803,-4.9803,-4.9803,-4.9803,-4.9803,-4.9803,-4.9692,-4.9714,-4.9987,-4.9999,-4.9818,-4.9362,-4.9264,-4.8492,-4.6809,-4.5884,-4.5197,-4.477,-4.4776,-4.4776,-4.4739,-4.4776,-4.4776,-4.4739,-4.4032,-4.3691,-4.3617,-4.2991,-4.2605,-2.9831,-3.1097,-3.1739,-2.9684,-2.9702,-3.0026,-2.9335,-2.9097,0.0,0.0,0.0,0.0,0.0,0.0,0.0,0.0,0.0,0.0,0.0,0.0,0.0,0.0,0.0,0.0,0.0,0.0,0.0,0.0,0.0,0.0,0.0,0.0,-5.5703,-5.5703,-5.5703,-5.5703,-5.5703,-5.5703,-5.5703,-5.5703,-5.5703,-5.5703,-5.5703,-5.5703,-5.5703,0.0,0.0,-5.5703,-5.5703,-5.5703,-5.5703,-5.5684,-5.5629,-5.5607,-5.5566,-5.5231,-5.4895,-5.4597,-5.4355,-5.4522,-5.4791,-5.4674,-5.4579,-5.4503,-5.4458,-5.4425,-5.4409,-5.446,-5.3618,-5.2698,-5.2685,-5.1694,-5.0712,-5.0712,-5.0442,-5.0195,-5.0195,-4.9981,-4.9803,-4.9803,-4.9803,-4.9803,-4.9803,-4.9803,-4.9803,-4.9803,-4.9803,-4.9803,-4.9803,-4.9692,-4.9626,-4.9668,-4.9631,-4.9566,-4.9475,-4.8808,-4.8154,-4.7624,-4.6783,-4.575,-4.4517,-4.4676,-4.4688,-4.4465,-4.4688,-4.4688,-4.4452,-4.4556,-4.4487,-4.4264,-4.4367,-4.4018,-2.9445,-3.0399,-3.1146,-3.0467,-3.1555,-3.2693,-3.2326,-3.2252,0.0,0.0,0.0,0.0,0.0,0.0,0.0,0.0,0.0,0.0,0.0,0.0,0.0,0.0,0.0,0.0,0.0,0.0,0.0,0.0,0.0,0.0,0.0,0.0,-5.5703,-5.5703,-5.5703,-5.5703,-5.5703,-5.5703,-5.5703,-5.5703,-5.5703,-5.5703,-5.5703,-5.5703,-5.5703,-5.5703,0.0,-5.5692,-5.566,-5.566,-5.5618,-5.5585,-5.5562,-5.5551,-5.5473,-5.4943,-5.4519,-5.419,-5.387,-5.3925,-5.4088,-5.4033,-5.3943,-5.3833,-5.3814,-5.3777,-5.3757,-5.3719,-5.3007,-5.2281,-5.2238,-5.1125,-5.0068,-5.0104,-4.9885,-4.9669,-4.9749,-4.9521,-4.9312,-4.9312,-4.9312,-4.9312,-4.9312,-4.9312,-4.9312,-4.9312,-4.9312,-4.9312,-4.9265,-4.9148,-4.9129,-4.9271,-4.9221,-4.9249,-4.9416,-4.9116,-4.8411,-4.728,-4.6236,-4.5444,-4.4905,-4.4483,-4.4225,-4.4136,-4.425,-4.425,-4.4136,-4.425,-4.425,-4.4136,-4.425,-4.4102,-2.9225,-2.9879,-3.0668,-3.1476,-3.2797,-3.4069,-3.4839,-3.4857,0.0,0.0,0.0,0.0,0.0,0.0,0.0,0.0,0.0,0.0,0.0,0.0,0.0,0.0,0.0,0.0,0.0,0.0,0.0,0.0,0.0,0.0,0.0,0.0,-5.5703,-5.5703,-5.5673,-5.5673,-5.5703,-5.5673,-5.5673,-5.5703,-5.5703,-5.5703,-5.5703,-5.5703,-5.5703,-5.5703,-5.5673,-5.5607,-5.5477,-5.5473,-5.5382,-5.5263,-5.5237,-5.5185,-5.5012,-5.45,-5.4121,-5.3795,-5.3542,-5.3461,-5.3481,-5.3461,-5.338,-5.3297,-5.3277,-5.3251,-5.3185,-5.3185,-5.2493,-5.1729,-5.1745,-5.0632,-4.9504,-4.9556,-4.9375,-4.9198,-4.9318,-4.9059,-4.882,-4.882,-4.8856,-4.8874,-4.8874,-4.8891,-4.8909,-4.8909,-4.8891,-4.8856,-4.8804,-4.8678,-4.866,-4.8872,-4.8816,-4.8846,-4.9126,-4.919,-4.8634,-4.7213,-4.5801,-4.5072,-4.5222,-4.4295,-4.3818,-4.3883,-4.3883,-4.3883,-4.3883,-4.3883,-4.3883,-4.3883,-4.3883,-4.3883,-2.9916,-3.0705,-3.1513,-3.2307,-3.1531,-3.1329,-3.4325,-3.4417,0.0,-3.6776,0.0,0.0,0.0,0.0,0.0,0.0,0.0,0.0,0.0,0.0,0.0,0.0,0.0,0.0,0.0,0.0,0.0,0.0,0.0,0.0,0.0,0.0,0.0,-5.5703,-5.5629,-5.5629,-5.5703,-5.5629,-5.5629,-5.5703,-5.5703,-5.5703,-5.5703,-5.5703,-5.5703,-5.5703,-5.5629,-5.543,-5.5134,-5.5067,-5.4852,-5.4566,-5.4506,-5.4225,-5.3814,-5.3777,-5.3565,-5.3341,-5.332,-5.34,-5.3479,-5.3341,-5.3318,-5.3297,-5.323,-5.3206,-5.3185,-5.3185,-5.2073,-5.0965,-5.1248,-5.0424,-4.9504,-4.9504,-4.9302,-4.912,-4.912,-4.887,-4.8623,-4.8623,-4.8732,-4.8804,-4.8804,-4.8856,-4.8909,-4.8909,-4.8857,-4.8804,-4.8787,-4.8624,-4.8513,-4.8532,-4.842,-4.8345,-4.8383,-4.8383,-4.8384,-4.8384,-4.6244,-4.5004,-4.5021,-4.4229,-4.3804,-4.3804,-4.3804,-4.3804,-4.3804,-4.3804,-4.3804,-4.3804,-4.3804,-4.3804,-2.9372,-3.0766,-3.2228,-3.2509,-3.2894,0.0,0.0,-3.783,-3.8762,-4.0194,-4.1515,0.0,0.0,0.0,0.0,0.0,0.0,0.0,0.0,0.0,0.0,0.0,0.0,0.0,0.0,0.0,0.0,0.0,0.0,0.0,0.0,0.0,0.0,-5.4966,-5.5121,-5.5231,-5.5256,-5.5497,-5.5607,-5.5629,-5.5692,-5.5577,-5.5319,-5.5319,-5.5186,-5.4952,-5.4924,-5.4823,-5.4659,-5.4647,-5.4522,-5.4378,-5.4364,-5.4069,-5.3701,-5.3701,-5.3504,-5.3251,-5.3251,-5.3272,-5.3314,-5.3251,-5.3251,-5.323,-5.3206,-5.3185,-5.3185,-5.3185,-5.205,-5.0824,-5.0966,-4.988,-4.878,-4.8869,-4.8801,-4.875,-4.8783,-4.8695,-4.8605,-4.8605,-4.8642,-4.8697,-4.8697,-4.8696,-4.8714,-4.8714,-4.8696,-4.866,-4.8624,-4.855,-4.8457,-4.8382,-4.8325,-4.8306,-4.8306,-4.8306,-4.8306,-4.8363,-4.7059,-4.6156,-4.5762,-4.4848,-4.4132,-4.3686,-4.3667,-4.3667,-4.3667,-4.3667,-4.3667,-4.3667,-4.3667,-4.3667,-2.9372,-3.0583,-3.1959,-3.2472,0.0,0.0,-3.871,-4.0306,-4.1609,-4.3442,-4.4488,0.0,0.0,0.0,0.0,0.0,0.0,0.0,0.0,0.0,0.0,0.0,0.0,0.0,0.0,0.0,0.0,0.0,0.0,0.0,0.0,0.0,0.0,0.0,-5.4705,-5.4828,-5.4838,-5.508,-5.5244,-5.5282,-5.5331,-5.5282,-5.5166,-5.5007,-5.479,-5.4532,-5.4487,-5.4357,-5.4207,-5.419,-5.4087,-5.3944,-5.3944,-5.3776,-5.3543,-5.3543,-5.34,-5.3185,-5.3185,-5.3185,-5.3185,-5.3185,-5.3185,-5.3185,-5.3185,-5.3185,-5.3185,-5.3185,-5.2234,-5.1114,-5.0875,-4.9572,-4.8325,-4.8419,-4.8438,-4.8438,-4.8495,-4.8495,-4.8495,-4.8495,-4.855,-4.8569,-4.8569,-4.8587,-4.8605,-4.8605,-4.8587,-4.855,-4.8513,-4.8457,-4.8401,-4.8306,-4.8306,-4.8306,-4.8306,-4.8306,-4.8306,-4.8306,-4.7773,-4.7187,-4.6505,-4.5349,-4.4469,-4.3952,-4.3712,-4.3565,-4.3565,-4.3565,-4.3565,-4.3565,-4.3565,-4.3565,-3.0191,-3.0228,-3.0632,0.0,0.0,0.0,-4.0013,-4.1113,-4.2251,-4.6287,0.0,0.0,0.0,0.0,0.0,0.0,0.0,0.0,0.0,0.0,0.0,0.0,0.0,0.0,0.0,0.0,0.0,0.0,0.0,0.0,0.0,0.0,0.0,0.0,-5.4425,-5.4425,-5.4503,-5.4425,-5.4474,-5.4591,-5.4591,-5.4838,-5.5275,-5.4809,-5.4591,-5.4575,-5.4458,-5.4154,-5.3796,-5.372,-5.3484,-5.3185,-5.3185,-5.3185,-5.3185,-5.3185,-5.3185,-5.3185,-5.3185,-5.3185,-5.3185,-5.3185,-5.3185,-5.3185,-5.3185,-5.3185,-5.3185,-5.3185,-5.2619,-5.1811,-5.1004,-4.9572,-4.8324,-4.8306,-4.8306,-4.8306,-4.8306,-4.8306,-4.8306,-4.8306,-4.8419,-4.8513,-4.8513,-4.855,-4.8587,-4.8587,-4.8532,-4.8513,-4.8513,-4.8382,-4.8306,-4.8306,-4.8306,-4.8306,-4.8306,-4.8306,-4.8306,-4.8306,-4.8306,-4.7938,-4.7131,-4.5572,-4.4709,-4.4691,-4.392,-4.3515,-4.3515,-4.3515,-4.3515,-4.3515,-4.3515,-4.3515,-2.9354,-3.1427,0.0,-3.3476,0.0,0.0,0.0,-4.2782,0.0,0.0,0.0,0.0,0.0,0.0,0.0,0.0,0.0,0.0,0.0,0.0,0.0,0.0,0.0,0.0,0.0,0.0,0.0,0.0,0.0,0.0,0.0,0.0,0.0,0.0,-5.3795,-5.3925,-5.3943,-5.4242,-5.4409,-5.4474,-5.4257,-5.424,-5.4373,-5.424,-5.3979,-5.3623,-5.3563,-5.3482,-5.338,-5.3357,-5.3293,-5.3185,-5.3185,-5.3185,-5.3185,-5.3185,-5.3185,-5.3185,-5.3185,-5.3185,-5.3185,-5.3185,-5.3185,-5.3185,-5.3185,-5.3185,-5.3185,-5.3185,-5.2619,-5.1811,-5.1004,-5.0013,-4.9058,-4.8453,-4.8306,-4.8306,-4.8306,-4.8306,-4.8306,-4.8306,-4.8325,-4.8363,-4.8363,-4.8363,-4.8401,-4.8401,-4.8363,-4.8363,-4.8363,-4.8325,-4.8306,-4.8306,-4.8306,-4.8306,-4.8306,-4.8306,-4.8306,-4.8306,-4.8306,-4.7938,-4.7131,-4.6636,-4.5847,-4.4709,-4.447,-4.4066,-4.3515,-4.3515,-4.3515,-4.3515,-4.3515,-4.3515,-3.0564,-3.2674,0.0,0.0,0.0,0.0,0.0,0.0,0.0,0.0,0.0,0.0,0.0,0.0,0.0,0.0,0.0,0.0,0.0,0.0,0.0,0.0,0.0,0.0,0.0,0.0,0.0,0.0,0.0,0.0,0.0,0.0,0.0,0.0,-5.34,-5.3504,-5.3504,-5.3777,-5.3944,-5.3961,-5.3814,-5.372,-5.372,-5.372,-5.3543,-5.3251,-5.3206,-5.3185,-5.3185,-5.3185,-5.3185,-5.3185,-5.3185,-5.3185,-5.3185,-5.3185,-5.3185,-5.3185,-5.3185,-5.3185,-5.3185,-5.3185,-5.3185,-5.3185,-5.3185,-5.3185,-5.3133,-5.2821,-5.2362,-5.1738,-5.0618,-4.9978,-4.939,-4.8508,-4.8306,-4.8306,-4.8306,-4.8306,-4.8306,-4.8306,-4.8306,-4.8306,-4.8306,-4.8306,-4.8306,-4.8306,-4.8306,-4.8306,-4.8306,-4.8306,-4.8306,-4.8306,-4.8306,-4.8306,-4.8306,-4.8306,-4.8306,-4.8306,-4.8306,-4.8067,-4.759,-4.7278,-4.6489,-4.5204,-4.4874,-4.4305,-4.3515,-4.3515,-4.3515,-4.3515,-4.3515,-4.3515,-3.2742,0.0,0.0,0.0,0.0,0.0,0.0,0.0,0.0,0.0,0.0,0.0,0.0,0.0,0.0,0.0,0.0,0.0,0.0,0.0,0.0,0.0,0.0,0.0,0.0,0.0,0.0,0.0,0.0,0.0,0.0,0.0,0.0,0.0,-5.2965,-5.2965,-5.2965,-5.2965,-5.301,0.0,-5.3077,-5.3077,-5.3077,-5.3224,-5.3261,-5.3187,-5.312,-5.3096,-5.3093,-5.3167,-5.3185,-5.3185,-5.3185,-5.3185,-5.3185,-5.3185,-5.3185,-5.3185,-5.3185,-5.3185,-5.3185,-5.3185,-5.3185,-5.3185,-5.3185,-5.3185,-5.3059,-5.2307,-5.2105,-5.1738,-5.0143,-4.9721,-4.9482,-4.8526,-4.8306,-4.8306,-4.8306,-4.8306,-4.8306,-4.8306,-4.8306,-4.8306,-4.8306,-4.8306,-4.8306,-4.8306,-4.8306,-4.8306,-4.8306,-4.8306,-4.8306,-4.8306,-4.8306,-4.8306,-4.8306,-4.8306,-4.8306,-4.8306,-4.8306,-4.8306,-4.8306,-4.759,-4.6819,-4.603,-4.5223,-4.4415,-4.3608,-4.3551,-4.3515,-4.3515,-4.3515,-4.3515,0.0,-3.3788,0.0,0.0,0.0,0.0,0.0,0.0,0.0,0.0,0.0,0.0,0.0,0.0,0.0,0.0,0.0,0.0,0.0,0.0,0.0,0.0,0.0,0.0,0.0,0.0,0.0,0.0,0.0,0.0,0.0,0.0,0.0,-5.1316,-5.1316,-5.1316,-5.1316,-5.1316,-5.1316,0.0,-5.1357,-5.1357,-5.1393,-5.2706,-5.2946,-5.2275,-5.2273,-5.2252,-5.2307,-5.2949,-5.3185,-5.3185,-5.3185,-5.3185,-5.3185,-5.3185,-5.3185,-5.3185,-5.3185,-5.3185,-5.3185,-5.3185,-5.3185,-5.3185,-5.3185,-5.3185,-5.317,-5.3004,-5.2949,-5.2582,-5.0967,-5.0545,-5.016,-4.8673,-4.8306,-4.8306,-4.8306,-4.8306,-4.8306,-4.8306,-4.8306,-4.8306,-4.8306,-4.8306,-4.8306,-4.8306,-4.8306,-4.8306,-4.8306,-4.8306,-4.8306,-4.8306,-4.8306,-4.8306,-4.8306,-4.8306,-4.8306,-4.8306,-4.8306,-4.8306,-4.8306,-4.8141,-4.7645,-4.6856,-4.6049,-4.5241,-4.4452,-4.3809,-4.3515,-4.3515,-4.3515,-4.3515,0.0,0.0,0.0,0.0,0.0,0.0,0.0,0.0,0.0,0.0,0.0,0.0,0.0,0.0,0.0,0.0,0.0,0.0,0.0,0.0,0.0,0.0,0.0,0.0,0.0,0.0,0.0,0.0,0.0,0.0,0.0,-5.0802,-5.0802,-5.0802,-5.0802,-5.0802,-5.0802,-5.0802,-5.0802,-5.0802,-5.0802,-5.0802,-5.0839,-5.1708,-5.1873,-5.1426,-5.1426,-5.1426,-5.1481,-5.2289,-5.2637,-5.2656,-5.3059,-5.3185,-5.3185,-5.3185,-5.2968,-5.2637,-5.2637,-5.2637,-5.2564,-5.2179,-5.2582,-5.3057,-5.2289,-5.2325,-5.2546,-5.216,-5.205,-5.1867,-5.1022,-5.0508,-4.9994,-4.9132,-4.86,-4.8306,-4.8306,-4.8306,-4.8306,-4.8306,-4.8306,-4.8306,-4.8306,-4.8306,-4.8306,-4.8306,-4.8306,-4.8306,-4.8306,-4.8306,-4.8306,-4.8306,-4.8306,-4.8306,-4.8306,-4.8306,-4.8306,-4.8306,-4.8306,-4.8306,-4.8306,-4.8306,-4.7921,-4.7113,-4.6305,-4.5498,-4.4691,-4.3883,-4.3515,-4.3515,-4.3515,-4.3515,0.0,0.0,0.0,0.0,0.0,0.0,0.0,0.0,0.0,0.0,0.0,0.0,0.0,0.0,0.0,0.0,0.0,0.0,0.0,0.0,0.0,0.0,0.0,0.0,0.0,0.0,0.0,0.0,0.0,0.0,-5.038,-5.038,-5.038,-5.038,-5.038,-5.038,-5.038,-5.038,-5.038,-5.038,-5.038,-5.038,-5.038,-5.038,-5.0453,-5.0582,-5.0582,-5.0582,-5.0655,-5.1463,-5.1775,-5.1848,-5.2546,-5.2803,-5.2803,-5.2949,-5.2491,-5.183,-5.2105,-5.2105,-5.1903,-5.1389,-5.2032,-5.2784,-5.1591,-5.1573,-5.1885,-5.1371,-5.1224,-5.1151,-5.0875,-5.0306,-4.9739,-4.9445,-4.882,-4.8306,-4.8306,-4.8306,-4.8306,-4.8306,-4.8306,-4.8306,-4.8306,-4.8306,-4.8306,-4.8306,-4.8306,-4.8306,-4.8306,-4.8306,-4.8306,-4.8306,-4.8306,-4.8306,-4.8306,-4.8306,-4.8306,-4.8306,-4.8306,-4.8306,-4.8306,-4.8306,-4.7975,-4.7314,-4.6526,-4.5718,-4.4911,-4.4103,-4.3626,-4.3515,-4.3515,-4.3515,0.0,0.0,0.0,0.0,0.0,0.0,0.0,0.0,0.0,0.0,0.0,0.0,0.0,0.0,0.0,0.0,0.0,0.0,0.0,0.0,0.0,0.0,0.0,0.0,0.0,0.0,0.0,0.0,0.0,0.0,-4.8673,-4.8636,-4.8636,-4.8636,-4.8636,-4.8636,-4.8636,-4.8636,-4.8636,-4.8636,-4.8636,-4.8636,-4.8636,-4.8636,-4.904,-4.9757,-4.9757,-4.9757,-4.9831,-5.0618,-5.0967,-5.0967,-5.1077,-5.1132,-5.1206,-5.1903,-5.1646,-5.1169,-5.2564,-5.2582,-5.2087,-5.2692,-5.2546,-5.2252,-5.2747,-5.2472,-5.2105,-5.2711,-5.2873,-5.2564,-5.1169,-5.0729,-5.027,-4.882,-4.8379,-4.8306,-4.8306,-4.8306,-4.8306,-4.8306,-4.8306,-4.8306,-4.8306,-4.8306,-4.8306,-4.8306,-4.8306,-4.8306,-4.8306,-4.8306,-4.8306,-4.8306,-4.8306,-4.8306,-4.8306,-4.8306,-4.8306,-4.8306,-4.8306,-4.8306,-4.8306,-4.8306,-4.8251,-4.8141,-4.7351,-4.6526,-4.5736,-4.4929,-4.4176,-4.3515,-4.3515,-4.3515,-3.0742,0.0,0.0,0.0,0.0,0.0,0.0,0.0,0.0,0.0,0.0,0.0,0.0,0.0,0.0,0.0,0.0,0.0,0.0,0.0,0.0,0.0,0.0,0.0,0.0,0.0,0.0,0.0,0.0,-4.8691,-4.8324,-4.8306,-4.8306,-4.8306,-4.8306,-4.8306,-4.8306,-4.8306,-4.8306,-4.8306,-4.8306,-4.8306,-4.8306,-4.8306,-4.8508,-4.8875,-4.8875,-4.8875,-4.893,-4.9774,-5.0123,-5.016,-5.0618,-5.0802,-5.0839,-5.1206,-5.082,-5.0215,-5.093,-5.0949,-5.0618,-5.0508,-5.0857,-5.1224,-5.0637,-5.0545,-5.082,-5.1628,-5.1867,-5.1811,-5.1536,-5.1132,-5.0508,-4.9297,-4.8655,-4.8306,-4.8306,-4.8306,-4.8306,-4.8306,-4.8306,-4.8306,-4.8306,-4.8306,-4.8306,-4.8306,-4.8306,-4.8306,-4.8306,-4.8306,-4.8306,-4.8306,-4.8306,-4.8306,-4.8306,-4.8306,-4.8306,-4.8306,-4.8306,-4.8306,-4.8306,-4.8306,-4.8306,-4.8306,-4.7498,-4.6691,-4.5902,-4.5094,-4.4287,-4.3515,-4.3515,-4.3515,0.0,0.0,0.0,0.0,0.0,0.0,0.0,0.0,0.0,0.0,0.0,0.0,0.0,0.0,0.0,0.0,0.0,0.0,0.0,0.0,0.0,0.0,0.0,0.0,0.0,0.0,0.0,0.0,0.0,-4.8306,-4.8306,-4.8306,-4.8306,-4.8306,-4.8306,-4.8306,-4.8306,-4.8306,-4.8306,-4.8306,-4.8306,-4.8306,-4.8306,-4.8306,-4.8306,-4.8306,-4.8306,-4.8306,-4.8361,-4.9003,-4.928,-4.9335,-4.9921,-5.016,-5.0196,-5.0417,-4.9976,-4.9335,-4.9757,-4.9776,-4.9537,-4.9077,-4.9646,-5.0306,-4.926,-4.9389,-5.0088,-5.0875,-5.1261,-5.1463,-5.1646,-5.1242,-5.0545,-4.9499,-4.8765,-4.8306,-4.8306,-4.8306,-4.8306,-4.8306,-4.8306,-4.8306,-4.8306,-4.8306,-4.8306,-4.8306,-4.8306,-4.8306,-4.8306,-4.8306,-4.8306,-4.8306,-4.8306,-4.8306,-4.8306,-4.8306,-4.8306,-4.8306,-4.8306,-4.8306,-4.8306,-4.8306,-4.8306,-4.8306,-4.77,-4.7003,-4.6214,-4.5406,-4.4599,-4.3791,-4.3606,-4.3515,0.0,0.0,0.0,0.0,0.0,0.0,0.0,0.0,0.0,0.0,0.0,0.0,0.0,0.0,0.0,0.0,0.0,0.0,0.0,0.0,0.0,0.0,0.0,0.0,0.0,0.0,0.0,0.0,0.0,-4.8306,-4.8306,-4.8306,-4.8306,-4.8306,-4.8306,-4.8306,-4.8306,-4.8306,-4.8306,-4.8306,-4.8306,-4.8306,-4.8306,-4.8306,-4.8306,-4.8306,-4.8306,-4.8306,-4.8306,-4.8361,-4.8379,-4.8379,-4.8416,-4.8434,-4.8526,-4.9372,-4.9095,-4.86,-5.0196,-5.0233,-4.9721,-5.0435,-5.0196,-4.9794,-5.0472,-5.071,-5.0912,-5.1701,-5.2491,-5.2747,-5.1261,-5.0839,-5.0398,-4.8765,-4.8343,-4.8306,-4.8306,-4.8306,-4.8306,-4.8306,-4.8306,-4.8306,-4.8306,-4.8306,-4.8306,-4.8306,-4.8306,-4.8306,-4.8306,-4.8306,-4.8306,-4.8306,-4.8306,-4.8306,-4.8306,-4.8306,-4.8306,-4.8306,-4.8306,-4.8306,-4.8306,-4.8306,-4.8306,-4.8306,-4.8269,-4.7828,-4.7039,-4.6232,-4.5424,-4.4618,-4.3864,-4.3515,0.0,0.0,0.0,0.0,0.0,0.0,0.0,0.0,0.0,0.0,0.0,0.0,0.0,0.0,0.0,0.0,0.0,0.0,0.0,0.0,0.0,0.0,0.0,0.0,0.0,0.0,0.0,0.0,0.0,0.0,-4.8306,-4.8306,-4.8306,-4.8306,-4.8306,-4.8306,-4.8306,-4.8306,-4.8306,-4.8306,-4.8306,-4.8306,-4.8306,-4.8306,-4.8306,-4.8306,-4.8306,-4.8306,-4.8306,-4.8306,-4.8306,-4.8306,-4.8306,-4.8306,-4.8343,-4.8655,-4.8563,-4.8398,-4.9003,-4.9003,-4.8802,-4.9095,-4.9003,-4.8912,-4.9756,-5.0013,-5.0326,-5.1628,-5.2197,-5.2307,-5.172,-5.1573,-5.1151,-4.9517,-4.871,-4.8306,-4.8306,-4.8306,-4.8306,-4.8306,-4.8306,-4.8306,-4.8306,-4.8306,-4.8306,-4.8306,-4.8306,-4.8306,-4.8306,-4.8306,-4.8306,-4.8306,-4.8306,-4.8306,-4.8306,-4.8306,-4.8306,-4.8306,-4.8306,-4.8306,-4.8306,-4.8306,-4.8152,-4.7856,-4.7856,-4.7594,-4.7094,-4.6801,-4.5975,-4.4691,-4.4415,-4.3993,-2.6581,0.0,0.0,0.0,0.0,0.0,0.0,0.0,0.0,0.0,0.0,0.0,0.0,0.0,0.0,0.0,0.0,0.0,0.0,0.0,0.0,0.0,0.0,0.0,0.0,0.0,0.0,0.0,0.0,0.0,-4.8306,-4.8306,-4.8306,-4.8306,-4.8306,-4.8306,-4.8306,-4.8306,-4.8306,-4.8306,-4.8306,-4.8306,-4.8306,-4.8306,-4.8306,-4.8306,-4.8306,-4.8306,-4.8306,-4.8306,-4.8306,-4.8306,-4.8306,-4.8306,-4.8306,-4.8306,-4.8306,-4.8306,-4.8306,-4.8306,-4.8306,-4.8306,-4.8306,-4.8471,-4.9353,-4.9794,-5.027,-5.161,-5.2179,-5.2344,-5.2068,-5.1591,-5.0932,-4.9849,-4.893,-4.8306,-4.8306,-4.8306,-4.8306,-4.8306,-4.8306,-4.8306,-4.8306,-4.8306,-4.8306,-4.8306,-4.8306,-4.8306,-4.8306,-4.8306,-4.8306,-4.8306,-4.8306,-4.8306,-4.8306,-4.8306,-4.8306,-4.8306,-4.8306,-4.823,-4.8075,-4.8073,-4.7836,-4.7378,-4.7378,-4.7253,-4.7013,-4.6917,-4.6394,-4.548,-4.4948,-4.4198,0.0,0.0,0.0,0.0,0.0,0.0,0.0,0.0,0.0,0.0,0.0,0.0,0.0,0.0,0.0,0.0,0.0,0.0,0.0,0.0,0.0,0.0,0.0,0.0,0.0,0.0,0.0,0.0,0.0,-4.8306,-4.8306,-4.8306,-4.8306,-4.8306,-4.8306,-4.8306,-4.8306,-4.8306,-4.8306,-4.8306,-4.8306,-4.8306,-4.8306,-4.8306,-4.8306,-4.8306,-4.8306,-4.8306,-4.8306,-4.8306,-4.8306,-4.8306,-4.8306,-4.8306,-4.8306,-4.8306,-4.8306,-4.8306,-4.8306,-4.8306,-4.8306,-4.8306,-4.8306,-4.8471,-4.9372,-5.0178,-5.0967,-5.1793,-5.2601,-5.3023,-5.2234,-5.0859,-4.9665,-4.9647,-4.8967,-4.8343,-4.8324,-4.8306,-4.8306,-4.8306,-4.8306,-4.8306,-4.8306,-4.8306,-4.8306,-4.8306,-4.8306,-4.8306,-4.8306,-4.8306,-4.8306,-4.8306,-4.8306,-4.8306,-4.8306,-4.8287,-4.8287,-4.8306,-4.8287,-4.8093,-4.7611,-4.7611,-4.7378,-4.6886,-4.6886,-4.6886,-4.6886,-4.6578,-4.665,-4.702,-4.5425,-4.4054,-2.6129,0.0,0.0,0.0,0.0,0.0,0.0,0.0,0.0,0.0,0.0,0.0,0.0,0.0,0.0,0.0,0.0,0.0,0.0,0.0,0.0,0.0,0.0,0.0,0.0,0.0,0.0,0.0,-4.7957,-4.8306,-4.8306,-4.8306,-4.8306,-4.8306,-4.8306,-4.8306,-4.8306,-4.8306,-4.8306,-4.8306,-4.8306,-4.8306,-4.8306,-4.8306,-4.8306,-4.8306,-4.8306,-4.8306,-4.8306,-4.8306,-4.8306,-4.8306,-4.8306,-4.8306,-4.8306,-4.8306,-4.8306,-4.8306,-4.8306,-4.8306,-4.8306,-4.8306,-4.8306,-4.8581,-5.0031,-5.0618,-5.1096,-5.2491,-5.3041,-5.3148,-5.2931,-5.2105,-5.1208,-5.06,-4.9829,-4.9058,-4.8434,-4.8306,-4.8306,-4.8306,-4.8306,-4.8306,-4.8306,-4.8306,-4.8306,-4.8306,-4.8306,-4.8306,-4.8306,-4.8306,-4.8306,-4.8306,-4.8306,-4.8306,-4.8306,-4.7995,-4.7955,-4.8287,-4.7975,-4.7754,-4.7611,-4.7611,-4.7226,-4.6411,-4.6387,-4.6387,-4.6387,-4.6649,-4.6528,-4.6064,-4.5036,-4.3906,0.0,0.0,0.0,0.0,0.0,0.0,0.0,0.0,0.0,0.0,0.0,0.0,0.0,0.0,0.0,0.0,0.0,0.0,0.0,0.0,0.0,0.0,0.0,0.0,0.0,0.0,0.0,-4.6599,-4.704,-4.7297,-4.7297,-4.7297,-4.7297,-4.7297,-4.7627,-4.7791,-4.7791,-4.8141,-4.8306,-4.8306,-4.8306,-4.8306,-4.8306,-4.8306,-4.8306,-4.8306,-4.8306,-4.8306,-4.8306,-4.8306,-4.8306,-4.8306,-4.8306,-4.8306,-4.8306,-4.8306,-4.8306,-4.8306,-4.8306,-4.8306,-4.8306,-4.8306,-4.8306,-4.8563,-4.9884,-5.0527,-5.1077,-5.2344,-5.2949,-5.3185,-5.3185,-5.2362,-5.1371,-5.0912,-4.9903,-4.8912,-4.8416,-4.8306,-4.8306,-4.8306,-4.8306,-4.8306,-4.8306,-4.8306,-4.8306,-4.8306,-4.8132,-4.8015,-4.8015,-4.7854,-4.7713,-4.7713,-4.7713,-4.7713,-4.7713,-4.7482,-4.7421,-4.7692,-4.7464,-4.7226,-4.7026,-4.7026,-4.666,-4.5879,-4.5879,-4.5879,-4.5879,-4.6363,-4.631,-4.5691,-4.5004,-4.4135,0.0,0.0,0.0,0.0,0.0,0.0,0.0,-3.2871,0.0,0.0,0.0,0.0,0.0,0.0,0.0,0.0,0.0,0.0,0.0,0.0,0.0,0.0,0.0,0.0,0.0,-4.57,-4.5773,-4.5773,-4.5847,-4.5902,-4.5902,-4.5902,-4.5902,-4.5902,-4.6581,-4.7003,-4.7094,-4.781,-4.8214,-4.8306,-4.8306,-4.8306,-4.8306,-4.8306,-4.8306,-4.8306,-4.8306,-4.8306,-4.8306,-4.8306,-4.8306,-4.8306,-4.8306,-4.8306,-4.8306,-4.8306,-4.8306,-4.8306,-4.8306,-4.8306,-4.8306,-4.8306,-4.8306,-4.8471,-4.9353,-5.016,-5.0986,-5.1885,-5.2527,-5.2947,-5.3038,-5.194,-5.0784,-5.0692,-4.9536,-4.8416,-4.8324,-4.8306,-4.8306,-4.8306,-4.8306,-4.8306,-4.8306,-4.8306,-4.8306,-4.8306,-4.7897,-4.7611,-4.7611,-4.7182,-4.6908,-4.6908,-4.6908,-4.6908,-4.6908,-4.6863,-4.684,-4.6908,-4.6863,-4.6649,-4.6211,-4.6211,-4.5955,-4.5397,-4.5397,-4.5397,-4.5397,-4.5879,-4.5963,-4.5653,-4.5234,-4.4616,0.0,0.0,0.0,0.0,0.0,0.0,0.0,-3.0852,0.0,0.0,0.0,0.0,0.0,0.0,0.0,0.0,0.0,0.0,0.0,0.0,0.0,0.0,0.0,0.0,0.0,-4.4544,-4.4947,-4.4947,-4.5535,-4.5902,-4.5902,-4.5902,-4.5902,-4.5902,-4.6049,-4.6452,-4.7094,-4.7259,-4.7663,-4.8306,-4.8306,-4.8306,-4.8306,-4.8306,-4.8306,-4.8306,-4.8306,-4.8306,-4.8306,-4.8306,-4.8306,-4.8306,-4.8306,-4.8306,-4.8306,-4.8306,-4.8306,-4.8306,-4.8306,-4.8306,-4.8306,-4.8306,-4.8306,-4.8471,-4.9353,-5.016,-5.1096,-5.2564,-5.216,-5.1426,-5.2068,-5.1518,-5.0637,-4.9996,-4.9592,-4.9132,-4.8453,-4.8306,-4.8306,-4.8306,-4.8306,-4.8306,-4.8306,-4.8306,-4.8306,-4.8306,-4.7897,-4.7611,-4.7611,-4.7182,-4.6908,-4.6908,-4.6908,-4.6908,-4.6908,-4.6537,-4.6507,-4.6886,-4.6554,-4.6308,-4.6211,-4.6211,-4.5955,-4.5397,-4.5397,-4.5397,-4.5397,-4.5502,-4.5503,-4.545,-4.5347,-4.4923,0.0,0.0,0.0,-3.0315,0.0,0.0,0.0,0.0,0.0,0.0,0.0,0.0,0.0,0.0,0.0,0.0,0.0,0.0,0.0,0.0,0.0,0.0,0.0,0.0,0.0,-4.3277,-4.3681,-4.4066,-4.447,-4.469,-4.469,-4.469,-4.469,-4.469,-4.5094,-4.57,-4.6489,-4.6892,-4.7498,-4.8306,-4.8306,-4.8306,-4.8306,-4.8306,-4.8306,-4.8306,-4.8306,-4.8306,-4.8306,-4.8306,-4.8306,-4.8306,-4.8306,-4.8306,-4.8306,-4.8306,-4.8306,-4.8306,-4.8306,-4.8306,-4.8306,-4.8306,-4.8306,-4.8379,-4.882,-4.9499,-5.0417,-5.1665,-5.1426,-5.0894,-5.1298,-5.0802,-5.0028,-4.9348,-4.8887,-4.8425,-4.7741,-4.7609,-4.7609,-4.7609,-4.7609,-4.7671,-4.7915,-4.7955,-4.7856,-4.763,-4.7204,-4.6913,-4.6913,-4.6448,-4.6144,-4.6144,-4.6144,-4.6144,-4.6144,-4.5938,-4.5887,-4.6144,-4.5938,-4.5803,-4.5803,-4.5803,-4.5667,-4.5397,-4.5397,-4.5397,-4.5397,-4.5397,-4.5397,-4.5397,-4.5397,-4.519,0.0,0.0,0.0,0.0,0.0,-3.0602,0.0,0.0,0.0,-3.1485,0.0,0.0,0.0,0.0,0.0,0.0,0.0,0.0,0.0,0.0,0.0,0.0,0.0,0.0,0.0,-4.1607,-4.1992,-4.2965,-4.2892,-4.2945,-4.324,-4.3423,-4.3515,-4.3515,-4.4121,-4.4856,-4.5663,-4.6471,-4.7259,-4.8086,-4.8233,-4.8306,-4.8306,-4.8306,-4.8306,-4.8306,-4.8306,-4.8306,-4.8306,-4.8306,-4.8306,-4.8306,-4.8306,-4.8306,-4.8306,-4.8306,-4.8306,-4.8306,-4.8306,-4.8306,-4.8306,-4.8306,-4.8306,-4.8343,-4.8508,-4.8893,-4.9481,-5.0508,-5.0582,-5.0362,-5.0527,-4.9898,-4.9098,-4.8675,-4.7998,-4.7356,-4.6999,-4.7015,-4.7064,-4.6944,-4.7135,-4.7379,-4.7454,-4.7464,-4.7335,-4.6954,-4.6507,-4.6211,-4.6211,-4.5727,-4.5397,-4.5397,-4.5397,-4.5397,-4.5397,-4.5397,-4.5397,-4.5397,-4.5397,-4.5397,-4.5397,-4.5397,-4.5397,-4.5397,-4.5397,-4.5397,-4.5397,-4.5397,-4.5397,-4.5397,-4.5397,-4.5397,0.0,0.0,0.0,0.0,-3.336,0.0,0.0,0.0,-3.0091,-2.8855,0.0,0.0,0.0,0.0,0.0,0.0,0.0,0.0,0.0,0.0,0.0,0.0,0.0,0.0,0.0,0.0,-3.9753,-4.126,-4.0708,-4.0928,-4.2359,-4.3112,-4.3515,-4.3515,-4.3589,-4.4011,-4.4837,-4.5626,-4.6452,-4.7241,-4.7957,-4.8306,-4.8306,-4.8306,-4.8306,-4.8306,-4.8306,-4.8306,-4.8306,-4.8306,-4.8306,-4.8306,-4.8306,-4.8306,-4.8306,-4.8306,-4.8306,-4.8306,-4.8306,-4.8306,-4.8306,-4.8306,-4.8306,-4.8434,-4.9225,-4.8967,-4.8765,-5.0362,-4.9738,-4.8765,-4.9555,-4.88,-4.7819,-4.7756,-4.7363,-4.6959,-4.6908,-4.7421,-4.7665,-4.701,-4.7986,-4.8503,-4.7209,-4.6976,-4.6976,-4.6908,-4.6507,-4.6211,-4.6211,-4.5727,-4.5397,-4.5397,-4.5397,-4.5397,-4.5397,-4.5397,-4.5397,-4.5397,-4.5397,-4.5397,-4.5397,-4.5397,-4.5397,-4.5397,-4.5397,-4.5397,-4.5397,-4.5397,-4.5397,-4.5397,-4.5397,-4.5397,0.0,0.0,0.0,0.0,0.0,0.0,0.0,0.0,-2.9058,0.0,0.0,0.0,0.0,0.0,0.0,0.0,0.0,0.0,0.0,0.0,0.0,0.0,0.0,0.0,0.0,0.0,0.0,0.0,0.0,-4.0396,-4.1552,-4.2378,-4.302,-4.3496,-4.3515,-4.3883,-4.4691,-4.5498,-4.6305,-4.7113,-4.7921,-4.8306,-4.8306,-4.8306,-4.8306,-4.8306,-4.8306,-4.8306,-4.8306,-4.8306,-4.8306,-4.8306,-4.8306,-4.8306,-4.8306,-4.8306,-4.8306,-4.8306,-4.8306,-4.8306,-4.8306,-4.8306,-4.8306,-4.8379,-4.8728,-4.86,-4.8453,-4.915,-4.9205,-4.9132,-4.9519,-4.9286,-4.8898,-4.8596,-4.8135,-4.7587,-4.6883,-4.7315,-4.763,-4.6877,-4.7595,-4.8111,-4.749,-4.7234,-4.7057,-4.677,-4.6176,-4.5744,-4.5744,-4.5537,-4.5397,-4.5397,-4.5397,-4.5397,-4.5397,-4.5344,-4.53,-4.5397,-4.5397,-4.5397,-4.5397,-4.5397,-4.5397,-4.5397,-4.5397,-4.5371,-4.5274,-4.5274,-4.5247,-4.5167,-4.5318,-4.5397,-3.6546,0.0,0.0,0.0,0.0,0.0,0.0,0.0,0.0,0.0,0.0,0.0,0.0,0.0,0.0,0.0,0.0,0.0,0.0,0.0,0.0,0.0,0.0,0.0,0.0,0.0,0.0,0.0,0.0,0.0,-4.0361,-4.1423,-4.2341,-4.3149,-4.3404,-4.3773,-4.4378,-4.5388,-4.6195,-4.6782,-4.781,-4.8306,-4.8306,-4.8306,-4.8306,-4.8306,-4.8306,-4.8306,-4.8306,-4.8306,-4.8306,-4.8306,-4.8306,-4.8306,-4.8306,-4.8306,-4.8306,-4.8306,-4.8306,-4.8306,-4.8306,-4.8306,-4.821,-4.8113,-4.8113,-4.8015,-4.7951,-4.815,-4.868,-4.9211,-4.9427,-4.9517,-4.9459,-4.9066,-4.8561,-4.7909,-4.7037,-4.7399,-4.7664,-4.6907,-4.7544,-4.8128,-4.7922,-4.7582,-4.7195,-4.6685,-4.6033,-4.5515,-4.5361,-4.5318,-4.53,-4.5344,-4.5344,-4.5344,-4.5344,-4.5247,-4.522,-4.5291,-4.5291,-4.5291,-4.5291,-4.5291,-4.5318,-4.5327,-4.5318,-4.5247,-4.5203,-4.515,-4.5113,-4.5005,-4.5211,-4.5291,0.0,0.0,0.0,-3.4779,0.0,0.0,0.0,0.0,-3.0266,0.0,0.0,0.0,0.0,0.0,0.0,0.0,0.0,0.0,0.0,0.0,0.0,0.0,0.0,0.0,0.0,0.0,0.0,0.0,0.0,0.0,-3.8652,-4.027,-4.1499,-4.2304,-4.3075,-4.3497,-4.3551,-4.5112,-4.5902,-4.5957,-4.7553,-4.8306,-4.8306,-4.8306,-4.8306,-4.8306,-4.8306,-4.8306,-4.8306,-4.8306,-4.8306,-4.8306,-4.8306,-4.8306,-4.8306,-4.8306,-4.8306,-4.8306,-4.8306,-4.8306,-4.8306,-4.8306,-4.7995,-4.7611,-4.7611,-4.7313,-4.7074,-4.78,-4.8032,-4.8229,-4.9008,-4.8838,-4.8433,-4.8433,-4.7976,-4.7522,-4.7477,-4.7946,-4.815,-4.7335,-4.8424,-4.9227,-4.8509,-4.7872,-4.7275,-4.669,-4.6316,-4.587,-4.528,-4.5086,-4.5059,-4.5177,-4.522,-4.522,-4.522,-4.5203,-4.5167,-4.5005,-4.5005,-4.5005,-4.5005,-4.5005,-4.5059,-4.5203,-4.5086,-4.5086,-4.5203,-4.5059,-4.5005,-4.5005,-4.5005,-4.5005,0.0,0.0,-4.1955,-3.6909,0.0,0.0,0.0,0.0,0.0,0.0,0.0,0.0,0.0,0.0,0.0,0.0,0.0,0.0,0.0,0.0,0.0,0.0,0.0,0.0,0.0,0.0,0.0,0.0,0.0,0.0,0.0,-3.9937,-4.1462,-4.2268,-4.3075,-4.3515,-4.3515,-4.5094,-4.5902,-4.592,-4.7535,-4.8306,-4.8306,-4.8306,-4.8306,-4.8306,-4.8306,-4.8306,-4.8306,-4.8306,-4.8306,-4.8306,-4.8306,-4.8306,-4.8306,-4.8306,-4.8306,-4.823,-4.7838,-4.7488,-4.7248,-4.7248,-4.712,-4.7116,-4.7702,-4.775,-4.779,-4.8574,-4.918,-4.965,-4.9911,-4.9998,-4.9986,-4.9986,-4.9458,-4.8833,-4.8335,-4.8699,-4.889,-4.8138,-4.8804,-4.9402,-4.9193,-4.8831,-4.845,-4.7889,-4.6828,-4.602,-4.5819,-4.5313,-4.5005,-4.5059,-4.5059,-4.5059,-4.5059,-4.5059,-4.5005,-4.4886,-4.4951,-4.5005,-4.5005,-4.5005,-4.5005,-4.5059,-4.5032,-4.4978,-4.494,-4.4886,-4.4831,-4.4737,-4.4737,-4.4831,-4.2161,-4.2863,0.0,-3.8695,-3.7782,0.0,-3.2449,0.0,0.0,0.0,0.0,0.0,0.0,0.0,0.0,0.0,0.0,0.0,0.0,0.0,0.0,0.0,0.0,0.0,0.0,0.0,-3.1112,-3.1975,0.0,0.0,0.0,0.0,-4.0747,-4.1846,-4.2928,-4.3515,-4.3515,-4.5094,-4.5902,-4.592,-4.7535,-4.8306,-4.8306,-4.8306,-4.8306,-4.8306,-4.8306,-4.8306,-4.8306,-4.8306,-4.8306,-4.8306,-4.8306,-4.8306,-4.8306,-4.8306,-4.8172,-4.7917,-4.747,-4.7013,-4.6654,-4.6915,-4.6885,-4.6905,-4.7713,-4.7837,-4.7862,-4.8687,-4.9293,-4.9741,-5.0022,-5.021,-5.0335,-5.0335,-4.9982,-4.9482,-4.8915,-4.9116,-4.9244,-4.8724,-4.9014,-4.9337,-4.9337,-4.9199,-4.8961,-4.8468,-4.7442,-4.6652,-4.6436,-4.5976,-4.5642,-4.5697,-4.5476,-4.5231,-4.4958,-4.4886,-4.4831,-4.472,-4.4803,-4.4858,-4.4858,-4.4858,-4.4886,-4.494,-4.4886,-4.4831,-4.4803,-4.4765,-4.4682,-4.4615,-4.4615,-4.4709]},{"header":{"parameterUnit":"m.s-1","parameterCategory":1,"la1":30.6,"la2":29.2853,"lo1":-89.7004,"lo2":-87.6739,"dy":0.0162,"dx":0.0183,"nx":112,"ny":82,"refTime":"2025-04-24T18:00:00:Z","depth":0,"parameterNumber":3,"parameterNumberName":"V-component_of_WINDS"},"data":[0.0,0.0,0.0,0.0,0.0,0.0,0.0,0.0,0.0,0.0,0.0,0.0,0.0,0.0,0.0,0.0,0.0,0.0,0.0,0.0,0.0,0.0,0.0,0.0,0.0,0.0,0.0,0.0,0.0,0.0,0.0,0.0,0.0,0.0,0.0,0.0,0.0,0.0,0.0,0.0,0.0,0.0,0.0,0.0,0.0,0.0,0.0,0.0,0.0,0.0,0.0,0.0,0.0,0.0,0.0,0.0,0.0,0.0,0.0,0.0,0.0,0.0,0.0,0.0,0.0,0.0,0.0,0.0,0.0,0.0,0.0,0.0,0.0,0.0,0.0,0.0,0.0,0.0,0.0,0.0,0.0,0.0,0.0,0.0,0.0,0.0,0.0,0.0,0.0,0.0,0.0,0.5012,0.5793,0.6238,0.6003,0.6651,0.6697,0.5804,0.0,0.0,0.0,0.0,0.0,0.0,0.0,0.0,0.0,0.0,0.0,0.0,0.0,0.0,0.0,0.0,0.0,0.0,0.0,0.0,0.0,0.0,0.0,0.0,0.0,0.0,0.0,0.0,0.0,0.0,0.0,0.0,0.0,0.0,0.0,0.0,0.0,0.0,0.0,0.0,0.0,0.0,0.0,0.0,0.0,0.0,0.0,0.0,0.0,0.0,0.0,0.0,0.0,0.0,0.0,0.0,0.0,0.0,0.0,0.0,0.0,0.0,0.0,0.0,0.0,0.0,0.0,0.0,0.0,0.0,0.0,0.0,0.0,0.0,0.0,0.0,0.0,0.0,0.0,0.0,0.0,0.0,0.0,0.0,0.0,0.0,0.0,0.0,0.0,0.0,0.0,0.0,0.0,0.0,0.0,0.0,0.0,0.0,0.0,0.0,0.0,0.0,0.0,0.0,0.4597,0.5713,0.6101,0.6238,0.6003,0.7077,0.725,0.6118,0.0,0.0,0.0,0.0,0.0,0.0,0.0,0.0,0.0,0.0,0.0,0.0,0.0,0.0,0.0,0.0,0.0,0.0,0.0,0.0,0.0,0.0,0.0,0.0,0.0,0.0,0.0,0.0,0.0,0.0,0.0,0.0,0.0,0.0,0.0,0.0,0.0,0.0,0.0,0.0,0.0,0.0,0.0,0.0,0.0,0.0,0.0,0.0,0.0,0.0,0.0,0.0,0.0,0.0,0.0,0.0,0.0,0.0,0.0,0.0,0.0,0.0,0.0,0.0,0.0,0.0,0.0,0.0,0.0,0.0,0.0,0.0,0.0,0.0,0.0,0.0,0.0,0.0,0.0,0.0,0.0,0.0,0.0,0.0,0.0,0.0,0.0,0.0,0.0,0.0,0.0,0.0,0.0,0.0,0.0,0.0,0.0,0.0,0.0,0.0,0.0,0.0,0.0,0.4374,0.4842,0.6016,0.6098,0.6111,0.6159,0.6518,0.6595,0.6244,0.5812,0.0,0.0,0.0,0.0,0.0,0.0,0.0,0.0,0.0,0.0,0.0,0.0,0.0,0.0,0.0,0.0,0.0,0.0,0.0,0.0,0.0,0.0,0.0,0.0,0.0,0.0,0.0,0.0,0.0,0.0,0.0,0.0,0.0,0.0,0.0,0.0,0.0,0.0,0.0,0.0,0.0,0.0,0.0,0.0,0.0,0.0,0.0,0.0,0.0,0.0,0.0,0.0,0.0,0.0,0.0,0.0,0.0,0.0,0.0,0.0,0.0,0.0,0.0,0.0,0.0,0.0,0.0,0.0,0.0,0.0,0.0,0.0,0.0,0.0,0.0,0.0,0.0,0.0,0.0,0.0,0.0,0.0,0.0,0.0,0.0,0.0,0.0,0.0,0.0,0.0,0.0,0.0,0.0,0.0,0.0,0.0,0.0,0.0,0.0,0.0,0.0,0.0,0.4832,0.5199,0.619,0.606,0.6018,0.6261,0.6092,0.6015,0.6125,0.5602,0.0,0.0,0.0,0.0,0.0,0.0,0.0,0.0,0.0,0.0,0.0,0.0,0.0,0.0,0.0,0.0,0.0,0.0,0.0,0.0,0.0,0.0,0.0,0.0,0.0,0.0,0.0,0.0,0.0,0.0,0.0,0.0,0.0,0.0,0.0,0.0,0.0,0.0,0.0,0.0,0.0,0.0,0.0,0.0,0.0,0.0,0.0,0.0,0.0,0.0,0.0,0.0,0.0,0.0,0.0,0.0,0.0,0.0,0.0,0.0,0.0,0.0,0.0,0.0,0.0,0.0,0.0,0.0,0.0,0.0,0.0,0.0,0.0,0.0,0.0,0.0,0.0,0.0,0.0,0.0,0.0,0.0,0.0,0.0,0.0,0.0,0.0,0.0,0.0,0.0,0.0,0.0,0.0,0.0,0.0,0.0,0.0,0.0,0.0,0.0,0.0,0.0,0.5031,0.5669,0.6224,0.606,0.6018,0.6261,0.6461,0.6291,0.5696,0.5761,0.0,0.0,0.0,0.0,0.0,0.0,0.0,0.0,0.0,0.0,0.0,0.0,0.0,0.0,0.0,0.0,0.0,0.0,0.0,0.0,0.0,0.0,0.0,0.0,0.0,0.0,0.0,0.0,0.0,0.0,0.0,0.0,0.0,0.0,0.0,0.0,0.0,0.0,0.0,0.0,0.0,0.0,0.0,0.0,0.0,0.0,0.0,0.0,0.0,0.0,0.0,0.0,0.0,0.0,0.0,0.0,0.0,0.0,0.0,0.0,0.0,0.0,0.0,0.0,0.0,0.0,0.0,0.0,0.0,0.0,0.0,0.0,0.0,0.0,0.0,0.0,0.0,0.0,0.0,0.0,0.0,0.0,0.0,0.0,0.0,0.0,0.0,0.0,0.0,0.0,0.0,0.0,0.0,0.0,0.0,0.0,0.0,0.0,0.0,0.0,0.0,0.0,0.4989,0.5528,0.0,0.606,0.6018,0.6261,0.6181,0.5958,0.5613,0.0,0.0,0.0,0.0,0.0,0.0,0.0,0.0,0.0,0.0,0.0,0.0,0.0,0.0,0.0,0.0,0.0,0.0,0.0,0.0,0.0,0.0,0.0,0.0,0.0,0.0,0.0,0.0,0.0,0.0,0.0,0.0,0.0,0.0,0.0,0.0,0.0,0.0,0.0,0.0,0.0,0.0,0.0,0.0,0.0,0.0,0.0,0.0,0.0,0.0,0.0,0.0,0.0,0.0,0.0,0.0,0.0,0.0,0.0,0.0,0.0,0.0,0.0,0.0,0.0,0.0,0.0,0.0,0.0,0.0,0.0,0.0,0.0,0.0,0.0,0.0,0.0,0.0,0.0,0.0,0.0,0.0,0.0,0.0,0.0,0.0,0.0,0.0,0.0,0.0,0.0,0.0,0.0,0.0,0.0,0.0,0.0,0.0,0.0,0.0,0.0,0.0,0.462,0.5049,0.5567,0.0,0.606,0.6018,0.6261,0.5939,0.5613,0.5329,0.0,0.0,0.0,0.0,0.0,0.0,0.0,0.0,0.0,0.0,0.0,0.0,0.0,0.0,0.0,0.0,0.0,0.0,0.0,0.0,0.0,0.0,0.0,0.0,0.0,0.0,0.0,0.0,0.0,0.0,0.0,0.0,0.0,0.0,0.0,0.0,0.0,0.0,0.0,0.0,0.0,0.0,0.0,0.0,0.0,0.0,0.0,0.0,0.0,0.0,0.0,0.0,0.0,0.0,0.0,0.0,0.0,0.0,0.0,0.0,0.0,0.0,0.0,0.0,0.0,0.0,0.0,0.0,0.0,0.0,0.0,0.0,0.0,0.0,0.0,0.0,0.0,0.0,0.0,0.0,0.0,0.0,0.0,0.0,0.0,0.0,0.0,0.0,0.0,0.0,0.0,0.0,0.0,0.0,0.0,0.0,0.0,0.0,0.0,0.0,0.0,0.0,0.4646,0.5287,0.5858,0.6244,0.606,0.6018,0.6261,0.5887,0.5335,0.0,0.0,0.0,0.0,0.0,0.0,0.0,0.0,0.0,0.0,0.0,0.0,0.0,0.0,0.0,0.0,0.0,0.0,0.0,0.0,0.0,0.0,0.0,0.0,0.0,0.0,0.0,0.0,0.0,0.0,0.0,0.0,0.0,0.0,0.0,0.0,0.0,0.0,0.0,0.0,0.0,0.0,0.0,0.0,0.0,0.0,0.0,0.0,0.0,0.0,0.0,0.0,0.0,0.0,0.0,0.0,0.0,0.0,0.0,0.0,0.0,0.0,0.0,0.0,0.0,0.0,0.0,0.0,0.0,0.0,0.0,0.0,0.0,0.0,0.0,0.0,0.0,0.0,0.0,0.0,0.0,0.0,0.0,0.0,0.0,0.0,0.0,0.0,0.0,0.0,0.0,0.0,0.0,0.0,0.0,0.0,0.0,0.0,0.0,0.0,0.0,0.0,0.0,0.0,0.559,0.6172,0.6293,0.6219,0.6219,0.63,0.5939,0.544,0.4735,0.0,0.0,0.0,0.0,0.0,0.0,0.0,0.0,0.0,0.0,0.0,0.0,0.0,0.0,0.0,0.0,0.0,0.0,0.0,0.0,0.0,0.0,0.0,0.0,0.0,0.0,0.0,0.0,0.0,0.0,0.0,0.0,0.0,0.0,0.0,0.0,0.0,0.0,0.0,0.0,0.0,0.0,0.0,0.0,0.0,0.0,0.0,0.0,0.0,0.0,0.0,0.0,0.0,0.0,0.0,0.0,0.0,0.0,0.0,0.0,0.0,0.0,0.0,0.0,0.0,0.0,0.0,0.0,0.0,0.0,0.0,0.0,0.0,0.0,0.0,0.0,0.0,0.0,0.0,0.0,0.0,0.0,0.0,0.0,0.0,0.0,0.0,0.0,0.0,0.0,0.0,0.0,0.0,0.0,0.0,0.0,0.0,0.0,0.0,0.0,0.0,0.0,0.485,0.5705,0.63,0.63,0.63,0.63,0.63,0.5979,0.5511,0.4823,0.0,0.0,0.0,0.0,0.0,0.0,0.0,0.0,0.0,0.0,0.0,0.0,0.0,0.0,0.0,0.0,0.0,0.0,0.0,0.0,0.0,0.0,0.0,0.0,0.0,0.0,0.0,0.0,0.0,0.0,0.0,0.0,0.0,0.0,0.0,0.0,0.0,0.0,0.0,0.0,0.0,0.0,0.0,0.0,0.0,0.0,0.0,0.0,0.0,0.0,0.0,0.0,0.0,0.0,0.0,0.0,0.0,0.0,0.0,0.0,0.0,0.0,0.0,0.0,0.0,0.0,0.0,0.0,0.0,0.0,0.0,0.0,0.0,0.0,0.0,0.0,0.0,0.0,0.0,0.0,0.0,0.0,0.0,0.0,0.0,0.0,0.0,0.0,0.0,0.0,0.0,0.0,0.0,0.0,0.0,0.0,0.0,0.0,0.0,0.0,0.0,0.0,0.485,0.5705,0.63,0.63,0.63,0.63,0.63,0.5993,0.5569,0.4945,0.0,0.0,0.0,0.0,0.0,0.0,0.0,0.0,0.0,0.0,0.0,0.0,0.0,0.0,0.0,0.0,0.0,0.0,0.0,0.0,0.0,0.0,0.0,0.0,0.0,0.0,0.0,0.0,0.0,0.0,0.0,0.0,0.0,0.0,0.0,0.0,0.0,0.0,0.0,0.0,0.0,0.0,0.0,0.0,0.0,0.0,0.0,0.0,0.0,0.0,0.0,0.0,0.0,0.0,0.0,0.0,0.0,0.0,0.0,0.0,0.3785,0.0,0.0,0.0,0.0,0.0,0.0,0.0,0.0,0.0,0.0,0.0,0.0,0.0,0.0,0.0,0.0,0.0,0.0,0.0,0.0,0.0,0.0,0.0,0.0,0.0,0.0,0.0,0.0,0.0,0.0,0.0,0.0,0.0,0.0,0.0,0.0,0.0,0.0,0.0,0.0,0.0,0.485,0.5705,0.63,0.63,0.63,0.63,0.63,0.6088,0.569,0.5093,0.0,0.0,0.0,0.0,0.0,0.0,0.0,0.0,0.0,0.0,0.0,0.0,0.0,0.0,0.0,0.0,0.0,0.0,0.0,0.0,0.0,0.0,0.0,0.0,0.0,0.0,0.0,0.0,0.0,0.0,0.0,0.0,0.0,0.0,0.0,0.0,0.0,0.0,0.0,0.0,0.0,0.0,0.0,0.0,0.0,0.0,0.0,0.0,0.0,0.0,0.0,0.0,0.0,0.0,0.0,0.0,0.0,0.0,0.0,0.0,0.0,0.4115,0.0,0.0,0.0,0.0,0.0,0.0,0.0,0.0,0.0,0.0,0.0,0.0,0.0,0.0,0.0,0.0,0.0,0.0,0.0,0.0,0.0,0.0,0.0,0.0,0.0,0.0,0.0,0.0,0.0,0.0,0.0,0.0,0.0,0.0,0.0,0.0,0.0,0.0,0.0,0.0,0.4951,0.5745,0.63,0.63,0.63,0.63,0.63,0.6118,0.5801,0.5379,0.5003,0.0,0.0,0.0,0.0,0.0,0.0,0.0,0.0,0.0,0.0,0.0,0.0,0.0,0.0,0.0,0.0,0.0,0.0,0.0,0.0,0.0,0.0,0.0,0.0,0.0,0.0,0.0,0.0,0.0,0.0,0.0,0.0,0.0,0.0,0.0,0.0,0.0,0.0,0.0,0.0,0.0,0.0,0.0,0.0,0.0,0.0,0.0,0.0,0.0,0.0,0.0,0.0,0.0,0.4765,0.4692,0.4712,0.4888,0.5304,0.5804,0.5035,0.5043,0.5511,0.0,0.0,0.0,0.0,0.0,0.0,0.0,0.0,0.0,0.0,0.0,0.0,0.0,0.0,0.0,0.0,0.0,0.0,0.0,0.0,0.0,0.0,0.0,0.0,0.0,0.5359,0.5446,0.0,0.0,0.0,0.0,0.0,0.0,0.0,0.0,0.0,0.0,0.0,0.0,0.5133,0.5823,0.63,0.63,0.63,0.63,0.63,0.6142,0.5956,0.5684,0.527,0.4803,0.0,0.0,0.0,0.0,0.0,0.0,0.0,0.0,0.0,0.0,0.0,0.0,0.0,0.0,0.0,0.0,0.0,0.0,0.0,0.0,0.0,0.0,0.0,0.0,0.0,0.0,0.0,0.0,0.0,0.0,0.0,0.0,0.3593,0.3275,0.0,0.0,0.0,0.0,0.0,0.0,0.0,0.0,0.0,0.0,0.0,0.0,0.0,0.4027,0.4213,0.5079,0.5577,0.5656,0.6362,0.6711,0.6734,0.675,0.6813,0.6913,0.6777,0.0,0.6153,0.5769,0.0,0.0,0.0,0.0,0.0,0.0,0.0,0.0,0.0,0.0,0.0,0.0,0.0,0.0,0.0,0.0,0.0,0.0,0.0,0.0,0.0,0.0,0.6248,0.6146,0.6245,0.631,0.0,0.5341,0.4636,0.4562,0.4324,0.0,0.0,0.0,0.0,0.0,0.0,0.0,0.5457,0.5992,0.63,0.63,0.63,0.63,0.63,0.6279,0.6156,0.5946,0.5677,0.5301,0.482,0.4372,0.0,0.0,0.0,0.0,0.0,0.0,0.0,0.0,0.0,0.0,0.0,0.0,0.0,0.0,0.0,0.0,0.0,0.0,0.0,0.0,0.0,0.0,0.0,0.0,0.0,0.0,0.0,0.0,0.0,0.3462,0.3478,0.3326,0.3551,0.338,0.0,0.0,0.0,0.0,0.0,0.0,0.0,0.0,0.0,0.4781,0.4997,0.5407,0.6089,0.6574,0.6879,0.7036,0.7529,0.7777,0.7777,0.7858,0.7896,0.7889,0.7811,0.758,0.7204,0.6478,0.6061,0.5847,0.0,0.0,0.0,0.0,0.5389,0.5362,0.5681,0.5694,0.0,0.0,0.0,0.0,0.0,0.0,0.0,0.0,0.0,0.0,0.0,0.0,0.0,0.6521,0.6556,0.6583,0.6522,0.6146,0.5671,0.0,0.4962,0.4721,0.4206,0.0,0.0,0.0,0.0,0.0,0.5664,0.6067,0.63,0.63,0.63,0.63,0.63,0.63,0.6196,0.6003,0.5908,0.5637,0.5186,0.479,0.4355,0.0,0.0,0.0,0.0,0.0,0.0,0.0,0.0,0.0,0.0,0.0,0.0,0.0,0.0,0.0,0.0,0.0,0.0,0.0,0.0,0.0,0.0,0.0,0.0,0.0,0.0,0.0,0.0,0.3799,0.3708,0.338,0.3914,0.3827,0.0,0.0,0.0,0.0,0.0,0.0,0.4806,0.5118,0.5537,0.6074,0.6328,0.6723,0.7331,0.7369,0.734,0.7187,0.734,0.744,0.7443,0.7537,0.758,0.7577,0.7794,0.7795,0.7625,0.7013,0.6712,0.6607,0.6234,0.6064,0.6051,0.6165,0.6148,0.6142,0.6515,0.6573,0.6441,0.6176,0.0,0.5837,0.5396,0.0,0.0,0.0,0.0,0.5794,0.6286,0.6443,0.6488,0.6709,0.6759,0.6759,0.6759,0.6698,0.6444,0.0,0.5651,0.5423,0.4726,0.0,0.0,0.0,0.0,0.5671,0.5891,0.6156,0.63,0.63,0.63,0.63,0.63,0.63,0.6248,0.6095,0.6013,0.5864,0.5525,0.5189,0.4819,0.4345,0.0,0.0,0.0,0.0,0.0,0.0,0.0,0.0,0.0,0.0,0.0,0.0,0.0,0.0,0.0,0.0,0.0,0.0,0.0,0.0,0.0,0.0,0.0,0.0,0.0,0.0,0.0,0.0,0.0,0.3382,0.4682,0.0,0.0,0.0,0.0,0.4829,0.452,0.4708,0.5668,0.6037,0.663,0.7489,0.7914,0.7642,0.6592,0.6698,0.6178,0.5081,0.5088,0.509,0.509,0.5094,0.5096,0.5149,0.6305,0.6774,0.6783,0.7308,0.737,0.7048,0.6889,0.6783,0.6675,0.6785,0.6836,0.6852,0.7007,0.7058,0.7028,0.6879,0.6583,0.6272,0.6242,0.6091,0.0,0.0,0.6351,0.6497,0.663,0.6787,0.6856,0.6869,0.6873,0.6873,0.6873,0.6688,0.6511,0.0,0.6347,0.6149,0.5779,0.0,0.5463,0.5694,0.565,0.5745,0.6221,0.6289,0.63,0.63,0.63,0.63,0.63,0.63,0.6296,0.6289,0.6112,0.5919,0.5786,0.5528,0.516,0.4677,0.4345,0.0,0.0,0.0,0.0,0.0,0.0,0.0,0.0,0.0,0.0,0.0,0.0,0.0,0.0,0.0,0.0,0.0,0.0,0.0,0.0,0.0,0.0,0.0,0.0,0.0,0.0,0.0,0.0,0.4386,0.5436,0.0,0.0,0.5205,0.5574,0.4507,0.4962,0.5107,0.4772,0.5102,0.5428,0.5717,0.5999,0.5922,0.5616,0.5652,0.5537,0.5213,0.5213,0.5213,0.5213,0.5213,0.5597,0.6367,0.6749,0.7359,0.8021,0.8245,0.8136,0.7851,0.7655,0.7503,0.7421,0.7475,0.7438,0.737,0.7417,0.7434,0.7411,0.7261,0.7037,0.6827,0.6827,0.6745,0.6734,0.6932,0.7054,0.7129,0.7241,0.7319,0.736,0.736,0.7285,0.7214,0.7214,0.7051,0.6875,0.6783,0.6566,0.6371,0.617,0.6122,0.6085,0.5962,0.5989,0.6115,0.6279,0.63,0.63,0.63,0.63,0.63,0.63,0.63,0.63,0.63,0.6115,0.5925,0.581,0.5613,0.5338,0.4951,0.4749,0.4284,0.0,0.0,0.0,0.0,0.0,0.0,0.0,0.0,0.0,0.0,0.0,0.0,0.0,0.0,0.0,0.0,0.0,0.0,0.0,0.0,0.0,0.0,0.0,0.0,0.0,0.0,0.5783,0.5143,0.6123,0.6263,0.464,0.5709,0.5871,0.4471,0.5036,0.515,0.4491,0.468,0.4841,0.4841,0.4979,0.4889,0.462,0.462,0.4479,0.4193,0.4193,0.4416,0.4804,0.4804,0.5419,0.6536,0.693,0.7494,0.8183,0.8624,0.8672,0.8476,0.8269,0.8126,0.8038,0.8038,0.7977,0.7892,0.7845,0.776,0.7655,0.7553,0.7417,0.725,0.725,0.725,0.7316,0.7421,0.7448,0.7472,0.7573,0.76,0.76,0.76,0.7522,0.7434,0.7429,0.7292,0.7173,0.6987,0.6797,0.658,0.6474,0.6528,0.6464,0.6217,0.6312,0.6412,0.6313,0.634,0.6354,0.6306,0.63,0.63,0.63,0.6252,0.6245,0.6296,0.6067,0.5908,0.5803,0.5616,0.5393,0.5103,0.4911,0.4487,0.3776,0.0,0.0,0.0,0.0,0.0,0.0,0.0,0.0,0.0,0.0,0.0,0.0,0.0,0.0,0.0,0.0,0.0,0.0,0.0,0.0,0.0,0.0,0.0,0.563,0.6156,0.6245,0.5574,0.6728,0.6842,0.4826,0.5449,0.5669,0.4795,0.4656,0.4694,0.4776,0.4918,0.5019,0.5019,0.5208,0.4749,0.3636,0.358,0.2967,0.1851,0.1795,0.2409,0.358,0.358,0.4305,0.5528,0.6649,0.7096,0.7263,0.8436,0.8885,0.8854,0.8611,0.8492,0.8489,0.8489,0.8486,0.8462,0.8378,0.8082,0.7831,0.7831,0.7736,0.7621,0.7621,0.7617,0.7614,0.7614,0.7614,0.7614,0.7614,0.7614,0.7614,0.7614,0.7611,0.7567,0.7463,0.7426,0.7326,0.7132,0.6991,0.6846,0.6739,0.6712,0.6658,0.6549,0.661,0.0,0.6351,0.6429,0.6457,0.6317,0.6296,0.6293,0.6293,0.6115,0.6095,0.6282,0.5969,0.58,0.58,0.5552,0.5324,0.511,0.4843,0.4565,0.4314,0.0,0.0,0.0,0.0,0.0,0.0,0.0,0.0,0.0,0.0,0.0,0.0,0.0,0.0,0.0,0.0,0.0,0.0,0.0,0.0,0.0,0.0,0.616,0.6119,0.6583,0.6977,0.7119,0.7604,0.777,0.7444,0.6839,0.6096,0.5055,0.4218,0.3451,0.271,0.2702,0.2727,0.2727,0.2738,0.3023,0.358,0.2744,0.2576,0.3079,0.2242,0.2409,0.358,0.358,0.4695,0.6649,0.6985,0.7598,0.8436,0.8771,0.8885,0.8875,0.8845,0.8747,0.8648,0.8648,0.8577,0.8476,0.8438,0.837,0.8299,0.8299,0.8201,0.8085,0.8085,0.8007,0.787,0.787,0.787,0.787,0.787,0.787,0.787,0.787,0.7834,0.774,0.7699,0.7522,0.7405,0.7316,0.7183,0.7024,0.6984,0.6893,0.6851,0.681,0.6746,0.0,0.659,0.6555,0.6457,0.6317,0.608,0.5978,0.6057,0.5938,0.5932,0.6091,0.5908,0.58,0.58,0.5552,0.5375,0.533,0.4867,0.4583,0.0,0.0,0.0,0.0,0.0,0.0,0.0,0.0,0.0,0.0,0.0,0.0,0.0,0.0,0.0,0.0,0.0,0.0,0.0,0.0,0.0,0.0,0.6335,0.6695,0.6885,0.7204,0.7496,0.7868,0.8096,0.7901,0.7166,0.6917,0.6131,0.4611,0.433,0.3969,0.3364,0.3285,0.3301,0.3301,0.3301,0.3636,0.436,0.3636,0.3636,0.436,0.3636,0.3916,0.5087,0.5087,0.6091,0.0,0.7878,0.8269,0.8885,0.8885,0.8885,0.0,0.0,0.0,0.0,0.0,0.871,0.8577,0.8577,0.8537,0.8482,0.8482,0.8425,0.836,0.836,0.8255,0.8136,0.8136,0.8089,0.7988,0.7988,0.7988,0.7988,0.7988,0.7921,0.7889,0.7824,0.7675,0.7519,0.7443,0.7299,0.0,0.7105,0.7028,0.6953,0.6896,0.6862,0.6841,0.6715,0.6678,0.6583,0.6412,0.6229,0.6113,0.6132,0.5989,0.0,0.0,0.0,0.5745,0.5623,0.5487,0.0,0.0,0.0,0.0,0.0,0.0,0.0,0.0,0.4088,0.3814,0.0,0.0,0.0,0.0,0.0,0.0,0.0,0.0,0.0,0.0,0.0,0.0,0.0,0.0,0.0,0.0,0.6912,0.7314,0.7777,0.7879,0.7963,0.8049,0.8347,0.7712,0.5728,0.6391,0.6101,0.4132,0.486,0.5417,0.5417,0.0,0.0,0.0,0.0,0.5487,0.5599,0.55,0.5504,0.5671,0.5504,0.6065,0.7137,0.7137,0.7809,0.8932,0.8915,0.8908,0.8905,0.8892,0.8885,0.8885,0.8885,0.8885,0.8885,0.8885,0.8797,0.8737,0.8737,0.0,0.0,0.8533,0.8523,0.8509,0.8509,0.8408,0.8347,0.8347,0.8184,0.8015,0.8015,0.8002,0.7988,0.7988,0.7988,0.7951,0.7865,0.7824,0.7729,0.7451,0.7429,0.7322,0.7122,0.7095,0.7055,0.6927,0.7014,0.7001,0.6783,0.6854,0.6817,0.6569,0.0,0.0,0.631,0.6118,0.605,0.6265,0.5979,0.5701,0.5457,0.5463,0.5463,0.5443,0.5443,0.5573,0.58,0.58,0.5735,0.5593,0.4521,0.3985,0.0,0.0,0.0,0.0,0.0,0.0,0.0,0.0,0.0,0.0,0.0,0.0,0.0,0.0,0.0,0.678,0.7312,0.7753,0.7917,0.8309,0.8547,0.8577,0.8632,0.8507,0.8213,0.7506,0.6903,0.648,0.5808,0.5417,0.5417,0.5417,0.0,0.5417,0.5489,0.6039,0.7005,0.6178,0.6218,0.7146,0.0,0.0,0.7498,0.7498,0.8132,0.9289,0.9164,0.9169,0.9103,0.8988,0.8885,0.8885,0.8885,0.8885,0.8885,0.8885,0.8865,0.8841,0.8841,0.8821,0.8797,0.8797,0.8767,0.8665,0.8665,0.856,0.0,0.8442,0.8336,0.8225,0.8225,0.8133,0.7988,0.7988,0.7988,0.7982,0.7951,0.7899,0.776,0.759,0.7455,0.7322,0.7122,0.7095,0.7088,0.7058,0.7078,0.7075,0.7018,0.694,0.6858,0.6675,0.6321,0.6168,0.63,0.6001,0.5888,0.6033,0.5983,0.5905,0.5725,0.5833,0.584,0.5718,0.5718,0.5745,0.58,0.58,0.5786,0.5752,0.54,0.515,0.0,0.0,0.0,0.0,0.0,0.0,0.0,0.0,0.0,0.0,0.0,0.5917,0.0,0.0,0.7044,0.7378,0.7797,0.8119,0.8343,0.857,0.871,0.871,0.8777,0.8578,0.8039,0.7989,0.7768,0.7152,0.7149,0.7146,0.7146,0.7256,0.7289,0.7289,0.741,0.7821,0.8399,0.7884,0.7915,0.85,0.7915,0.7915,0.85,0.85,0.8852,0.9378,0.93,0.9323,0.932,0.9191,0.9113,0.9045,0.9045,0.9001,0.8885,0.8885,0.8885,0.8885,0.8885,0.8885,0.8885,0.8885,0.8834,0.8825,0.8825,0.8716,0.8598,0.8598,0.8438,0.8323,0.8323,0.8153,0.7988,0.7988,0.7988,0.7988,0.7988,0.7931,0.7882,0.7733,0.7587,0.7438,0.7282,0.7146,0.7095,0.7095,0.7095,0.7095,0.7095,0.7034,0.6933,0.6831,0.6599,0.6448,0.6419,0.6188,0.6066,0.6146,0.6146,0.6078,0.5922,0.5952,0.5956,0.5918,0.5915,0.5956,0.6067,0.6067,0.6067,0.6067,0.5996,0.5771,0.0,0.0,0.0,0.0,0.0,0.0,0.0,0.0,0.545,0.5664,0.6156,0.66,0.6827,0.7217,0.7631,0.8021,0.8238,0.8438,0.8676,0.8737,0.8754,0.8754,0.8807,0.8491,0.7543,0.8325,0.8491,0.7543,0.8406,0.8981,0.8981,0.912,0.9255,0.9255,0.9347,0.9425,0.9425,0.9452,0.9466,0.9466,0.9466,0.9466,0.9466,0.9466,0.9466,0.9466,0.9439,0.9408,0.9381,0.9381,0.931,0.9255,0.9255,0.9106,0.8977,0.8895,0.8885,0.8885,0.8885,0.8885,0.8885,0.8885,0.8885,0.8885,0.8885,0.8797,0.8754,0.8754,0.8564,0.835,0.8371,0.8201,0.8025,0.7995,0.7988,0.7988,0.7988,0.7988,0.7944,0.7841,0.7719,0.7584,0.745,0.7268,0.7132,0.7102,0.7095,0.7095,0.7095,0.7095,0.7051,0.694,0.6903,0.6803,0.6538,0.6381,0.63,0.63,0.63,0.6245,0.6078,0.6074,0.6074,0.6074,0.6074,0.6135,0.63,0.63,0.63,0.63,0.63,0.6056,0.8457,0.7723,0.6973,0.6201,0.6023,0.6098,0.0,0.0,0.6441,0.6812,0.7105,0.7344,0.7468,0.7753,0.8024,0.8214,0.8479,0.8672,0.8706,0.8828,0.8858,0.8858,0.8871,0.883,0.8716,0.8826,0.883,0.8716,0.8999,0.9187,0.9187,0.9273,0.9354,0.9354,0.9503,0.9585,0.9585,0.9707,0.9771,0.9771,0.9771,0.9771,0.9771,0.9771,0.9771,0.9764,0.9639,0.9507,0.9381,0.9381,0.9371,0.9354,0.9354,0.9262,0.9169,0.8984,0.8885,0.8885,0.8885,0.8885,0.8885,0.8885,0.8885,0.8885,0.8885,0.8871,0.8858,0.8858,0.8791,0.8628,0.8492,0.835,0.8211,0.8022,0.7988,0.7988,0.7988,0.7988,0.7944,0.7841,0.7797,0.7699,0.7463,0.7402,0.7299,0.7119,0.7095,0.7095,0.7095,0.7095,0.7092,0.7075,0.696,0.6803,0.6538,0.6381,0.63,0.63,0.63,0.6293,0.6276,0.6272,0.6272,0.6272,0.6272,0.6282,0.63,0.63,0.63,0.63,0.63,0.6282,0.8766,0.783,0.0,0.0,0.6405,0.6528,0.6767,0.6848,0.6939,0.7217,0.7533,0.778,0.7845,0.817,0.8452,0.0,0.8706,0.879,0.879,0.8844,0.8885,0.8885,0.8885,0.8885,0.8885,0.8885,0.8974,0.9055,0.9176,0.9248,0.934,0.9432,0.9513,0.9513,0.9656,0.9734,0.9734,0.9791,0.9822,0.9822,0.9822,0.9822,0.9822,0.9822,0.9822,0.9819,0.9758,0.9696,0.9635,0.9635,0.9588,0.9513,0.9513,0.9418,0.9323,0.912,0.9011,0.8885,0.8885,0.8885,0.8885,0.8885,0.8885,0.8885,0.8885,0.8885,0.8885,0.8885,0.8828,0.8696,0.8632,0.8442,0.8255,0.8187,0.8106,0.7988,0.7988,0.7988,0.7971,0.7907,0.7872,0.7773,0.7648,0.7485,0.735,0.7285,0.7197,0.7095,0.7095,0.7095,0.7095,0.7095,0.697,0.6841,0.6624,0.6508,0.6388,0.6306,0.63,0.63,0.63,0.63,0.63,0.63,0.63,0.63,0.63,0.63,0.63,0.63,0.63,0.63,0.9107,0.0,0.0,0.7048,0.6916,0.6926,0.7078,0.7179,0.7324,0.7522,0.7814,0.8002,0.8096,0.8401,0.0,0.8703,0.8838,0.8885,0.8885,0.8885,0.8885,0.8885,0.8885,0.8885,0.8885,0.8885,0.8998,0.92,0.9248,0.934,0.9435,0.9588,0.9666,0.9666,0.9768,0.9822,0.9822,0.9822,0.9822,0.9822,0.9822,0.9822,0.9822,0.9822,0.9822,0.9822,0.9822,0.9822,0.9822,0.9822,0.9761,0.9666,0.9666,0.9578,0.9432,0.932,0.9188,0.9062,0.9062,0.9032,0.8998,0.8998,0.8971,0.8885,0.8885,0.8885,0.8885,0.8885,0.8804,0.8764,0.872,0.8554,0.8381,0.834,0.8214,0.8102,0.8102,0.8019,0.7988,0.7988,0.7901,0.7862,0.7818,0.7634,0.7478,0.7441,0.7302,0.7142,0.7102,0.7095,0.7095,0.7095,0.697,0.6839,0.6773,0.6583,0.6467,0.6364,0.632,0.63,0.63,0.63,0.63,0.63,0.63,0.63,0.63,0.63,0.63,0.63,0.63,0.63,0.0,0.0,0.8476,0.8145,0.7707,0.7436,0.7546,0.7689,0.7834,0.7938,0.7982,0.8035,0.8235,0.8387,0.8537,0.8686,0.8838,0.8885,0.8885,0.8885,0.8885,0.8885,0.8885,0.8885,0.0,0.8885,0.8998,0.92,0.9347,0.9442,0.9595,0.9737,0.9815,0.9815,0.9819,0.9822,0.9822,0.9822,0.9822,0.9822,0.9822,0.9822,0.9822,0.9822,0.9822,0.9822,0.9822,0.9822,0.9822,0.9822,0.9819,0.9815,0.9815,0.9727,0.9602,0.9598,0.95,0.9367,0.9367,0.9326,0.9204,0.9204,0.9052,0.8885,0.8885,0.8885,0.8885,0.8885,0.8878,0.8844,0.875,0.8703,0.8659,0.8509,0.8367,0.8313,0.8313,0.8147,0.7988,0.7988,0.7985,0.7934,0.7838,0.7804,0.775,0.7614,0.7461,0.7312,0.7115,0.7095,0.7095,0.7095,0.697,0.6883,0.6879,0.6647,0.6511,0.6508,0.6375,0.63,0.63,0.63,0.63,0.63,0.63,0.63,0.63,0.63,0.63,0.63,0.63,0.63,0.0,0.0,0.8861,0.8846,0.8296,0.7828,0.7879,0.8007,0.8099,0.8002,0.7988,0.8005,0.8106,0.8241,0.8387,0.8533,0.8686,0.8821,0.8868,0.9022,0.9045,0.8895,0.9022,0.0,0.0,0.0,0.0,0.9286,0.9351,0.949,0.9737,0.9795,0.9822,0.9822,0.9822,0.9822,0.9822,0.9822,0.9822,0.9822,0.9822,0.9822,0.9822,0.9822,0.9822,0.9822,0.9822,0.9822,0.9822,0.9822,0.9822,0.9822,0.9822,0.9791,0.9751,0.9751,0.9717,0.9646,0.9449,0.9347,0.9347,0.9245,0.9176,0.9062,0.8967,0.8885,0.8885,0.8885,0.8885,0.8871,0.8821,0.8784,0.8699,0.8645,0.8448,0.8323,0.8323,0.815,0.7988,0.7988,0.7988,0.7975,0.7921,0.7879,0.7763,0.7621,0.7468,0.7316,0.7115,0.7095,0.7095,0.7095,0.7055,0.6987,0.6896,0.6834,0.6688,0.6525,0.6467,0.6399,0.6303,0.63,0.63,0.63,0.63,0.63,0.63,0.63,0.63,0.63,0.63,0.63,1.0723,1.0134,0.9511,0.9401,0.8753,0.8184,0.8133,0.8201,0.8211,0.8001,0.787,0.7865,0.7811,0.7926,0.8079,0.8218,0.8459,0.8703,0.8854,0.9062,0.9193,0.9103,0.9178,0.0,0.0,0.0,0.0,0.9367,0.9432,0.9568,0.9808,0.9822,0.9822,0.9822,0.9822,0.9822,0.9822,0.9822,0.9822,0.9822,0.9822,0.9822,0.9822,0.9822,0.9822,0.9822,0.9822,0.9822,0.9822,0.9822,0.9822,0.9822,0.9822,0.9822,0.9822,0.9822,0.9822,0.9795,0.9605,0.9507,0.9445,0.9347,0.9337,0.9265,0.9059,0.9015,0.9005,0.8898,0.8885,0.8885,0.8885,0.8811,0.8791,0.8791,0.8604,0.8428,0.8428,0.8265,0.8123,0.8123,0.8025,0.7988,0.7988,0.7911,0.7841,0.7695,0.759,0.7455,0.7248,0.7129,0.7095,0.7095,0.7095,0.7058,0.6967,0.6916,0.6844,0.6647,0.6583,0.6528,0.6381,0.6375,0.6351,0.6303,0.63,0.63,0.63,0.63,0.63,0.63,0.63,0.63,1.1299,1.086,1.0377,0.9858,0.9102,0.8455,0.8354,0.8323,0.8177,0.7855,0.7672,0.7516,0.0,0.0,0.7628,0.7777,0.8191,0.8601,0.8851,0.9083,0.9282,0.0,0.0,0.0,0.0,0.0,0.0,0.9395,0.0,0.9673,0.9815,0.9822,0.9822,0.9822,0.9822,0.9822,0.9822,0.9822,0.9822,0.9822,0.9822,0.9822,0.9822,0.9822,0.9822,0.9822,0.9822,0.9822,0.9822,0.9822,0.9822,0.9822,0.9822,0.9822,0.9822,0.9822,0.9822,0.9822,0.9822,0.9734,0.9618,0.9612,0.951,0.9364,0.9258,0.921,0.918,0.8981,0.8885,0.8885,0.8885,0.8885,0.8885,0.8885,0.8821,0.871,0.871,0.8486,0.833,0.8323,0.8147,0.7988,0.7988,0.7988,0.7941,0.7845,0.7818,0.7702,0.7456,0.7244,0.7105,0.7095,0.7095,0.7095,0.7095,0.6974,0.6893,0.6886,0.6793,0.6644,0.6528,0.6525,0.6457,0.6313,0.631,0.6306,0.63,0.63,0.63,0.63,0.63,0.63,1.1748,1.101,1.015,1.0034,0.9324,0.8584,0.833,0.8323,0.817,0.759,0.7278,0.7017,0.0,0.0,0.0,0.7611,0.8214,0.0,0.9055,0.9327,0.0,0.0,0.0,0.9507,0.9391,0.9486,0.0,0.0,0.9588,0.9673,0.9815,0.9822,0.9822,0.9822,0.9822,0.9822,0.9822,0.9822,0.9822,0.9822,0.9822,0.9822,0.9822,0.9822,0.9822,0.9822,0.9822,0.9822,0.9822,0.9822,0.9822,0.9822,0.9822,0.9822,0.9822,0.9822,0.9822,0.9822,0.9822,0.9798,0.9751,0.9642,0.9585,0.95,0.9292,0.921,0.918,0.8981,0.8885,0.8885,0.8885,0.8885,0.8885,0.8885,0.8821,0.871,0.871,0.856,0.8397,0.8344,0.8147,0.7988,0.7988,0.7988,0.7975,0.7938,0.7885,0.7702,0.7456,0.7336,0.7268,0.7109,0.7095,0.7095,0.7095,0.7061,0.6997,0.6893,0.6849,0.6803,0.6647,0.6644,0.6573,0.646,0.6457,0.6405,0.63,0.63,0.63,0.63,0.63,0.63,1.1818,1.1043,1.0067,0.9671,0.9122,0.8598,0.8271,0.8124,0.7835,0.7335,0.6919,0.0,0.0,0.0,0.0,0.0,0.0,0.0,0.9149,0.9357,0.9527,0.0,0.9649,0.0,0.9581,0.9652,0.9703,0.0,0.9703,0.9737,0.9819,0.9822,0.9822,0.9822,0.9822,0.9822,0.9822,0.9822,0.9822,0.9822,0.9822,0.9822,0.9822,0.9822,0.9822,0.9822,0.0,0.9822,0.9822,0.9822,0.9822,0.9822,0.9822,0.9822,0.9822,0.9822,0.9822,0.9822,0.9822,0.9822,0.9808,0.9727,0.9703,0.9659,0.9422,0.9306,0.9279,0.9072,0.8988,0.8885,0.8885,0.8885,0.8885,0.8885,0.8817,0.8811,0.8811,0.8689,0.852,0.8364,0.8201,0.8119,0.8002,0.7988,0.7988,0.7988,0.7917,0.7828,0.7594,0.7509,0.7438,0.735,0.7282,0.7241,0.7241,0.7136,0.7061,0.6984,0.6977,0.6913,0.6807,0.68,0.6729,0.6576,0.6573,0.6532,0.6494,0.6426,0.6395,0.6392,0.6327,0.63,1.1716,1.1041,1.0108,0.9123,0.8821,0.8606,0.8203,0.7926,0.7573,0.706,0.0,0.0,0.6224,0.0,0.6753,0.7041,0.0,0.8538,0.9152,0.9313,0.9513,0.9788,0.9822,0.9822,0.9822,0.9822,0.9822,0.9822,0.9822,0.9822,0.9822,0.9822,0.9822,0.9822,0.9822,0.9822,0.9822,0.9822,0.9822,0.9822,0.9822,0.9822,0.9822,0.9822,0.9822,0.9822,0.0,0.0,0.9822,0.9822,0.9822,0.9822,0.9822,0.9822,0.9822,0.9822,0.9822,0.9822,0.9822,0.9822,0.9822,0.9822,0.9822,0.9795,0.9652,0.9517,0.9374,0.9258,0.9062,0.8905,0.8888,0.8885,0.8885,0.8885,0.8885,0.8885,0.8885,0.8818,0.8635,0.8377,0.8347,0.8228,0.8092,0.8005,0.7988,0.7988,0.7988,0.7941,0.7858,0.7716,0.7621,0.76,0.7482,0.7439,0.7419,0.7248,0.7119,0.7098,0.7095,0.7041,0.692,0.6913,0.6842,0.6732,0.6729,0.6722,0.6702,0.6566,0.6542,0.6542,0.6416,0.6358,1.2078,1.1295,1.0366,0.9203,0.8821,0.8606,0.8203,0.8301,0.0,0.0,0.0,0.6718,0.5893,0.6089,0.0,0.7007,0.0,0.0,0.0,0.0,0.9632,0.0,0.0,0.0,0.0,0.0,0.0,0.0,0.0,0.9822,0.9822,0.9822,0.9822,0.9822,0.9822,0.9822,0.9822,0.9822,0.9822,0.9822,0.9822,0.9822,0.9822,0.9822,0.9822,0.9822,0.9822,0.0,0.9822,0.9822,0.9822,0.9822,0.9822,0.9822,0.9822,0.9822,0.9822,0.9822,0.9822,0.9822,0.9822,0.9822,0.9822,0.9795,0.9652,0.9591,0.951,0.9289,0.919,0.9089,0.8967,0.8885,0.8885,0.8885,0.8885,0.8885,0.8885,0.8818,0.8696,0.8645,0.8438,0.8313,0.8235,0.8126,0.7988,0.7988,0.7988,0.7982,0.7955,0.7868,0.7729,0.7611,0.7577,0.7509,0.7429,0.7346,0.7278,0.7105,0.7095,0.7085,0.7061,0.7058,0.6994,0.6849,0.6846,0.6827,0.6702,0.6675,0.6661,0.6661,0.6634,0.6624,1.2583,1.2121,1.1374,0.9592,0.9398,0.936,0.8597,0.0,0.0,0.0,0.0,0.6772,0.6366,0.0,0.0,0.0,0.0,0.0,0.0,0.0,0.0,0.0,0.0,0.0,0.0,0.0,0.0,0.0,0.0,0.9822,0.9822,0.9822,0.9822,0.9822,0.9822,0.9822,0.9822,0.9822,0.9822,0.9822,0.9822,0.9822,0.9822,0.9822,0.9822,0.9822,0.9822,0.0,0.9822,0.9822,0.9822,0.9822,0.9822,0.9822,0.9822,0.9822,0.9822,0.9822,0.9822,0.9822,0.9822,0.9822,0.9822,0.9808,0.9741,0.9666,0.9561,0.9337,0.9272,0.9176,0.8977,0.8885,0.8885,0.8885,0.8885,0.8885,0.8885,0.8824,0.8804,0.8726,0.8598,0.8476,0.8394,0.8258,0.816,0.816,0.8092,0.7988,0.7988,0.7928,0.7853,0.7834,0.7756,0.7682,0.7607,0.7458,0.7339,0.7265,0.7139,0.7095,0.7095,0.7095,0.7065,0.6997,0.6994,0.696,0.6929,0.6854,0.682,0.6817,0.6736,0.6702,1.3364,1.3185,1.262,1.0625,1.0274,1.0179,0.9272,0.8579,0.0,0.0,0.0,0.7144,0.6924,0.0,0.0,0.0,0.0,0.0,0.0,0.0,0.0,0.0,0.0,0.0,0.0,0.0,0.0,0.0,0.0,0.0,0.9822,0.9822,0.9822,0.9822,0.9822,0.9822,0.9822,0.9822,0.9822,0.9822,0.9822,0.9822,0.9822,0.9822,0.9822,0.9822,0.9822,0.0,0.0,0.9822,0.9822,0.9822,0.9822,0.9822,0.9822,0.9822,0.9822,0.9822,0.9822,0.9822,0.9822,0.9822,0.9822,0.9822,0.9822,0.9744,0.9615,0.9432,0.9354,0.9217,0.8984,0.8885,0.8885,0.8885,0.8885,0.8885,0.8885,0.8885,0.8848,0.8781,0.8733,0.8672,0.8554,0.8411,0.8357,0.8327,0.8167,0.8025,0.7992,0.7988,0.7988,0.7988,0.7884,0.7845,0.7814,0.7597,0.7451,0.7421,0.7275,0.7146,0.7146,0.7112,0.7095,0.7095,0.7095,0.7095,0.7095,0.6987,0.693,0.6927,0.6851,0.6797,1.4492,1.4263,1.383,1.2729,1.1422,1.039,1.0351,0.0,0.0,0.0,0.864,0.8409,0.7116,0.6709,0.0,0.0,0.0,0.0,0.0,0.0,0.0,0.0,0.0,0.0,0.0,0.0,0.0,0.0,0.0,0.0,0.9822,0.9822,0.9822,0.9822,0.9822,0.9822,0.9822,0.9822,0.9822,0.9822,0.9822,0.9822,0.9822,0.9822,0.9822,0.9822,0.9822,0.0,0.0,0.9822,0.9822,0.9822,0.9822,0.9822,0.9822,0.9822,0.9822,0.9822,0.9822,0.9822,0.9822,0.9822,0.9822,0.9822,0.9822,0.9812,0.9744,0.9459,0.9371,0.9293,0.9011,0.8885,0.8885,0.8885,0.8885,0.8885,0.8885,0.8885,0.8878,0.8865,0.8804,0.8706,0.8693,0.8564,0.8418,0.834,0.831,0.8197,0.8008,0.7988,0.7988,0.7988,0.7978,0.7914,0.7824,0.7787,0.7716,0.7587,0.7434,0.735,0.735,0.7214,0.7095,0.7095,0.7095,0.7095,0.7095,0.7085,0.7078,0.7078,0.7061,0.7055,1.4831,1.5417,1.5518,1.3582,1.273,1.2152,1.1289,0.0,0.9821,0.9762,0.9352,0.8699,0.7735,0.6986,0.6398,0.0,0.0,0.0,0.0,0.0,0.0,0.0,0.0,0.0,0.0,0.0,0.0,0.0,0.0,0.0,0.9822,0.9822,0.9822,0.9822,0.9822,0.9822,0.9822,0.9822,0.9822,0.9822,0.9822,0.9822,0.9822,0.9822,0.9822,0.9822,0.9822,0.0,0.0,0.9822,0.9822,0.9822,0.9822,0.9822,0.9822,0.9822,0.9822,0.9822,0.9822,0.9822,0.9822,0.9822,0.9822,0.9822,0.9822,0.9822,0.9758,0.9462,0.9381,0.9313,0.8959,0.8885,0.8885,0.8885,0.8885,0.8885,0.8885,0.8885,0.8885,0.8885,0.8834,0.8849,0.8849,0.872,0.8601,0.8543,0.8384,0.8248,0.8187,0.8096,0.7988,0.7988,0.7988,0.7965,0.7904,0.7865,0.7787,0.7729,0.759,0.7468,0.7419,0.7312,0.7238,0.7098,0.7095,0.7095,0.7095,0.7095,0.7095,0.7095,0.7095,0.7095,1.5016,1.5946,1.6392,1.4619,1.386,1.328,0.0,0.0,1.0302,1.0542,0.9939,0.9122,0.8215,0.7377,0.6584,0.6005,0.0,0.0,0.0,0.0,0.0,0.0,0.0,0.0,0.0,0.0,0.0,0.0,0.0,0.0,0.0,0.9822,0.9822,0.9822,0.9822,0.9822,0.9822,0.9822,0.9822,0.9822,0.9822,0.9822,0.9822,0.9822,0.9822,0.9822,0.0,0.0,0.0,0.9822,0.9822,0.9822,0.9822,0.9822,0.9822,0.9822,0.9822,0.9822,0.9822,0.9822,0.9822,0.9822,0.9822,0.9822,0.9822,0.9822,0.9768,0.9517,0.9384,0.9256,0.9005,0.8885,0.8885,0.8885,0.8885,0.8885,0.8885,0.8885,0.8885,0.8885,0.8885,0.8885,0.8885,0.8849,0.8764,0.8716,0.8533,0.837,0.8333,0.8174,0.8092,0.7995,0.7988,0.7988,0.7988,0.7891,0.7879,0.7879,0.7743,0.7614,0.7506,0.7461,0.7366,0.721,0.7207,0.7142,0.7095,0.7095,0.7095,0.7095,0.7095,0.7095,1.5113,1.5667,1.5966,1.6225,1.4723,1.3195,0.0,1.1787,1.0513,1.0574,1.0428,0.9843,0.8468,0.7924,0.7351,0.6257,0.6042,0.0,0.0,0.0,0.0,0.0,0.0,0.0,0.0,0.0,0.0,0.0,0.0,0.0,0.0,0.9822,0.9822,0.9822,0.9822,0.9822,0.9822,0.9822,0.9822,0.9822,0.9822,0.9822,0.9822,0.9822,0.9822,0.0,0.0,0.0,0.0,0.9822,0.9822,0.9822,0.9822,0.9822,0.9822,0.9822,0.9822,0.9822,0.9822,0.9822,0.9822,0.9822,0.9822,0.9822,0.9822,0.9822,0.9791,0.9649,0.9388,0.918,0.8977,0.8885,0.8885,0.8885,0.8885,0.8885,0.8885,0.8885,0.8885,0.8885,0.8885,0.8885,0.8885,0.8881,0.8828,0.8733,0.871,0.8601,0.8357,0.832,0.8211,0.8005,0.7988,0.7988,0.7988,0.7988,0.7988,0.7988,0.7892,0.7807,0.7807,0.7672,0.7526,0.7415,0.7415,0.7292,0.7095,0.7095,0.7095,0.7095,0.7095,0.7095,1.4053,1.4564,1.4845,1.454,1.3685,1.2822,1.239,1.154,1.0795,1.0623,1.0428,0.9881,0.8452,0.8027,0.7573,0.6548,0.6529,0.0,0.0,0.0,0.0,0.0,0.0,0.0,0.0,0.0,0.0,0.0,0.0,0.0,0.0,0.9822,0.9822,0.9822,0.9822,0.9822,0.9822,0.9822,0.9822,0.9822,0.9822,0.9822,0.9822,0.9822,0.0,0.0,0.0,0.0,0.0,0.9822,0.9822,0.9822,0.9822,0.9822,0.9822,0.9822,0.9822,0.9822,0.9822,0.9822,0.9822,0.9822,0.9822,0.9822,0.9822,0.9822,0.9791,0.9649,0.9388,0.92,0.9096,0.9011,0.8885,0.8885,0.8885,0.8885,0.8885,0.8885,0.8885,0.8885,0.8885,0.8885,0.8885,0.8885,0.8868,0.8817,0.8777,0.8676,0.8584,0.8479,0.8357,0.8214,0.8197,0.8153,0.7998,0.7988,0.7988,0.7988,0.7944,0.7919,0.7814,0.777,0.7675,0.7529,0.7529,0.7502,0.7455,0.735,0.7244,0.7095,0.7095,0.7095,0.0,1.3533,1.3935,1.3533,1.3026,1.2496,1.2013,1.1416,1.0909,1.0653,1.0498,1.0072,0.8909,0.8581,0.8141,0.7013,0.0,0.0,0.0,0.0,0.0,0.0,0.0,0.0,0.0,0.0,0.0,0.0,0.0,0.0,0.0,0.9822,0.9822,0.9822,0.9822,0.9822,0.9822,0.9822,0.9822,0.9822,0.9822,0.9822,0.9822,0.9822,0.0,0.0,0.0,0.0,0.0,0.9822,0.9822,0.9822,0.9822,0.9822,0.9822,0.9822,0.9822,0.9822,0.9822,0.9822,0.9822,0.9822,0.9822,0.9822,0.9822,0.9822,0.9791,0.9649,0.9432,0.9282,0.9224,0.9045,0.8885,0.8885,0.8885,0.8885,0.8885,0.8885,0.8885,0.8885,0.8885,0.8885,0.8885,0.8885,0.8885,0.8885,0.8804,0.8774,0.8716,0.8628,0.8513,0.8367,0.835,0.8289,0.814,0.8022,0.7988,0.7988,0.7988,0.7948,0.7899,0.7896,0.7828,0.7682,0.7678,0.7651,0.76,0.7448,0.7322,0.7224,0.7122,0.7095,0.0,1.2605,1.3046,1.3026,1.2599,1.2104,1.1873,1.1356,0.0,1.0646,1.0593,1.0378,0.9695,0.942,0.8924,0.7786,0.0,0.0,0.0,0.0,0.0,0.0,0.0,0.0,0.0,0.0,0.0,0.0,0.0,0.0,0.0,0.9822,0.9822,0.9822,0.9822,0.9822,0.9822,0.9822,0.9822,0.9822,0.9822,0.9822,0.9822,0.9822,0.0,0.0,0.0,0.0,0.0,0.9822,0.9822,0.9822,0.9822,0.9822,0.9822,0.9822,0.9883,0.994,0.9819,0.9883,0.994,0.9819,0.9822,0.9819,0.9819,0.9822,0.9791,0.9663,0.9507,0.9347,0.9262,0.9055,0.8885,0.8885,0.8885,0.8885,0.8885,0.8885,0.8885,0.8885,0.8885,0.8885,0.8885,0.8885,0.8885,0.8885,0.8885,0.8834,0.8747,0.8726,0.8669,0.8516,0.8499,0.8438,0.8347,0.8143,0.8052,0.8088,0.8038,0.8038,0.8088,0.8137,0.8019,0.7831,0.7828,0.7804,0.7708,0.7518,0.7443,0.752,0.7238,0.7122,1.0948,0.0,1.1463,1.127,1.1109,1.0981,0.0,1.0794,1.0673,1.0606,0.0,1.0534,1.0251,0.979,0.9466,0.0,0.0,0.0,0.0,0.0,0.0,0.0,0.0,0.0,0.0,0.0,0.0,0.0,0.0,0.0,0.0,0.9822,0.9822,0.9822,0.9822,0.9822,0.9822,0.9822,0.9822,0.9822,0.9822,0.9822,0.9822,0.9822,0.0,0.0,0.0,0.0,0.9822,0.9822,0.9822,0.9822,0.9822,0.9822,0.9822,0.9822,1.0425,1.1088,1.0122,1.0425,1.1088,1.0122,1.0004,1.0183,1.0183,1.0001,0.9815,0.9781,0.9585,0.9371,0.9337,0.9133,0.8885,0.8885,0.8885,0.8885,0.8885,0.8885,0.8885,0.8885,0.8885,0.8885,0.8885,0.8885,0.8885,0.8885,0.8885,0.8871,0.8834,0.8828,0.8825,0.8672,0.8655,0.8598,0.8445,0.8299,0.8513,0.9175,0.8432,0.8382,0.9167,0.9213,0.8803,0.7984,0.7934,0.8297,0.8993,0.8101,0.8073,0.8741,0.7877,0.7428,1.0593,1.0807,1.0955,1.0827,1.0787,1.0787,1.0787,1.0687,0.0,0.0,0.0,1.0631,1.0667,1.0503,0.0,0.0,0.0,0.0,0.0,0.0,0.0,0.0,0.0,0.0,0.0,0.0,0.0,0.0,0.0,0.0,0.0,0.9822,0.9822,0.9822,0.9822,0.9822,0.9822,0.9822,0.9822,0.9822,0.9822,0.9822,0.9822,0.9822,0.9822,0.0,0.0,0.0,0.9822,0.9822,0.9822,0.9822,0.9822,0.9822,0.9822,0.9822,1.0607,1.1571,1.0906,1.1507,1.2526,1.1804,1.18,1.2037,1.2037,1.2037,1.1736,1.0604,0.9846,0.9439,0.9613,0.9274,0.8885,0.8885,0.9316,0.9754,0.9754,1.0135,1.0515,1.0515,1.0515,1.0515,1.0515,1.0515,1.0515,1.0515,1.0515,1.0515,1.0515,1.0621,1.0471,0.9841,0.9779,0.955,0.8863,0.8622,0.884,0.965,0.9115,0.9217,1.0293,1.0342,1.0047,0.946,0.946,0.9706,1.0228,0.9569,0.9525,0.999,0.935,0.8981,1.0646,1.0901,1.1096,1.0962,1.0962,1.0982,1.0935,0.0,0.0,0.0,0.0,0.0,0.0,0.0,0.0,0.0,0.0,0.0,0.0,0.0,0.0,0.0,0.0,0.0,0.0,0.0,0.0,0.0,0.0,0.0,0.0,0.9822,0.9822,0.9822,0.9822,0.9822,0.9822,0.9822,0.9822,0.9822,0.9822,0.9822,0.9822,0.9822,0.9822,0.0,0.0,0.0,0.9822,0.9822,0.9822,0.9822,0.9883,0.9879,0.9883,1.0122,1.1023,1.2169,1.2286,1.2946,1.3725,1.3725,1.3954,1.4178,1.4242,1.4421,1.4247,1.2105,1.0669,0.9841,1.0131,0.9553,0.8885,0.8885,0.9805,1.0726,1.0726,1.1596,1.2417,1.2417,1.2417,1.2417,1.2417,1.2417,1.2417,1.2417,1.2417,1.2417,1.2417,1.262,1.2453,1.1483,1.1428,1.0987,0.9931,0.952,0.9701,1.0484,0.9962,1.0175,1.137,1.1268,1.1268,1.1414,1.1268,1.1268,1.1414,1.1183,1.1096,1.1229,1.0918,1.0771,1.0894,1.1357,1.1591,1.0841,1.0847,1.0929,1.0713,1.0626,0.0,0.0,0.0,0.0,0.0,0.0,0.0,0.0,0.0,0.0,0.0,0.0,0.0,0.0,0.0,0.0,0.0,0.0,0.0,0.0,0.0,0.0,0.0,0.0,0.9822,0.9822,0.9822,0.9822,0.9822,0.9822,0.9822,0.9822,0.9822,0.9822,0.9822,0.9822,0.9822,0.0,0.0,0.9822,0.9822,0.9822,0.9822,0.9819,1.0122,1.0243,1.0361,1.174,1.3053,1.4247,1.5074,1.4609,1.3725,1.3949,1.4242,1.4604,1.4847,1.4966,1.5025,1.4911,1.3182,1.1442,1.1499,1.0224,0.8885,0.8885,0.9805,1.0726,1.0726,1.1596,1.2417,1.2417,1.2417,1.2417,1.2417,1.2417,1.2417,1.2417,1.2417,1.2417,1.2417,1.262,1.2719,1.2556,1.2778,1.2876,1.268,1.2452,1.279,1.3825,1.1286,1.0562,1.2398,1.1658,1.1609,1.2436,1.1609,1.1609,1.2484,1.1575,1.1609,1.2432,1.1526,1.1077,1.0754,1.1102,1.1336,1.1089,1.1524,1.194,1.1806,1.1779,0.0,0.0,0.0,0.0,0.0,0.0,0.0,0.0,0.0,0.0,0.0,0.0,0.0,0.0,0.0,0.0,0.0,0.0,0.0,0.0,0.0,0.0,0.0,0.0,0.9822,0.9822,0.9822,0.9822,0.9822,0.9822,0.9822,0.9822,0.9822,0.9822,0.9822,0.9822,0.9822,0.9822,0.0,0.9883,1.0065,1.0065,1.0183,1.0365,1.0486,1.0547,1.0846,1.2937,1.4545,1.5795,1.6921,1.6809,1.6279,1.6391,1.6621,1.6973,1.7097,1.7279,1.7467,1.7584,1.5387,1.2975,1.3146,1.2274,1.1214,1.1051,1.1919,1.2788,1.2635,1.3501,1.4315,1.4315,1.4315,1.4315,1.4315,1.4315,1.4315,1.4315,1.4315,1.4315,1.4476,1.4733,1.4728,1.4245,1.4347,1.418,1.3588,1.3276,1.3483,1.423,1.3422,1.3138,1.3782,1.3494,1.3468,1.3757,1.3318,1.3318,1.3757,1.3318,1.3318,1.3757,1.3318,1.3064,1.0673,1.0875,1.1162,1.1456,1.1937,1.2442,1.2723,1.273,0.0,0.0,0.0,0.0,0.0,0.0,0.0,0.0,0.0,0.0,0.0,0.0,0.0,0.0,0.0,0.0,0.0,0.0,0.0,0.0,0.0,0.0,0.0,0.0,0.9822,0.9822,0.9879,0.9879,0.9822,0.9879,0.9879,0.9822,0.9822,0.9822,0.9822,0.9822,0.9822,0.9822,0.9879,1.0243,1.0721,1.0846,1.1205,1.1683,1.1804,1.2045,1.2637,1.454,1.6031,1.722,1.8175,1.8473,1.8415,1.8473,1.8706,1.8939,1.8997,1.9185,1.9424,1.9424,1.7246,1.4955,1.4899,1.4101,1.3264,1.2989,1.3809,1.4632,1.4433,1.5292,1.6099,1.6099,1.6051,1.5998,1.5998,1.5945,1.5891,1.5891,1.5945,1.6051,1.6271,1.6583,1.6577,1.5879,1.5861,1.5577,1.4669,1.4454,1.4406,1.4716,1.5214,1.53,1.4912,1.5036,1.4981,1.479,1.479,1.479,1.479,1.479,1.479,1.479,1.479,1.479,1.0889,1.1176,1.147,1.1799,1.1476,1.1403,1.2536,1.2569,0.0,1.334,0.0,0.0,0.0,0.0,0.0,0.0,0.0,0.0,0.0,0.0,0.0,0.0,0.0,0.0,0.0,0.0,0.0,0.0,0.0,0.0,0.0,0.0,0.0,0.9822,1.0122,1.0122,0.9822,1.0122,1.0122,0.9822,0.9822,0.9822,0.9822,0.9822,0.9822,0.9822,1.0122,1.0963,1.2097,1.2397,1.3232,1.4366,1.4669,1.5677,1.7032,1.7214,1.7923,1.8758,1.8816,1.8648,1.848,1.8758,1.8881,1.8939,1.9243,1.9366,1.9424,1.9424,1.8824,1.786,1.6528,1.4757,1.3264,1.3264,1.4137,1.4959,1.4959,1.582,1.6624,1.6624,1.6424,1.6271,1.6271,1.6051,1.5891,1.5891,1.6111,1.6271,1.6324,1.6802,1.712,1.7067,1.7265,1.7417,1.7312,1.7312,1.7193,1.6956,1.6036,1.5496,1.5447,1.5229,1.5083,1.5083,1.5083,1.5083,1.5083,1.5083,1.5083,1.5083,1.5083,1.5083,1.0727,1.1236,1.173,1.1873,1.2013,0.0,0.0,1.3816,1.4108,1.4629,1.511,0.0,0.0,0.0,0.0,0.0,0.0,0.0,0.0,0.0,0.0,0.0,0.0,0.0,0.0,0.0,0.0,0.0,0.0,0.0,0.0,0.0,0.0,1.2753,1.2157,1.174,1.1619,1.0725,1.0243,1.0122,0.9883,1.0301,1.1318,1.1318,1.1856,1.2813,1.2933,1.3352,1.4009,1.4133,1.4609,1.5208,1.5332,1.6273,1.7513,1.7513,1.8227,1.9185,1.9185,1.9127,1.901,1.9185,1.9185,1.9243,1.9366,1.9424,1.9424,1.9424,1.8945,1.8373,1.7798,1.6811,1.5908,1.5761,1.6033,1.6311,1.6086,1.6411,1.6677,1.6677,1.663,1.653,1.653,1.6471,1.6418,1.6418,1.6471,1.6636,1.6802,1.7073,1.7279,1.743,1.7529,1.7582,1.7582,1.7582,1.7582,1.7483,1.6896,1.6288,1.5757,1.5826,1.5682,1.5363,1.5356,1.5356,1.5356,1.5356,1.5356,1.5356,1.5356,1.5356,1.0727,1.1169,1.1672,1.1859,0.0,0.0,1.4137,1.472,1.5196,1.5812,1.6192,0.0,0.0,0.0,0.0,0.0,0.0,0.0,0.0,0.0,0.0,0.0,0.0,0.0,0.0,0.0,0.0,0.0,0.0,0.0,0.0,0.0,0.0,0.0,1.383,1.3416,1.3292,1.2337,1.1679,1.1499,1.1257,1.1499,1.2041,1.2573,1.3407,1.4421,1.4663,1.5138,1.5736,1.5795,1.6214,1.6815,1.6815,1.7343,1.811,1.811,1.8648,1.9424,1.9424,1.9424,1.9424,1.9424,1.9424,1.9424,1.9424,1.9424,1.9424,1.9424,1.9011,1.8604,1.8517,1.8043,1.7529,1.7384,1.7331,1.7272,1.7054,1.6995,1.6995,1.6995,1.6895,1.6842,1.6842,1.6789,1.6677,1.6677,1.6789,1.6955,1.7179,1.7279,1.7378,1.7582,1.7582,1.7582,1.7582,1.7582,1.7582,1.7582,1.7447,1.7,1.6354,1.6282,1.6131,1.578,1.564,1.5588,1.5588,1.5588,1.5588,1.5588,1.5588,1.5588,1.0989,1.1002,1.1149,0.0,0.0,0.0,1.4613,1.5015,1.543,1.6904,0.0,0.0,0.0,0.0,0.0,0.0,0.0,0.0,0.0,0.0,0.0,0.0,0.0,0.0,0.0,0.0,0.0,0.0,0.0,0.0,0.0,0.0,0.0,0.0,1.4966,1.4966,1.4604,1.4966,1.4787,1.4118,1.4118,1.3292,1.1812,1.3412,1.4118,1.4178,1.4847,1.5849,1.7026,1.739,1.8286,1.9424,1.9424,1.9424,1.9424,1.9424,1.9424,1.9424,1.9424,1.9424,1.9424,1.9424,1.9424,1.9424,1.9424,1.9424,1.9424,1.9424,1.9152,1.8858,1.8564,1.8043,1.7589,1.7582,1.7582,1.7582,1.7582,1.7582,1.7582,1.7582,1.7384,1.7179,1.7179,1.6955,1.673,1.673,1.7008,1.7179,1.7179,1.743,1.7582,1.7582,1.7582,1.7582,1.7582,1.7582,1.7582,1.7582,1.7582,1.7507,1.7213,1.6643,1.6328,1.6321,1.5985,1.5784,1.5784,1.5784,1.5784,1.5784,1.5784,1.5784,1.072,1.1477,0.0,1.2184,0.0,0.0,0.0,1.5571,0.0,0.0,0.0,0.0,0.0,0.0,0.0,0.0,0.0,0.0,0.0,0.0,0.0,0.0,0.0,0.0,0.0,0.0,0.0,0.0,0.0,0.0,0.0,0.0,0.0,0.0,1.722,1.6744,1.6621,1.5618,1.5025,1.4787,1.5494,1.5553,1.5079,1.5553,1.6503,1.7812,1.8052,1.835,1.8706,1.8829,1.9068,1.9424,1.9424,1.9424,1.9424,1.9424,1.9424,1.9424,1.9424,1.9424,1.9424,1.9424,1.9424,1.9424,1.9424,1.9424,1.9424,1.9424,1.9152,1.8858,1.8564,1.8203,1.7856,1.7635,1.7582,1.7582,1.7582,1.7582,1.7582,1.7582,1.7529,1.7483,1.7483,1.7424,1.7318,1.7318,1.7424,1.7483,1.7483,1.7529,1.7582,1.7582,1.7582,1.7582,1.7582,1.7582,1.7582,1.7582,1.7582,1.7507,1.7213,1.7032,1.6744,1.6328,1.6186,1.6039,1.5784,1.5784,1.5784,1.5784,1.5784,1.5784,1.1162,1.1933,0.0,0.0,0.0,0.0,0.0,0.0,0.0,0.0,0.0,0.0,0.0,0.0,0.0,0.0,0.0,0.0,0.0,0.0,0.0,0.0,0.0,0.0,0.0,0.0,0.0,0.0,0.0,0.0,0.0,0.0,0.0,0.0,1.8648,1.8227,1.8227,1.7279,1.675,1.6626,1.7161,1.7455,1.7455,1.7455,1.811,1.9185,1.9366,1.9424,1.9424,1.9424,1.9424,1.9424,1.9424,1.9424,1.9424,1.9424,1.9424,1.9424,1.9424,1.9424,1.9424,1.9424,1.9424,1.9424,1.9424,1.9424,1.9339,1.9225,1.9058,1.8831,1.8424,1.8129,1.7916,1.7655,1.7582,1.7582,1.7582,1.7582,1.7582,1.7582,1.7582,1.7582,1.7582,1.7582,1.7582,1.7582,1.7582,1.7582,1.7582,1.7582,1.7582,1.7582,1.7582,1.7582,1.7582,1.7582,1.7582,1.7582,1.7582,1.7554,1.738,1.7266,1.6978,1.6453,1.6333,1.6126,1.5784,1.5784,1.5784,1.5784,1.5784,1.5784,1.1917,0.0,0.0,0.0,0.0,0.0,0.0,0.0,0.0,0.0,0.0,0.0,0.0,0.0,0.0,0.0,0.0,0.0,0.0,0.0,0.0,0.0,0.0,0.0,0.0,0.0,0.0,0.0,0.0,0.0,0.0,0.0,0.0,0.0,1.9343,1.9343,1.9343,1.9343,1.9163,0.0,1.8861,1.8861,1.8861,1.8913,1.8926,1.89,1.9203,1.9325,1.939,1.9417,1.9424,1.9424,1.9424,1.9424,1.9424,1.9424,1.9424,1.9424,1.9424,1.9424,1.9424,1.9424,1.9424,1.9424,1.9424,1.9424,1.9312,1.9038,1.8965,1.8831,1.8189,1.8035,1.7949,1.7662,1.7582,1.7582,1.7582,1.7582,1.7582,1.7582,1.7582,1.7582,1.7582,1.7582,1.7582,1.7582,1.7582,1.7582,1.7582,1.7582,1.7582,1.7582,1.7582,1.7582,1.7582,1.7582,1.7582,1.7582,1.7582,1.7582,1.7582,1.738,1.7099,1.6754,1.646,1.6166,1.5872,1.5798,1.5784,1.5784,1.5784,1.5784,0.0,1.2298,0.0,0.0,0.0,0.0,0.0,0.0,0.0,0.0,0.0,0.0,0.0,0.0,0.0,0.0,0.0,0.0,0.0,0.0,0.0,0.0,0.0,0.0,0.0,0.0,0.0,0.0,0.0,0.0,0.0,0.0,0.0,1.8677,1.8677,1.8677,1.8677,1.8677,1.8677,0.0,1.8565,1.8565,1.8579,1.8794,1.8879,1.8897,1.8961,1.9018,1.9038,1.9272,1.9424,1.9424,1.9424,1.9424,1.9424,1.9424,1.9424,1.9424,1.9424,1.9424,1.9424,1.9424,1.9424,1.9424,1.9424,1.9424,1.9352,1.9292,1.9272,1.9138,1.8551,1.8397,1.8257,1.7716,1.7582,1.7582,1.7582,1.7582,1.7582,1.7582,1.7582,1.7582,1.7582,1.7582,1.7582,1.7582,1.7582,1.7582,1.7582,1.7582,1.7582,1.7582,1.7582,1.7582,1.7582,1.7582,1.7582,1.7582,1.7582,1.7582,1.7582,1.7522,1.74,1.7112,1.676,1.6466,1.6179,1.5945,1.5784,1.5784,1.5784,1.5784,0.0,0.0,0.0,0.0,0.0,0.0,0.0,0.0,0.0,0.0,0.0,0.0,0.0,0.0,0.0,0.0,0.0,0.0,0.0,0.0,0.0,0.0,0.0,0.0,0.0,0.0,0.0,0.0,0.0,0.0,0.0,1.849,1.849,1.849,1.849,1.849,1.849,1.849,1.849,1.849,1.849,1.849,1.8504,1.8629,1.8688,1.8718,1.8718,1.8718,1.8738,1.9032,1.9158,1.9165,1.9312,1.9424,1.9424,1.9424,1.9279,1.9158,1.9158,1.9158,1.9132,1.8991,1.9138,1.9377,1.9032,1.9045,1.9125,1.8985,1.8945,1.8878,1.8571,1.8384,1.8196,1.7883,1.7689,1.7582,1.7582,1.7582,1.7582,1.7582,1.7582,1.7582,1.7582,1.7582,1.7582,1.7582,1.7582,1.7582,1.7582,1.7582,1.7582,1.7582,1.7582,1.7582,1.7582,1.7582,1.7582,1.7582,1.7582,1.7582,1.7582,1.7582,1.7442,1.7206,1.6854,1.656,1.6321,1.5972,1.5784,1.5784,1.5784,1.5784,0.0,0.0,0.0,0.0,0.0,0.0,0.0,0.0,0.0,0.0,0.0,0.0,0.0,0.0,0.0,0.0,0.0,0.0,0.0,0.0,0.0,0.0,0.0,0.0,0.0,0.0,0.0,0.0,0.0,0.0,1.8337,1.8337,1.8337,1.8337,1.8337,1.8337,1.8337,1.8337,1.8337,1.8337,1.8337,1.8337,1.8337,1.8337,1.8364,1.841,1.841,1.841,1.8437,1.8731,1.8844,1.8871,1.9125,1.9219,1.9219,1.9272,1.9105,1.8865,1.8965,1.8965,1.8891,1.8704,1.8938,1.9212,1.8778,1.8771,1.8885,1.8698,1.8644,1.8617,1.8517,1.831,1.8042,1.7935,1.7769,1.7582,1.7582,1.7582,1.7582,1.7582,1.7582,1.7582,1.7582,1.7582,1.7582,1.7582,1.7582,1.7582,1.7582,1.7582,1.7582,1.7582,1.7582,1.7582,1.7582,1.7582,1.7582,1.7582,1.7582,1.7582,1.7582,1.7582,1.7521,1.728,1.6934,1.664,1.6346,1.6052,1.5879,1.5784,1.5784,1.5784,0.0,0.0,0.0,0.0,0.0,0.0,0.0,0.0,0.0,0.0,0.0,0.0,0.0,0.0,0.0,0.0,0.0,0.0,0.0,0.0,0.0,0.0,0.0,0.0,0.0,0.0,0.0,0.0,0.0,0.0,1.7716,1.7702,1.7702,1.7702,1.7702,1.7702,1.7702,1.7702,1.7702,1.7702,1.7702,1.7702,1.7702,1.7702,1.7849,1.8049,1.8049,1.8049,1.8075,1.8424,1.8551,1.8551,1.8591,1.8611,1.8637,1.8891,1.8798,1.8624,1.9132,1.9138,1.8958,1.9178,1.9125,1.9018,1.9199,1.9098,1.8965,1.9185,1.931,1.9132,1.8624,1.8464,1.8297,1.7769,1.7609,1.7582,1.7582,1.7582,1.7582,1.7582,1.7582,1.7582,1.7582,1.7582,1.7582,1.7582,1.7582,1.7582,1.7582,1.7582,1.7582,1.7582,1.7582,1.7582,1.7582,1.7582,1.7582,1.7582,1.7582,1.7582,1.7582,1.7582,1.7562,1.7522,1.7293,1.6991,1.6647,1.6353,1.6079,1.5784,1.5784,1.5784,1.1189,0.0,0.0,0.0,0.0,0.0,0.0,0.0,0.0,0.0,0.0,0.0,0.0,0.0,0.0,0.0,0.0,0.0,0.0,0.0,0.0,0.0,0.0,0.0,0.0,0.0,0.0,0.0,0.0,1.7722,1.7589,1.7582,1.7582,1.7582,1.7582,1.7582,1.7582,1.7582,1.7582,1.7582,1.7582,1.7582,1.7582,1.7582,1.7655,1.7789,1.7789,1.7789,1.7809,1.8116,1.8243,1.8257,1.8424,1.849,1.8504,1.8637,1.8497,1.8277,1.8537,1.8544,1.8424,1.8384,1.851,1.8644,1.843,1.8397,1.8497,1.8791,1.8878,1.8858,1.8758,1.8611,1.8384,1.7943,1.7709,1.7582,1.7582,1.7582,1.7582,1.7582,1.7582,1.7582,1.7582,1.7582,1.7582,1.7582,1.7582,1.7582,1.7582,1.7582,1.7582,1.7582,1.7582,1.7582,1.7582,1.7582,1.7582,1.7582,1.7582,1.7582,1.7582,1.7582,1.7582,1.7582,1.7347,1.7052,1.6707,1.6413,1.6119,1.5784,1.5784,1.5784,0.0,0.0,0.0,0.0,0.0,0.0,0.0,0.0,0.0,0.0,0.0,0.0,0.0,0.0,0.0,0.0,0.0,0.0,0.0,0.0,0.0,0.0,0.0,0.0,0.0,0.0,0.0,0.0,0.0,1.7582,1.7582,1.7582,1.7582,1.7582,1.7582,1.7582,1.7582,1.7582,1.7582,1.7582,1.7582,1.7582,1.7582,1.7582,1.7582,1.7582,1.7582,1.7582,1.7602,1.7836,1.7876,1.7896,1.817,1.8257,1.827,1.835,1.819,1.7896,1.8049,1.8055,1.7969,1.7862,1.807,1.831,1.7929,1.7976,1.8169,1.8517,1.8657,1.8731,1.8798,1.8651,1.8397,1.8016,1.7749,1.7582,1.7582,1.7582,1.7582,1.7582,1.7582,1.7582,1.7582,1.7582,1.7582,1.7582,1.7582,1.7582,1.7582,1.7582,1.7582,1.7582,1.7582,1.7582,1.7582,1.7582,1.7582,1.7582,1.7582,1.7582,1.7582,1.7582,1.7582,1.7582,1.742,1.7166,1.682,1.6526,1.6233,1.5939,1.5818,1.5784,0.0,0.0,0.0,0.0,0.0,0.0,0.0,0.0,0.0,0.0,0.0,0.0,0.0,0.0,0.0,0.0,0.0,0.0,0.0,0.0,0.0,0.0,0.0,0.0,0.0,0.0,0.0,0.0,0.0,1.7582,1.7582,1.7582,1.7582,1.7582,1.7582,1.7582,1.7582,1.7582,1.7582,1.7582,1.7582,1.7582,1.7582,1.7582,1.7582,1.7582,1.7582,1.7582,1.7582,1.7602,1.7609,1.7609,1.7622,1.7629,1.7662,1.7909,1.7869,1.7689,1.827,1.8283,1.8035,1.8357,1.827,1.8062,1.837,1.8457,1.8531,1.8818,1.9105,1.9199,1.8657,1.8504,1.8343,1.7749,1.7595,1.7582,1.7582,1.7582,1.7582,1.7582,1.7582,1.7582,1.7582,1.7582,1.7582,1.7582,1.7582,1.7582,1.7582,1.7582,1.7582,1.7582,1.7582,1.7582,1.7582,1.7582,1.7582,1.7582,1.7582,1.7582,1.7582,1.7582,1.7582,1.7582,1.7569,1.7467,1.7179,1.6827,1.6533,1.6295,1.5965,1.5784,0.0,0.0,0.0,0.0,0.0,0.0,0.0,0.0,0.0,0.0,0.0,0.0,0.0,0.0,0.0,0.0,0.0,0.0,0.0,0.0,0.0,0.0,0.0,0.0,0.0,0.0,0.0,0.0,0.0,0.0,1.7582,1.7582,1.7582,1.7582,1.7582,1.7582,1.7582,1.7582,1.7582,1.7582,1.7582,1.7582,1.7582,1.7582,1.7582,1.7582,1.7582,1.7582,1.7582,1.7582,1.7582,1.7582,1.7582,1.7582,1.7595,1.7709,1.7675,1.7615,1.7836,1.7836,1.7762,1.7869,1.7836,1.7802,1.811,1.8203,1.8255,1.8791,1.8998,1.9038,1.8824,1.8771,1.8617,1.8023,1.7729,1.7582,1.7582,1.7582,1.7582,1.7582,1.7582,1.7582,1.7582,1.7582,1.7582,1.7582,1.7582,1.7582,1.7582,1.7582,1.7582,1.7582,1.7582,1.7582,1.7582,1.7582,1.7582,1.7582,1.7582,1.7582,1.7582,1.7582,1.7943,1.861,1.861,1.8151,1.7199,1.7092,1.679,1.6321,1.6166,1.6012,1.027,0.0,0.0,0.0,0.0,0.0,0.0,0.0,0.0,0.0,0.0,0.0,0.0,0.0,0.0,0.0,0.0,0.0,0.0,0.0,0.0,0.0,0.0,0.0,0.0,0.0,0.0,0.0,0.0,0.0,1.7582,1.7582,1.7582,1.7582,1.7582,1.7582,1.7582,1.7582,1.7582,1.7582,1.7582,1.7582,1.7582,1.7582,1.7582,1.7582,1.7582,1.7582,1.7582,1.7582,1.7582,1.7582,1.7582,1.7582,1.7582,1.7582,1.7582,1.7582,1.7582,1.7582,1.7582,1.7582,1.7582,1.7642,1.7902,1.8062,1.8297,1.8784,1.8991,1.9052,1.8951,1.8778,1.8475,1.8082,1.7809,1.7582,1.7582,1.7582,1.7582,1.7582,1.7582,1.7582,1.7582,1.7582,1.7582,1.7582,1.7582,1.7582,1.7582,1.7582,1.7582,1.7582,1.7582,1.7582,1.7582,1.7582,1.7582,1.7582,1.7582,1.7733,1.8094,1.8153,1.8662,1.9746,1.9746,1.9332,1.846,1.7951,1.7346,1.661,1.6415,1.6305,0.0,0.0,0.0,0.0,0.0,0.0,0.0,0.0,0.0,0.0,0.0,0.0,0.0,0.0,0.0,0.0,0.0,0.0,0.0,0.0,0.0,0.0,0.0,0.0,0.0,0.0,0.0,0.0,0.0,1.7582,1.7582,1.7582,1.7582,1.7582,1.7582,1.7582,1.7582,1.7582,1.7582,1.7582,1.7582,1.7582,1.7582,1.7582,1.7582,1.7582,1.7582,1.7582,1.7582,1.7582,1.7582,1.7582,1.7582,1.7582,1.7582,1.7582,1.7582,1.7582,1.7582,1.7582,1.7582,1.7582,1.7582,1.7642,1.7909,1.8263,1.8551,1.8851,1.9145,1.9299,1.9011,1.8448,1.8015,1.8009,1.7822,1.7595,1.7589,1.7582,1.7582,1.7582,1.7582,1.7582,1.7582,1.7582,1.7582,1.7582,1.7582,1.7582,1.7582,1.7582,1.7582,1.7582,1.7582,1.7582,1.7582,1.7635,1.7635,1.7582,1.7635,1.8101,1.9176,1.9176,1.9746,2.0936,2.0936,2.0936,2.0936,1.9532,1.8317,1.7288,1.6702,1.6745,1.0194,0.0,0.0,0.0,0.0,0.0,0.0,0.0,0.0,0.0,0.0,0.0,0.0,0.0,0.0,0.0,0.0,0.0,0.0,0.0,0.0,0.0,0.0,0.0,0.0,0.0,0.0,0.0,1.7514,1.7582,1.7582,1.7582,1.7582,1.7582,1.7582,1.7582,1.7582,1.7582,1.7582,1.7582,1.7582,1.7582,1.7582,1.7582,1.7582,1.7582,1.7582,1.7582,1.7582,1.7582,1.7582,1.7582,1.7582,1.7582,1.7582,1.7582,1.7582,1.7582,1.7582,1.7582,1.7582,1.7582,1.7582,1.7682,1.821,1.8424,1.8597,1.9105,1.9305,1.941,1.9265,1.8965,1.8575,1.8417,1.8136,1.7856,1.7629,1.7582,1.7582,1.7582,1.7582,1.7582,1.7582,1.7582,1.7582,1.7582,1.7582,1.7582,1.7582,1.7582,1.7582,1.7582,1.7582,1.7582,1.7582,1.8304,1.8408,1.7635,1.8356,1.8871,1.9176,1.9176,2.0107,2.2013,2.2064,2.2064,2.2064,2.0891,2.005,1.9494,1.9117,1.9319,0.0,0.0,0.0,0.0,0.0,0.0,0.0,0.0,0.0,0.0,0.0,0.0,0.0,0.0,0.0,0.0,0.0,0.0,0.0,0.0,0.0,0.0,0.0,0.0,0.0,0.0,0.0,1.7018,1.7121,1.7215,1.7215,1.7215,1.7215,1.7215,1.7335,1.7454,1.7454,1.7522,1.7582,1.7582,1.7582,1.7582,1.7582,1.7582,1.7582,1.7582,1.7582,1.7582,1.7582,1.7582,1.7582,1.7582,1.7582,1.7582,1.7582,1.7582,1.7582,1.7582,1.7582,1.7582,1.7582,1.7582,1.7582,1.7675,1.8156,1.839,1.8591,1.9052,1.9272,1.9424,1.9424,1.9058,1.8698,1.8531,1.8163,1.7802,1.7622,1.7582,1.7582,1.7582,1.7582,1.7582,1.7582,1.7582,1.7582,1.7582,1.7996,1.8251,1.8251,1.867,1.8975,1.8975,1.8975,1.8975,1.8975,1.9546,1.9642,1.9027,1.9539,2.0107,2.057,2.057,2.1387,2.3188,2.3188,2.3188,2.3188,2.2114,2.1166,2.0403,2.0688,2.0933,0.0,0.0,0.0,0.0,0.0,0.0,0.0,1.1964,0.0,0.0,0.0,0.0,0.0,0.0,0.0,0.0,0.0,0.0,0.0,0.0,0.0,0.0,0.0,0.0,0.0,1.6633,1.666,1.666,1.6687,1.6707,1.6707,1.6707,1.6707,1.6707,1.7012,1.7166,1.7199,1.746,1.7549,1.7582,1.7582,1.7582,1.7582,1.7582,1.7582,1.7582,1.7582,1.7582,1.7582,1.7582,1.7582,1.7582,1.7582,1.7582,1.7582,1.7582,1.7582,1.7582,1.7582,1.7582,1.7582,1.7582,1.7582,1.7642,1.7902,1.8257,1.8557,1.8885,1.9118,1.9336,1.937,1.8905,1.8484,1.845,1.8029,1.7622,1.7589,1.7582,1.7582,1.7582,1.7582,1.7582,1.7582,1.7582,1.7582,1.7582,1.8506,1.9176,1.9176,2.021,2.0885,2.0885,2.0885,2.0885,2.0885,2.0987,2.1038,2.0885,2.0987,2.1505,2.2476,2.2476,2.3038,2.4202,2.4202,2.4202,2.4202,2.3188,2.2046,2.0865,2.1758,2.2002,0.0,0.0,0.0,0.0,0.0,0.0,0.0,1.1229,0.0,0.0,0.0,0.0,0.0,0.0,0.0,0.0,0.0,0.0,0.0,0.0,0.0,0.0,0.0,0.0,0.0,1.6213,1.6359,1.6359,1.6573,1.6707,1.6707,1.6707,1.6707,1.6707,1.676,1.6907,1.7199,1.7259,1.7407,1.7582,1.7582,1.7582,1.7582,1.7582,1.7582,1.7582,1.7582,1.7582,1.7582,1.7582,1.7582,1.7582,1.7582,1.7582,1.7582,1.7582,1.7582,1.7582,1.7582,1.7582,1.7582,1.7582,1.7582,1.7642,1.7902,1.8257,1.8597,1.9132,1.8985,1.8718,1.8951,1.8751,1.843,1.8135,1.7989,1.7883,1.7635,1.7582,1.7582,1.7582,1.7582,1.7582,1.7582,1.7582,1.7582,1.7582,1.8506,1.9176,1.9176,2.021,2.0885,2.0885,2.0885,2.0885,2.0885,2.17,2.181,2.0936,2.1709,2.2274,2.2476,2.2476,2.3038,2.4202,2.4202,2.4202,2.4202,2.4003,2.375,2.3471,2.3669,2.351,0.0,0.0,0.0,1.2557,0.0,0.0,0.0,0.0,0.0,0.0,0.0,0.0,0.0,0.0,0.0,0.0,0.0,0.0,0.0,0.0,0.0,0.0,0.0,0.0,0.0,1.5752,1.5899,1.6039,1.6186,1.6266,1.6266,1.6266,1.6266,1.6266,1.6413,1.6633,1.6978,1.7125,1.7347,1.7582,1.7582,1.7582,1.7582,1.7582,1.7582,1.7582,1.7582,1.7582,1.7582,1.7582,1.7582,1.7582,1.7582,1.7582,1.7582,1.7582,1.7582,1.7582,1.7582,1.7582,1.7582,1.7582,1.7582,1.7609,1.7769,1.8016,1.835,1.8804,1.8718,1.8524,1.8671,1.849,1.8332,1.8758,1.8705,1.871,1.9168,1.9235,1.9235,1.9235,1.9235,1.9079,1.8513,1.8408,1.861,1.9183,2.0158,2.0826,2.0826,2.1844,2.2568,2.2568,2.2568,2.2568,2.2568,2.3029,2.3129,2.2568,2.3029,2.3338,2.3338,2.3338,2.3646,2.4202,2.4202,2.4202,2.4202,2.4202,2.4202,2.4202,2.4202,2.4091,0.0,0.0,0.0,0.0,0.0,1.3426,0.0,0.0,0.0,1.2047,0.0,0.0,0.0,0.0,0.0,0.0,0.0,0.0,0.0,0.0,0.0,0.0,0.0,0.0,0.0,1.5144,1.5284,1.5638,1.5611,1.5578,1.5738,1.5751,1.5784,1.5784,1.6059,1.6326,1.662,1.6914,1.7259,1.7502,1.7555,1.7582,1.7582,1.7582,1.7582,1.7582,1.7582,1.7582,1.7582,1.7582,1.7582,1.7582,1.7582,1.7582,1.7582,1.7582,1.7582,1.7582,1.7582,1.7582,1.7582,1.7582,1.7582,1.7595,1.7655,1.7796,1.8009,1.8384,1.841,1.833,1.839,1.8347,1.8479,1.9358,1.9575,1.9797,2.068,2.0933,2.1016,2.0901,2.1048,2.0786,1.9717,1.9539,1.9849,2.0783,2.181,2.2476,2.2476,2.3488,2.4202,2.4202,2.4202,2.4202,2.4202,2.4202,2.4202,2.4202,2.4202,2.4202,2.4202,2.4202,2.4202,2.4202,2.4202,2.4202,2.4202,2.4202,2.4202,2.4202,2.4202,2.4202,0.0,0.0,0.0,0.0,1.4032,0.0,0.0,0.0,1.3084,1.2547,0.0,0.0,0.0,0.0,0.0,0.0,0.0,0.0,0.0,0.0,0.0,0.0,0.0,0.0,0.0,0.0,1.4469,1.5068,1.4816,1.4897,1.5418,1.5691,1.5784,1.5784,1.5865,1.6019,1.6319,1.6607,1.6907,1.7253,1.7514,1.7582,1.7582,1.7582,1.7582,1.7582,1.7582,1.7582,1.7582,1.7582,1.7582,1.7582,1.7582,1.7582,1.7582,1.7582,1.7582,1.7582,1.7582,1.7582,1.7582,1.7582,1.7582,1.7629,1.7856,1.7822,1.7749,1.833,1.8103,1.7749,1.7975,1.855,1.9078,1.9234,1.9983,2.0723,2.0885,2.1175,2.1346,2.0992,2.149,2.1722,2.0834,2.0731,2.0731,2.0885,2.181,2.2476,2.2476,2.3488,2.4202,2.4202,2.4202,2.4202,2.4202,2.4202,2.4202,2.4202,2.4202,2.4202,2.4202,2.4202,2.4202,2.4202,2.4202,2.4202,2.4202,2.4202,2.4202,2.4202,2.4202,2.4202,0.0,0.0,0.0,0.0,0.0,0.0,0.0,0.0,1.2862,0.0,0.0,0.0,0.0,0.0,0.0,0.0,0.0,0.0,0.0,0.0,0.0,0.0,0.0,0.0,0.0,0.0,0.0,0.0,0.0,1.4703,1.5124,1.5424,1.5658,1.5778,1.5784,1.5972,1.6321,1.656,1.6854,1.7206,1.7442,1.7582,1.7582,1.7582,1.7582,1.7582,1.7582,1.7582,1.7582,1.7582,1.7582,1.7582,1.7582,1.7582,1.7582,1.7582,1.7582,1.7582,1.7582,1.7582,1.7582,1.7582,1.7582,1.7609,1.7736,1.7689,1.7635,1.7889,1.7909,1.7883,1.7962,1.8919,2.0005,2.0628,2.1683,2.2634,2.3057,2.3462,2.3618,2.3245,2.36,2.3922,2.3548,2.2783,2.2382,2.3065,2.3338,2.3497,2.3497,2.3895,2.4202,2.4202,2.4202,2.4202,2.4202,2.4301,2.4341,2.4202,2.4202,2.4202,2.4202,2.4202,2.4202,2.4202,2.4202,2.4251,2.439,2.439,2.444,2.4587,2.435,2.4202,1.4812,0.0,0.0,0.0,0.0,0.0,0.0,0.0,0.0,0.0,0.0,0.0,0.0,0.0,0.0,0.0,0.0,0.0,0.0,0.0,0.0,0.0,0.0,0.0,0.0,0.0,0.0,0.0,0.0,0.0,1.474,1.5077,1.5411,1.5705,1.5744,1.5932,1.6152,1.652,1.6814,1.7085,1.7402,1.7582,1.7582,1.7582,1.7582,1.7582,1.7582,1.7582,1.7582,1.7582,1.7582,1.7582,1.7582,1.7582,1.7582,1.7582,1.7582,1.7582,1.7582,1.7582,1.7582,1.7582,1.7786,1.8048,1.8048,1.8251,1.8527,1.8664,1.8809,1.8952,1.9097,2.0195,2.1441,2.2231,2.3358,2.4411,2.4944,2.5469,2.5678,2.527,2.5613,2.5928,2.5817,2.4704,2.4047,2.4692,2.467,2.452,2.431,2.435,2.4341,2.4301,2.4301,2.4301,2.4301,2.444,2.4489,2.4399,2.4399,2.4399,2.4399,2.4399,2.435,2.4291,2.435,2.444,2.448,2.4578,2.4686,2.4883,2.4548,2.4399,0.0,0.0,0.0,1.3919,0.0,0.0,0.0,0.0,1.5797,0.0,0.0,0.0,0.0,0.0,0.0,0.0,0.0,0.0,0.0,0.0,0.0,0.0,0.0,0.0,0.0,0.0,0.0,0.0,0.0,0.0,1.4068,1.4707,1.5156,1.5398,1.5678,1.5832,1.5798,1.642,1.6707,1.6727,1.7308,1.7582,1.7582,1.7582,1.7582,1.7582,1.7582,1.7582,1.7582,1.7582,1.7582,1.7582,1.7582,1.7582,1.7582,1.7582,1.7582,1.7582,1.7582,1.7582,1.7582,1.7582,1.8304,1.9176,1.9176,1.9901,2.0897,2.1282,2.1385,2.1473,2.1884,2.2773,2.3622,2.3622,2.4709,2.5735,2.5778,2.6304,2.6621,2.6238,2.6773,2.7217,2.682,2.6195,2.5535,2.4891,2.5213,2.5296,2.4585,2.4735,2.4784,2.4529,2.4489,2.4489,2.4489,2.448,2.4587,2.4883,2.4883,2.4883,2.4883,2.4883,2.4784,2.448,2.4735,2.4735,2.448,2.4784,2.4883,2.4883,2.4883,2.4883,0.0,0.0,1.9231,1.7113,0.0,0.0,0.0,0.0,0.0,0.0,0.0,0.0,0.0,0.0,0.0,0.0,0.0,0.0,0.0,0.0,0.0,0.0,0.0,0.0,0.0,0.0,0.0,0.0,0.0,0.0,0.0,1.4536,1.5142,1.5384,1.5678,1.5784,1.5784,1.6413,1.6707,1.6714,1.7301,1.7582,1.7582,1.7582,1.7582,1.7582,1.7582,1.7582,1.7582,1.7582,1.7582,1.7582,1.7582,1.7582,1.7582,1.7582,1.7582,1.7733,1.8603,1.9428,2.0055,2.0055,2.0305,2.0609,2.068,2.101,2.1402,2.1754,2.2025,2.217,2.2352,2.3381,2.4447,2.4447,2.5541,2.6514,2.6244,2.6717,2.71,2.6683,2.7053,2.7384,2.7198,2.7207,2.6926,2.6205,2.5824,2.5509,2.5267,2.5053,2.4883,2.4784,2.4784,2.4784,2.4784,2.4784,2.4883,2.5137,2.4981,2.4883,2.4883,2.4883,2.4883,2.4784,2.4833,2.4932,2.5039,2.5137,2.5235,2.544,2.544,2.5235,2.062,2.0964,0.0,1.9082,1.8326,0.0,1.5217,0.0,0.0,0.0,0.0,0.0,0.0,0.0,0.0,0.0,0.0,0.0,0.0,0.0,0.0,0.0,0.0,0.0,0.0,0.0,1.3528,1.3244,0.0,0.0,0.0,0.0,1.4881,1.5231,1.5625,1.5784,1.5784,1.6413,1.6707,1.6714,1.7301,1.7582,1.7582,1.7582,1.7582,1.7582,1.7582,1.7582,1.7582,1.7582,1.7582,1.7582,1.7582,1.7582,1.7582,1.7582,1.7891,1.8454,1.942,2.0503,2.1446,2.1628,2.1925,2.2247,2.2503,2.2881,2.3279,2.3681,2.3909,2.4059,2.4195,2.4965,2.5716,2.5716,2.6436,2.7077,2.6974,2.7296,2.7508,2.7357,2.7519,2.7701,2.7701,2.7906,2.7771,2.6935,2.6569,2.626,2.6006,2.5748,2.5626,2.5526,2.5403,2.5201,2.5049,2.5137,2.5235,2.543,2.5284,2.5186,2.5186,2.5186,2.5137,2.5039,2.5137,2.5235,2.5284,2.5391,2.5538,2.5693,2.5693,2.5489]}]]